[[{"header":{"parameterUnit":"m.s-1","parameterCategory":1,"la1":30.6,"la2":29.2853,"lo1":-89.7004,"lo2":-87.6739,"dx":0.0162,"dy":0.0183,"nx":112,"ny":82,"refTime":"2023-02-14T18:00:00:Z","depth":0,"parameterNumber":2,"parameterNumberName":"U-component_of_WINDS"},"data":[0.0,0.0,0.0,0.0,0.0,0.0,0.0,0.0,0.0,0.0,0.0,0.0,0.0,0.0,0.0,0.0,0.0,0.0,0.0,0.0,0.0,0.0,0.0,0.0,0.0,0.0,0.0,0.0,0.0,0.0,0.0,0.0,0.0,0.0,0.0,0.0,0.0,0.0,0.0,0.0,0.0,0.0,0.0,0.0,0.0,0.0,0.0,0.0,0.0,0.0,0.0,0.0,0.0,0.0,0.0,0.0,0.0,0.0,0.0,0.0,0.0,0.0,0.0,0.0,0.0,0.0,0.0,0.0,0.0,0.0,0.0,0.0,0.0,0.0,0.0,0.0,0.0,0.0,0.0,0.0,0.0,0.0,0.0,0.0,0.0,0.0,0.0,0.0,0.0,0.0,-6.014,-6.1993,-6.9053,-7.4091,-7.5151,-7.6334,-7.4152,-6.7474,0.0,0.0,0.0,0.0,0.0,0.0,0.0,0.0,0.0,0.0,0.0,0.0,0.0,0.0,0.0,0.0,0.0,0.0,0.0,0.0,0.0,0.0,0.0,0.0,0.0,0.0,0.0,0.0,0.0,0.0,0.0,0.0,0.0,0.0,0.0,0.0,0.0,0.0,0.0,0.0,0.0,0.0,0.0,0.0,0.0,0.0,0.0,0.0,0.0,0.0,0.0,0.0,0.0,0.0,0.0,0.0,0.0,0.0,0.0,0.0,0.0,0.0,0.0,0.0,0.0,0.0,0.0,0.0,0.0,0.0,0.0,0.0,0.0,0.0,0.0,0.0,0.0,0.0,0.0,0.0,0.0,0.0,0.0,0.0,0.0,0.0,0.0,0.0,0.0,0.0,0.0,0.0,0.0,0.0,0.0,0.0,0.0,0.0,0.0,0.0,0.0,0.0,0.0,0.0,-5.9685,-6.5969,-6.9342,-7.1708,-7.3036,-7.2202,-7.0247,-6.7117,0.0,0.0,0.0,0.0,0.0,0.0,0.0,0.0,0.0,0.0,0.0,0.0,0.0,0.0,0.0,0.0,0.0,0.0,0.0,0.0,0.0,0.0,0.0,0.0,0.0,0.0,0.0,0.0,0.0,0.0,0.0,0.0,0.0,0.0,0.0,0.0,0.0,0.0,0.0,0.0,0.0,0.0,0.0,0.0,0.0,0.0,0.0,0.0,0.0,0.0,0.0,0.0,0.0,0.0,0.0,0.0,0.0,0.0,0.0,0.0,0.0,0.0,0.0,0.0,0.0,0.0,0.0,0.0,0.0,0.0,0.0,0.0,0.0,0.0,0.0,0.0,0.0,0.0,0.0,0.0,0.0,0.0,0.0,0.0,0.0,0.0,0.0,0.0,0.0,0.0,0.0,0.0,0.0,0.0,0.0,0.0,0.0,0.0,0.0,0.0,0.0,0.0,0.0,-5.7305,-5.9721,-6.6466,-6.8659,-7.0181,-7.1598,-7.0722,-6.8739,-6.5681,-6.5167,0.0,0.0,0.0,0.0,0.0,0.0,0.0,0.0,0.0,0.0,0.0,0.0,0.0,0.0,0.0,0.0,0.0,0.0,0.0,0.0,0.0,0.0,0.0,0.0,0.0,0.0,0.0,0.0,0.0,0.0,0.0,0.0,0.0,0.0,0.0,0.0,0.0,0.0,0.0,0.0,0.0,0.0,0.0,0.0,0.0,0.0,0.0,0.0,0.0,0.0,0.0,0.0,0.0,0.0,0.0,0.0,0.0,0.0,0.0,0.0,0.0,0.0,0.0,0.0,0.0,0.0,0.0,0.0,0.0,0.0,0.0,0.0,0.0,0.0,0.0,0.0,0.0,0.0,0.0,0.0,0.0,0.0,0.0,0.0,0.0,0.0,0.0,0.0,0.0,0.0,0.0,0.0,0.0,0.0,0.0,0.0,0.0,0.0,0.0,0.0,0.0,0.0,-5.8425,-6.0534,-6.5803,-6.7554,-6.887,-7.0026,-6.936,-6.7528,-6.4312,-6.2631,0.0,0.0,0.0,0.0,0.0,0.0,0.0,0.0,0.0,0.0,0.0,0.0,0.0,0.0,0.0,0.0,0.0,0.0,0.0,0.0,0.0,0.0,0.0,0.0,0.0,0.0,0.0,0.0,0.0,0.0,0.0,0.0,0.0,0.0,0.0,0.0,0.0,0.0,0.0,0.0,0.0,0.0,0.0,0.0,0.0,0.0,0.0,0.0,0.0,0.0,0.0,0.0,0.0,0.0,0.0,0.0,0.0,0.0,0.0,0.0,0.0,0.0,0.0,0.0,0.0,0.0,0.0,0.0,0.0,0.0,0.0,0.0,0.0,0.0,0.0,0.0,0.0,0.0,0.0,0.0,0.0,0.0,0.0,0.0,0.0,0.0,0.0,0.0,0.0,0.0,0.0,0.0,0.0,0.0,0.0,0.0,0.0,0.0,0.0,0.0,0.0,0.0,-5.9514,-6.2666,-6.4983,-6.637,-6.7303,-6.7771,-6.6817,-6.5423,-6.3668,-6.176,0.0,0.0,0.0,0.0,0.0,0.0,0.0,0.0,0.0,0.0,0.0,0.0,0.0,0.0,0.0,0.0,0.0,0.0,0.0,0.0,0.0,0.0,0.0,0.0,0.0,0.0,0.0,0.0,0.0,0.0,0.0,0.0,0.0,0.0,0.0,0.0,0.0,0.0,0.0,0.0,0.0,0.0,0.0,0.0,0.0,0.0,0.0,0.0,0.0,0.0,0.0,0.0,0.0,0.0,0.0,0.0,0.0,0.0,0.0,0.0,0.0,0.0,0.0,0.0,0.0,0.0,0.0,0.0,0.0,0.0,0.0,0.0,0.0,0.0,0.0,0.0,0.0,0.0,0.0,0.0,0.0,0.0,0.0,0.0,0.0,0.0,0.0,0.0,0.0,0.0,0.0,0.0,0.0,0.0,0.0,0.0,0.0,0.0,0.0,0.0,0.0,0.0,-5.8134,-6.0905,-6.4419,-6.504,-6.5521,-6.6388,-6.5902,-6.418,-6.1014,0.0,0.0,0.0,0.0,0.0,0.0,0.0,0.0,0.0,0.0,0.0,0.0,0.0,0.0,0.0,0.0,0.0,0.0,0.0,0.0,0.0,0.0,0.0,0.0,0.0,0.0,0.0,0.0,0.0,0.0,0.0,0.0,0.0,0.0,0.0,0.0,0.0,0.0,0.0,0.0,0.0,0.0,0.0,0.0,0.0,0.0,0.0,0.0,0.0,0.0,0.0,0.0,0.0,0.0,0.0,0.0,0.0,0.0,0.0,0.0,0.0,0.0,0.0,0.0,0.0,0.0,0.0,0.0,0.0,0.0,0.0,0.0,0.0,0.0,0.0,0.0,0.0,0.0,0.0,0.0,0.0,0.0,0.0,0.0,0.0,0.0,0.0,0.0,0.0,0.0,0.0,0.0,0.0,0.0,0.0,0.0,0.0,0.0,0.0,0.0,0.0,0.0,-5.5418,-5.753,-6.014,-6.3305,-6.3935,-6.44,-6.5189,-6.4421,-6.2504,-5.9214,0.0,0.0,0.0,0.0,0.0,0.0,0.0,0.0,0.0,0.0,0.0,0.0,0.0,0.0,0.0,0.0,0.0,0.0,0.0,0.0,0.0,0.0,0.0,0.0,0.0,0.0,0.0,0.0,0.0,0.0,0.0,0.0,0.0,0.0,0.0,0.0,0.0,0.0,0.0,0.0,0.0,0.0,0.0,0.0,0.0,0.0,0.0,0.0,0.0,0.0,0.0,0.0,0.0,0.0,0.0,0.0,0.0,0.0,0.0,0.0,0.0,0.0,0.0,0.0,0.0,0.0,0.0,0.0,0.0,0.0,0.0,0.0,0.0,0.0,0.0,0.0,0.0,0.0,0.0,0.0,0.0,0.0,0.0,0.0,0.0,0.0,0.0,0.0,0.0,0.0,0.0,0.0,0.0,0.0,0.0,0.0,0.0,0.0,0.0,0.0,0.0,0.0,-5.4423,-5.8201,-6.1075,-6.1569,-6.3099,-6.409,-6.409,-6.2127,-6.0218,0.0,0.0,0.0,0.0,0.0,0.0,0.0,0.0,0.0,0.0,0.0,0.0,0.0,0.0,0.0,0.0,0.0,0.0,0.0,0.0,0.0,0.0,0.0,0.0,0.0,0.0,0.0,0.0,0.0,0.0,0.0,0.0,0.0,0.0,0.0,0.0,0.0,0.0,0.0,0.0,0.0,0.0,0.0,0.0,0.0,0.0,0.0,0.0,0.0,0.0,0.0,0.0,0.0,0.0,0.0,0.0,0.0,0.0,0.0,0.0,0.0,0.0,0.0,0.0,0.0,0.0,0.0,0.0,0.0,0.0,0.0,0.0,0.0,0.0,0.0,0.0,0.0,0.0,0.0,0.0,0.0,0.0,0.0,0.0,0.0,0.0,0.0,0.0,0.0,0.0,0.0,0.0,0.0,0.0,0.0,0.0,0.0,0.0,0.0,0.0,0.0,0.0,0.0,-5.4396,-5.7978,-6.0832,-6.1545,-6.2548,-6.3172,-6.3172,-6.1781,-5.9627,-5.6682,0.0,0.0,0.0,0.0,0.0,0.0,0.0,0.0,0.0,0.0,0.0,0.0,0.0,0.0,0.0,0.0,0.0,0.0,0.0,0.0,0.0,0.0,0.0,0.0,0.0,0.0,0.0,0.0,0.0,0.0,0.0,0.0,0.0,0.0,0.0,0.0,0.0,0.0,0.0,0.0,0.0,0.0,0.0,0.0,0.0,0.0,0.0,0.0,0.0,0.0,0.0,0.0,0.0,0.0,0.0,0.0,0.0,0.0,0.0,0.0,0.0,0.0,0.0,0.0,0.0,0.0,0.0,0.0,0.0,0.0,0.0,0.0,0.0,0.0,0.0,0.0,0.0,0.0,0.0,0.0,0.0,0.0,0.0,0.0,0.0,0.0,0.0,0.0,0.0,0.0,0.0,0.0,0.0,0.0,0.0,0.0,0.0,0.0,0.0,0.0,0.0,0.0,-5.3876,-5.7152,-5.9869,-6.1006,-6.1557,-6.2108,-6.2743,-6.1222,-5.8909,-5.578,0.0,0.0,0.0,0.0,0.0,0.0,0.0,0.0,0.0,0.0,0.0,0.0,0.0,0.0,0.0,0.0,0.0,0.0,0.0,0.0,0.0,0.0,0.0,0.0,0.0,0.0,0.0,0.0,0.0,0.0,0.0,0.0,0.0,0.0,0.0,0.0,0.0,0.0,0.0,0.0,0.0,0.0,0.0,0.0,0.0,0.0,0.0,0.0,0.0,0.0,0.0,0.0,0.0,0.0,0.0,0.0,0.0,0.0,0.0,0.0,0.0,0.0,0.0,0.0,0.0,0.0,0.0,0.0,0.0,0.0,0.0,0.0,0.0,0.0,0.0,0.0,0.0,0.0,0.0,0.0,0.0,0.0,0.0,0.0,0.0,0.0,0.0,0.0,0.0,0.0,0.0,0.0,0.0,0.0,0.0,0.0,0.0,0.0,0.0,0.0,0.0,0.0,-5.312,-5.6014,-5.8621,-6.0236,-6.0419,-6.1006,-6.245,-6.0432,-5.8107,-5.5757,0.0,0.0,0.0,0.0,0.0,0.0,0.0,0.0,0.0,0.0,0.0,0.0,0.0,0.0,0.0,0.0,0.0,0.0,0.0,0.0,0.0,0.0,0.0,0.0,0.0,0.0,0.0,0.0,0.0,0.0,0.0,0.0,0.0,0.0,0.0,0.0,0.0,0.0,0.0,0.0,0.0,0.0,0.0,0.0,0.0,0.0,0.0,0.0,0.0,0.0,0.0,0.0,0.0,0.0,0.0,0.0,0.0,0.0,0.0,0.0,-6.9542,-7.0226,0.0,0.0,0.0,0.0,0.0,0.0,0.0,0.0,0.0,0.0,0.0,0.0,0.0,0.0,0.0,0.0,0.0,0.0,0.0,0.0,0.0,0.0,0.0,0.0,0.0,0.0,0.0,0.0,0.0,0.0,0.0,0.0,0.0,0.0,0.0,0.0,0.0,0.0,0.0,0.0,-5.3004,-5.6014,-5.8621,-6.0236,-6.0419,-6.0529,-6.0896,-5.9281,-5.7483,-5.5706,-5.3805,0.0,0.0,0.0,0.0,0.0,0.0,0.0,0.0,0.0,0.0,0.0,0.0,0.0,0.0,0.0,0.0,0.0,0.0,0.0,0.0,0.0,0.0,0.0,0.0,0.0,0.0,0.0,0.0,0.0,0.0,0.0,0.0,0.0,0.0,0.0,0.0,0.0,0.0,0.0,0.0,0.0,0.0,0.0,0.0,0.0,0.0,0.0,0.0,0.0,0.0,0.0,0.0,0.0,0.0,0.0,0.0,0.0,0.0,0.0,-6.8227,-6.7875,0.0,0.0,0.0,0.0,0.0,0.0,0.0,0.0,0.0,0.0,0.0,0.0,0.0,0.0,0.0,0.0,0.0,0.0,0.0,0.0,0.0,0.0,0.0,0.0,0.0,0.0,0.0,0.0,0.0,0.0,0.0,0.0,0.0,0.0,0.0,0.0,0.0,0.0,0.0,0.0,-5.2968,-5.5684,-5.818,-6.0199,-6.0052,-5.9979,-6.0382,-5.8914,-5.7483,-5.6235,-5.4064,0.0,0.0,0.0,0.0,0.0,0.0,0.0,0.0,0.0,0.0,0.0,0.0,0.0,0.0,0.0,0.0,0.0,0.0,0.0,0.0,0.0,0.0,0.0,0.0,0.0,0.0,0.0,0.0,0.0,0.0,0.0,0.0,0.0,0.0,0.0,0.0,0.0,0.0,0.0,0.0,0.0,0.0,0.0,0.0,0.0,0.0,0.0,0.0,0.0,0.0,0.0,0.0,0.0,-7.1945,-7.2349,-7.2679,-7.1872,-7.1615,-7.1578,-6.8605,-6.6879,-6.6174,-6.6725,0.0,0.0,0.0,0.0,0.0,0.0,0.0,0.0,0.0,0.0,0.0,0.0,0.0,0.0,0.0,0.0,0.0,0.0,0.0,0.0,0.0,0.0,-5.5133,-5.6308,-5.6088,-5.53,-5.4162,0.0,0.0,0.0,0.0,0.0,0.0,0.0,0.0,0.0,0.0,0.0,-5.3261,-5.5611,-5.7923,-6.0346,-5.9735,-5.9478,-6.0126,-5.8841,-5.7666,-5.6859,-5.4803,-5.3044,0.0,0.0,0.0,0.0,0.0,0.0,0.0,0.0,0.0,0.0,0.0,0.0,0.0,0.0,0.0,0.0,0.0,0.0,0.0,0.0,0.0,0.0,0.0,0.0,0.0,0.0,0.0,0.0,0.0,0.0,0.0,0.0,-7.6126,-7.6406,0.0,0.0,0.0,0.0,0.0,0.0,0.0,0.0,0.0,0.0,0.0,0.0,0.0,-7.2092,-7.2165,-7.3487,-7.3523,-7.2386,-7.4478,-7.4771,-7.3487,-7.2716,-7.2716,-7.3266,-7.1468,0.0,-6.7326,-6.6092,0.0,0.0,0.0,0.0,0.0,0.0,0.0,0.0,0.0,0.0,0.0,0.0,0.0,0.0,0.0,0.0,0.0,0.0,0.0,0.0,0.0,0.0,-5.6381,-5.5868,-5.5706,-5.5376,-5.4485,-5.4028,-5.3608,-5.3118,-5.2069,-5.0823,0.0,0.0,0.0,0.0,0.0,0.0,-5.4766,-5.6785,-5.8767,-6.119,-6.0126,-5.9221,-5.9331,-5.851,-5.7666,-5.6859,-5.5831,-5.4589,-5.3015,-5.1788,0.0,0.0,0.0,0.0,0.0,0.0,0.0,0.0,0.0,0.0,0.0,0.0,0.0,0.0,0.0,0.0,0.0,0.0,0.0,0.0,0.0,0.0,0.0,0.0,0.0,0.0,0.0,0.0,0.0,-7.7504,-7.6959,-7.5294,-7.6594,-7.6616,0.0,0.0,0.0,0.0,0.0,0.0,0.0,0.0,0.0,-7.2679,-7.345,-7.3854,-7.3854,-7.4992,-7.5689,-7.5946,-7.7011,-7.7121,-7.6423,-7.5579,-7.5395,-7.5652,-7.4037,-7.2716,-7.1505,-6.8568,-6.6228,-6.4474,0.0,0.0,0.0,0.0,-6.1431,-6.1394,-6.0969,-6.0836,-6.0839,-6.0845,0.0,0.0,0.0,0.0,0.0,0.0,0.0,-5.6051,-5.5684,-5.6198,-5.6822,-5.6932,-5.6932,-5.7079,-5.7666,-5.6455,-5.4693,-5.2894,-5.2344,-5.1377,-4.8993,-4.8108,0.0,0.0,0.0,-5.1924,-5.4583,-5.7116,-5.9245,-6.075,-6.0713,-6.0382,-5.9905,-5.9538,-5.9208,-5.8841,-5.7629,-5.6235,-5.462,-5.358,-5.2528,0.0,0.0,0.0,0.0,0.0,0.0,0.0,0.0,0.0,0.0,0.0,0.0,0.0,0.0,0.0,0.0,0.0,0.0,0.0,0.0,0.0,0.0,0.0,0.0,0.0,0.0,0.0,0.0,-7.7929,-7.7515,-7.4248,-7.6468,-7.6901,0.0,0.0,0.0,0.0,0.0,0.0,-7.2247,-7.4147,-7.5028,-7.4625,-7.5432,-7.5946,-7.6166,-7.6937,-7.7965,-7.9213,-7.9433,-7.9507,-7.947,-7.8442,-7.7965,-7.7855,-7.624,-7.5285,-7.4625,-7.077,-6.8054,-6.6072,-6.464,-6.3686,-6.3025,-6.2218,-6.1924,-6.19,-6.1966,-6.1985,-6.1943,-6.1677,-6.1317,-6.0662,-5.8916,0.0,0.0,0.0,0.0,-5.5669,-5.5831,-5.6345,-5.7005,-5.7813,-5.8143,-5.8657,-5.9832,-5.8694,-5.6638,-5.4032,-5.3702,-5.2931,-5.0068,-4.9554,0.0,-4.8764,-5.0912,-5.3261,-5.5097,-5.7776,-5.9808,-6.0639,-6.1227,-6.1263,-6.0456,-6.0015,-5.9795,-5.9795,-5.8474,-5.7152,-5.5941,-5.5133,-5.3748,-5.1712,0.0,0.0,0.0,0.0,0.0,0.0,0.0,0.0,0.0,0.0,0.0,0.0,0.0,0.0,0.0,0.0,0.0,0.0,0.0,0.0,0.0,0.0,0.0,0.0,0.0,0.0,0.0,0.0,0.0,-7.2968,-7.6473,0.0,0.0,0.0,0.0,-7.4735,-7.5432,-7.5579,-7.4771,-7.5579,-7.6387,-7.709,-7.7965,-7.8772,-7.9543,-8.0351,-8.0791,-8.0901,-8.1636,-8.2003,-8.1966,-8.0388,-7.9653,-7.958,-7.7928,-7.6283,-7.4661,-7.1394,-6.9522,-6.8421,-6.5301,-6.4053,-6.3906,-6.3062,-6.2768,-6.2622,-6.1875,-6.1618,-6.1643,-6.1593,-6.0564,-5.9495,-6.0426,-5.8334,0.0,0.0,-5.6198,-5.5757,-5.6528,-5.6785,-5.7005,-5.7813,-5.8584,-5.9148,-5.9221,-5.9148,-5.8804,-5.7886,-5.6492,-5.495,-5.3261,0.0,-5.2968,-5.2873,-5.3702,-5.5133,-5.7519,-5.9281,-6.0639,-6.1447,-6.1557,-6.1263,-6.0456,-5.8988,-5.8107,-5.8107,-5.7336,-5.6822,-5.6748,-5.5978,-5.4533,-5.2417,-5.3584,0.0,0.0,0.0,0.0,0.0,0.0,0.0,0.0,0.0,0.0,0.0,0.0,0.0,0.0,0.0,0.0,0.0,0.0,0.0,0.0,0.0,0.0,0.0,0.0,0.0,0.0,0.0,0.0,-7.702,-7.9893,0.0,-7.7415,-7.7212,-7.6613,-7.5028,-7.613,-7.7011,-7.7268,-7.8552,-7.9617,-8.0424,-8.0755,-8.1048,-8.1342,-8.1636,-8.1782,-8.1782,-8.2039,-8.1636,-8.0645,-8.0057,-7.9213,-7.8185,-7.753,-7.665,-7.5542,-7.3891,-7.1798,-6.9449,-6.7247,-6.6109,-6.5521,-6.4714,-6.442,-6.431,-6.3503,-6.3209,-6.3025,-6.1961,-6.0529,-5.9195,-5.9076,-5.778,-5.6418,-5.6712,-5.6969,-5.7336,-5.8143,-5.834,-5.8524,-5.9355,-5.9391,-5.9478,-6.0529,-6.0346,-6.0199,-6.0933,-5.8547,-5.5868,-5.4252,-5.4399,-5.4399,-5.3371,-5.4766,-5.6271,-5.7116,-5.9098,-6.0309,-6.0089,-6.097,-6.1263,-6.0456,-5.9869,-5.9538,-5.9538,-5.8804,-5.7757,-5.6335,-5.6504,-5.5053,-5.1694,-5.3865,-5.3528,0.0,0.0,0.0,0.0,0.0,0.0,0.0,0.0,0.0,0.0,0.0,0.0,0.0,0.0,0.0,0.0,0.0,0.0,0.0,0.0,0.0,0.0,0.0,0.0,0.0,-7.963,-8.0893,-7.9642,-8.278,-8.363,-8.002,-8.0118,-7.9694,-7.7892,-7.8741,-7.9617,-8.0204,-8.0975,-8.1636,-8.2186,-8.2186,-8.2186,-8.2186,-8.2186,-8.2186,-8.2186,-8.2186,-8.1489,-8.0204,-7.991,-7.9029,-7.7745,-7.742,-7.6717,-7.5652,-7.5139,-7.334,-7.077,-6.9449,-6.8421,-6.7614,-6.6806,-6.6366,-6.5962,-6.4861,-6.4127,-6.3491,-6.2536,-6.1272,-6.0116,-5.97,-5.9006,-5.8356,-5.8223,-5.8569,-5.9122,-5.9651,-5.9762,-5.9909,-6.0425,-6.0388,-6.0451,-6.1398,-6.1374,-6.152,-6.256,-6.0236,-5.7703,-5.6602,-5.6638,-5.6271,-5.4656,-5.6014,-5.7116,-5.6822,-5.8694,-5.9905,-5.9648,-6.0566,-6.097,-6.0456,-5.9648,-5.9208,-5.9208,-5.8272,-5.7066,-5.5653,-5.6117,-5.4808,-5.138,-5.3331,-5.3433,-5.1496,0.0,0.0,0.0,0.0,0.0,0.0,0.0,0.0,0.0,0.0,0.0,0.0,0.0,0.0,0.0,0.0,0.0,0.0,0.0,0.0,0.0,0.0,0.0,-7.7089,-8.0594,-8.236,-8.05,-8.485,-8.6394,-8.2334,-8.4811,-8.5778,-8.361,-8.3467,-8.3431,-8.3431,-8.2659,-8.2219,-8.2219,-8.2219,-8.2219,-8.2186,-8.2219,-8.2219,-8.2186,-8.2186,-8.1782,-8.0938,-8.0167,-7.9323,-7.8516,-7.7671,-7.6356,-7.4918,-7.4882,-7.3927,-7.2422,-7.1615,-7.0807,-7.0,-6.9192,-6.8348,-6.7393,-6.5815,-6.42,-6.288,-6.3265,-6.2826,-6.2287,-6.2636,-6.218,-6.1483,-6.1069,-6.0959,-6.0974,-6.0974,-6.0996,-6.1033,-6.1033,-6.1589,-6.2068,-6.1728,-6.2242,-6.2768,-6.2805,-6.152,-6.0419,-6.0419,-5.9795,-5.8707,-5.7116,-5.7556,0.0,-5.7005,-5.8304,-5.9515,-6.0272,-6.0346,-6.0346,-6.0309,-5.8143,-5.6785,-5.6822,-5.5544,-5.4785,-5.4765,-5.4768,-5.3756,-5.1611,-5.1983,-5.2831,-5.4132,0.0,0.0,0.0,0.0,0.0,0.0,0.0,0.0,0.0,0.0,0.0,0.0,0.0,0.0,0.0,0.0,0.0,0.0,0.0,0.0,0.0,-7.8244,-8.0049,-8.0169,-8.2627,-8.4919,-8.6395,-8.8931,-8.9771,-8.7727,-8.7787,-8.7243,-8.5418,-8.4748,-8.4413,-8.4413,-8.3603,-8.301,-8.2721,-8.298,-8.283,-8.2186,-8.2534,-8.2534,-8.2186,-8.2186,-8.1452,-8.0094,-7.9874,-7.9029,-7.7635,-7.679,-7.5873,-7.4845,-7.4258,-7.3413,-7.2422,-7.1615,-7.0807,-7.0,-6.9192,-6.765,-6.5815,-6.4787,-6.3923,-6.3242,-6.3359,-6.381,-6.4181,-6.3691,-6.3653,-6.3468,-6.219,-6.2516,-6.3088,-6.2438,-6.2936,-6.359,-6.359,-6.3498,-6.3326,-6.2979,-6.259,-6.2385,-6.2745,-6.1961,-6.108,-6.0493,-6.0713,-6.0382,-5.8781,-5.9245,-5.9648,-5.9428,-6.0309,-6.0346,-5.8804,-5.9171,-5.9061,-5.7886,-5.6638,-5.6161,-5.6748,-5.5367,-5.4338,-5.395,-5.3916,-5.3641,-5.3013,-5.24,-5.2231,0.0,0.0,0.0,0.0,0.0,0.0,0.0,0.0,0.0,0.0,0.0,0.0,0.0,0.0,0.0,0.0,0.0,0.0,0.0,0.0,0.0,0.0,-8.0629,-8.2875,-8.4348,-8.5645,-8.7306,-8.9652,-9.1401,-9.1946,-9.0633,-9.0051,-8.9019,-8.7142,-8.5946,-8.5311,-8.5311,-8.4162,-8.333,-8.2897,-8.3301,-8.3186,-8.2502,-8.2927,-8.301,-8.2745,-8.2745,-8.211,-8.0852,-8.0489,-7.9601,-7.8307,-7.6958,-7.5948,-7.5138,-7.4125,-7.323,-7.2422,0.0,0.0,0.0,0.0,-6.7185,-6.5619,-6.4805,-6.4132,-6.3632,-6.3786,-6.4502,-6.5253,-6.4908,-6.5278,-6.5539,-6.4476,-6.4689,-6.5176,-6.4656,-6.4778,-6.5008,-6.5023,-6.4561,-6.4004,-6.3698,-6.3088,-6.2766,-6.3178,-6.2765,0.0,-6.1454,-6.1479,-6.1043,-5.9441,-5.9905,-6.0272,-5.9942,-6.0603,-6.0676,-5.9612,-5.9612,-5.9465,-5.8877,-5.7446,0.0,0.0,0.0,-5.4142,-5.3119,-5.2768,0.0,0.0,0.0,-5.2347,-5.2679,-5.2318,0.0,0.0,-5.3282,-5.2962,0.0,0.0,0.0,0.0,0.0,0.0,0.0,0.0,0.0,0.0,0.0,0.0,0.0,0.0,0.0,0.0,-8.3264,-8.5226,-8.8777,-8.9254,-8.9787,-9.1192,-9.2746,-9.3225,-9.1946,-9.1768,-9.085,-8.8849,-8.7107,-8.6135,-8.6135,-8.4591,0.0,0.0,0.0,-8.3443,-8.2957,-8.3387,-8.3545,-8.349,-8.349,-8.3004,-8.2135,-8.1435,-8.0613,-7.9642,-7.7709,-7.6393,-7.555,-7.429,-7.3206,-7.2186,-7.1488,-7.0954,-7.0275,-6.8148,-6.6881,-6.6194,-6.5388,0.0,0.0,-6.4532,-6.5253,-6.5972,-6.6294,-6.6955,-6.7506,-6.714,-6.7057,-6.7074,-6.6999,-6.6493,-6.5986,-6.5798,-6.5215,-6.4592,-6.4079,-6.3742,-6.3587,-6.3835,-6.3676,-6.3342,-6.2902,-6.2293,-6.1311,-5.9732,-6.021,-6.0467,-5.9722,-6.0236,-6.086,-6.141,-6.0823,0.0,-6.1153,-5.9134,-5.7556,-5.6859,-5.5597,-5.4209,-5.2712,-5.1952,-5.1743,-5.2144,-5.241,-5.2881,-5.3622,-5.387,-5.3979,-5.3979,-5.2341,-5.2353,0.0,0.0,0.0,0.0,0.0,0.0,0.0,0.0,0.0,0.0,0.0,0.0,0.0,0.0,0.0,-8.4121,-8.6596,-8.9133,-9.1201,-9.2487,-9.3191,-9.31,-9.3959,-9.4199,-9.3288,-9.2569,-9.1723,-9.0662,-8.8432,-8.7146,-8.7146,-8.5558,-8.4418,-8.396,-8.4393,-8.423,-8.3378,-8.3854,-8.3881,-8.349,-8.349,0.0,-8.1323,-8.1174,-8.0277,-7.8783,-7.7733,-7.6812,-7.5902,-7.4762,-7.298,-7.093,-7.0782,-7.0485,-6.9812,-6.7419,-6.6456,-6.6194,-6.5372,-6.5191,-6.5417,-6.6154,-6.7144,-6.8035,-6.8091,-6.8507,0.0,-6.806,-6.813,-6.8287,-6.7613,-6.8018,-6.8244,-6.6869,-6.671,-6.6352,-6.4687,-6.4267,-6.4166,-6.392,-6.3835,-6.3776,-6.3691,-6.3547,-6.3037,-6.1721,-6.2267,-6.2654,-6.2169,-6.2254,-6.1924,-6.075,-6.0493,-5.9942,-5.8804,-5.7666,-5.6969,-5.6822,-5.5971,-5.5021,-5.4065,-5.386,-5.3508,-5.2968,-5.3222,-5.3417,-5.3622,-5.387,-5.3979,-5.3979,-5.3625,-5.3691,0.0,0.0,0.0,0.0,0.0,0.0,0.0,0.0,0.0,0.0,0.0,-8.2054,-8.1246,0.0,-8.5555,-8.7709,-8.9737,-9.1567,-9.3121,-9.3997,-9.4343,-9.3982,-9.4576,-9.4502,-9.3249,-9.2632,-9.1799,-9.0548,-8.8577,-8.7402,-8.7402,-8.581,-8.4699,-8.423,-8.4675,-8.4541,-8.3881,-8.4306,-8.4443,-8.4205,-8.4205,-8.3565,-8.2322,-8.1908,-8.1043,-7.9763,-7.8328,-7.7466,-7.6892,-7.4884,-7.2932,-7.1176,-7.0728,-7.0172,-6.9438,-6.7608,-6.7237,-6.7446,-6.6277,-6.6181,-6.6672,-6.7089,-6.7846,-6.8603,-6.8603,-6.9076,-6.9506,-6.9111,-6.9179,-6.9261,-6.8868,-6.8857,-6.8751,-6.792,-6.7543,-6.7012,-6.5577,-6.5105,-6.4894,-6.448,-6.4287,-6.4227,-6.4385,-6.4405,-6.4096,-6.3146,-6.3237,-6.3312,-6.3123,-6.3099,-6.2732,-6.1728,-6.1763,-6.1479,-6.0493,-5.8951,-5.7666,-5.6859,-5.6051,-5.5427,-5.5023,-5.4987,-5.489,-5.4654,-5.4828,-5.4895,-5.4757,-5.4999,-5.4953,-5.4647,-5.4647,-5.4585,0.0,0.0,0.0,0.0,0.0,0.0,0.0,-8.0785,-8.1016,-8.19,-8.2978,-8.417,-8.5401,-8.6555,-8.8286,-9.121,-9.2556,-9.3694,-9.4983,-9.5155,-9.5095,-9.493,-9.499,-9.4501,-9.313,-9.2323,-9.138,-9.0204,-8.8563,-8.763,-8.763,-8.6189,-8.5139,-8.4595,-8.4774,-8.4722,-8.4331,-8.4699,-8.4901,-8.4901,-8.4901,-8.4446,-8.3574,-8.274,-8.1906,-8.0997,-7.8965,-7.7974,-7.758,-7.5092,-7.3241,-7.1949,-7.1272,-7.0567,-6.9788,-6.8162,-6.815,-6.8697,-6.7315,-6.7321,-6.7952,-6.8105,-6.8496,-6.8941,-6.8941,-6.9435,-7.0004,-7.0004,-7.0004,-7.0004,-7.0004,-6.9473,-6.8903,-6.8751,-6.822,-6.746,-6.6435,-6.5954,-6.5597,-6.5058,-6.4689,-6.4558,-6.4835,-6.4888,-6.4708,-6.4067,-6.3786,-6.3565,-6.3497,-6.3497,-6.3359,-6.2953,-6.3194,-6.3191,-6.2708,-6.0735,-5.8943,-5.7538,-5.686,-5.6366,-5.6076,-5.6076,-5.6134,-5.6251,-5.6407,-5.6414,-5.6169,-5.6405,-5.6273,-5.5823,-5.5849,-5.5489,-7.8823,-7.8631,-7.9131,-8.0477,-8.0285,-8.0592,0.0,-8.4324,-8.4555,-8.5363,-8.7401,-8.8902,-8.8363,-9.021,-9.2133,-9.3249,-9.4788,-9.6154,-9.7058,-9.7173,-9.7173,-9.7154,-9.5508,-9.4332,-9.4141,-9.1918,-9.0654,-9.1187,-8.9493,-8.8463,-8.8463,-8.763,-8.6734,-8.5891,-8.5256,-8.4878,-8.4831,-8.4878,-8.4901,-8.4901,-8.4901,-8.4446,-8.3574,-8.274,-8.1906,-8.0997,-7.9286,-7.7937,-7.685,-7.575,-7.4335,-7.2852,-7.2739,-7.257,-7.1957,-6.878,-6.815,-6.8811,-6.804,-6.8301,-6.9126,-6.9851,-7.014,-7.02,-7.02,-7.0276,-7.0353,-7.0353,-7.0353,-7.0353,-7.0353,-7.0276,-7.0009,-6.9284,-6.9071,-6.8537,-6.6895,-6.6407,-6.6045,-6.5242,-6.4938,-6.4853,-6.4871,-6.4888,-6.4781,-6.4405,-6.4307,-6.4186,-6.3857,-6.3835,-6.3683,-6.3359,-6.3359,-6.3063,-6.2239,-6.13,-6.0469,-5.9855,-5.9726,-5.9116,-5.7791,-5.7734,-5.7468,-5.6886,-5.7131,-5.7271,-5.7218,-5.7548,-5.7695,-5.7607,-5.7723,-5.6905,-7.8861,-7.9246,-7.9939,-7.9669,-8.1208,-8.3131,-8.4593,-8.567,-8.6748,-8.8055,-9.0325,-9.2018,-9.1672,-9.3672,-9.5518,-9.5865,-9.6942,-9.7865,-9.8211,-9.7827,-9.7134,-9.6172,-9.4792,-9.3906,-9.3785,-9.2198,-9.1216,-9.1385,-8.9771,-8.8933,-8.9335,-8.763,-8.6493,-8.6114,-8.5318,-8.4901,-8.4901,-8.4901,-8.4901,-8.4901,-8.4901,-8.4218,-8.2892,-8.2551,-8.1679,-8.0352,-7.967,-7.8772,-7.7808,-7.7067,-7.5804,-7.425,-7.3858,-7.3344,-7.2532,-7.0112,-6.9835,-7.0483,-6.9351,-6.9428,-7.0118,-7.0448,-7.0499,-7.0419,-7.0419,-7.0419,-7.0419,-7.0419,-7.0419,-7.0419,-7.0419,-7.0419,-7.0342,-6.9999,-6.9884,-6.9578,-6.8356,-6.8079,-6.7763,-6.6901,-6.6265,-6.5895,-6.5895,-6.5514,-6.5123,-6.5006,-6.467,-6.4346,-6.4227,-6.4206,-6.4169,-6.4111,-6.3909,-6.3509,-6.2755,-6.2363,-6.1898,-6.1206,-6.0736,-6.0209,-5.9603,-5.9075,-5.8765,-5.8694,-5.8859,-5.883,-5.8498,-5.8706,-5.8589,-5.8129,-5.8189,-5.7828,-7.8707,0.0,0.0,-8.0323,-8.3131,-8.6132,-8.6824,-8.8286,-8.9979,-9.1672,-9.3287,-9.4498,-9.4779,-9.6112,-9.7268,-9.7552,-9.8267,-9.8865,-9.9096,-9.8211,-9.698,-9.5518,-9.398,-9.2848,-9.2469,-9.1699,-9.1226,-9.1244,-9.0073,-8.952,-8.9949,-8.799,-8.6776,-8.6548,-8.5523,-8.5037,-8.5044,-8.5037,-8.5037,-8.5044,-8.5037,-8.4347,-8.3155,-8.2633,-8.1603,-8.0201,-7.9746,-7.922,-7.8639,-7.7966,-7.6884,-7.5569,-7.5083,-7.4406,-7.3483,-7.2051,-7.1673,-7.172,-7.0459,-7.0368,-7.0782,-7.0782,-7.0654,-7.0562,-7.0562,-7.0562,-7.0562,-7.0562,-7.0562,-7.0562,-7.0562,-7.0562,-7.0562,-7.0562,-7.0562,-7.0333,-6.9529,-6.9306,-6.9008,-6.8143,-6.7409,-6.6957,-6.6957,-6.6269,-6.5719,-6.5719,-6.531,-6.4915,-6.4689,-6.4615,-6.4595,-6.4666,-6.437,-6.403,-6.363,-6.361,-6.3268,-6.2559,-6.1764,-6.1212,-6.0996,-6.0183,-5.9877,-6.0127,-6.0241,-6.011,-5.9714,-5.9811,-5.955,-5.8973,-5.8973,-5.8973,0.0,0.0,-8.0631,-8.3901,-8.6671,-8.921,-9.171,-9.3557,-9.5249,-9.6903,-9.6711,-9.6533,-9.7485,-9.693,-9.6649,-9.7639,-9.8356,-9.9096,-9.9942,-9.8596,-9.7211,-9.6365,-9.3326,-9.0941,-9.0077,-8.98,-8.9995,-9.0858,-9.062,-9.0372,-9.0205,-8.933,-8.8454,-8.7671,-8.6035,-8.5266,-8.5491,-8.5266,-8.5266,-8.5491,-8.5266,-8.516,-8.5045,-8.3231,-8.1906,-8.0959,-7.9367,-7.8736,-7.8825,-7.8026,-7.7265,-7.6647,-7.6647,-7.6216,-7.5501,-7.4603,-7.3261,-7.1797,-7.1112,-7.0898,-7.0885,-7.0885,-7.0885,-7.0885,-7.0885,-7.0885,-7.0885,-7.0885,-7.0885,-7.0885,-7.0885,-7.0885,-7.0885,-7.0885,-7.0885,-7.0654,-6.9846,-6.9505,-6.915,-6.833,-6.802,-6.7852,-6.7852,-6.7148,-6.6575,-6.6575,-6.656,-6.6239,-6.5459,-6.5085,-6.4896,-6.4896,-6.4574,-6.4519,-6.4841,-6.4858,-6.4595,-6.4084,-6.3282,-6.2515,-6.1785,-6.098,-6.0623,-6.0757,-6.0769,-6.0769,-6.0742,-6.0742,-6.0742,-6.0704,-6.0704,-6.0704,0.0,0.0,-8.5247,-8.6978,-9.0594,-9.398,-9.4826,-9.6326,-9.7519,-9.7519,-9.5942,-9.4362,-9.3564,-9.3726,-9.4222,-9.4947,-9.7273,-9.9453,-10.0693,-9.9942,-9.8057,-9.4941,-9.3557,-9.1633,-8.8556,-8.8696,-8.953,-9.0724,-9.0282,-9.0067,-9.0372,-8.9075,-8.7909,-8.7069,-8.5963,-8.5431,-8.5511,-8.5431,-8.5431,-8.5511,-8.5431,-8.4838,-8.3732,-8.3671,-8.2563,-8.0676,-8.0104,-7.9877,-7.9915,-7.9167,-7.8415,-7.7718,-7.7851,-7.7085,-7.5864,-7.5595,-7.4749,-7.3558,-7.2231,-7.1745,-7.1668,-7.1091,-7.0898,-7.0898,-7.0898,-7.0898,-7.0898,-7.0898,-7.0898,-7.0898,-7.0898,-7.0898,-7.0898,-7.0898,-7.0898,-7.0821,-7.0552,-7.0434,-7.0329,-7.0022,-6.9519,-6.9107,-6.9107,-6.8377,-6.7788,-6.7788,-6.6657,-6.591,-6.6139,-6.5604,-6.526,-6.5352,-6.5253,-6.5284,-6.5552,-6.5566,-6.5493,-6.5293,-6.4486,-6.3937,-6.3681,-6.2823,-6.2425,-6.2474,-6.1935,-6.1678,-6.1678,-6.1089,-6.0781,-6.0781,-6.0781,-6.0781,0.0,-8.5324,-8.8786,-9.0902,-9.4326,-9.7307,-9.765,-9.8537,-9.896,-9.7928,-9.5105,-9.234,-9.0805,-9.0265,-9.0381,-9.138,-9.3753,-9.6415,-9.9134,-9.8019,-9.6211,-9.4364,-9.3095,-9.1171,-8.8171,-8.8094,-8.885,-9.0376,-8.9974,-8.9861,-9.0143,-8.8881,-8.7733,-8.6871,-8.603,-8.5648,-8.5723,-8.5648,-8.5456,-8.515,-8.5475,-8.4863,-8.3562,-8.3716,-8.2779,-8.0888,-8.0315,-8.0084,-8.0119,-7.9668,-7.9023,-7.8321,-7.8446,-7.7476,-7.6015,-7.6015,-7.5668,-7.4938,-7.3245,-7.2668,-7.2476,-7.1283,-7.1091,-7.1321,-7.0975,-7.0898,-7.0898,-7.0898,-7.0898,-7.0898,-7.0898,-7.0898,-7.0898,-7.0898,-7.0898,-7.0898,-7.0898,-7.0898,-7.0898,-7.0898,-7.0475,-7.0129,-7.0129,-6.9436,-6.8859,-6.8859,-6.7505,-6.6548,-6.6739,-6.6088,-6.5618,-6.5715,-6.5715,-6.5755,-6.5897,-6.5897,-6.5897,-6.5897,-6.5089,-6.4589,-6.4589,-6.3782,-6.3308,-6.3308,-6.2781,-6.2512,-6.2512,-6.1973,-6.1704,-6.1704,-6.1704,-6.1704,-8.6017,-8.8902,-9.1287,-9.5403,-9.7673,-9.9191,-10.0105,-10.0074,-9.9535,-9.8044,-9.4017,-9.0323,-8.8933,-8.6597,-8.5443,-8.7248,-8.8495,-9.0952,-9.5824,-9.371,-9.2518,-9.4788,-9.2172,-8.9787,-8.8863,-8.7979,-8.8132,-8.971,-8.9863,-8.9737,-8.9477,-8.8748,-8.7943,-8.7081,-8.6237,-8.5905,-8.6094,-8.5961,-8.5432,-8.4588,-8.547,-8.5394,-8.4512,-8.3562,-8.2646,-8.1633,-8.0046,-7.9448,-7.9565,-7.9544,-7.9143,-7.8554,-7.853,-7.7476,-7.6053,-7.6015,-7.6015,-7.5745,-7.4091,-7.3514,-7.3206,-7.1475,-7.1475,-7.1975,-7.1168,-7.0898,-7.0898,-7.0898,-7.0898,-7.0898,-7.0898,-7.0898,-7.0898,-7.0898,-7.0898,-7.0898,-7.0898,-7.0898,-7.0898,-7.0898,-7.0898,-7.0898,-7.0898,-7.0283,-6.9744,-6.9744,-6.9013,-6.8167,-6.7321,-6.6513,-6.6013,-6.6013,-6.6013,-6.6013,-6.6013,-6.5974,-6.5974,-6.5974,-6.5166,-6.4666,-6.4666,-6.3858,-6.3435,-6.3435,-6.3397,-6.3346,-6.3346,-6.332,-6.3308,-6.3308,-6.3308,-6.3308,-8.9286,-9.2826,-9.598,-9.7711,-9.9404,-10.0616,-10.0211,-9.9134,-9.7171,-9.3675,-8.8485,-8.3718,-8.0887,-8.1027,-8.2482,-8.519,-9.0262,-9.5114,-9.8632,-9.8365,-9.7365,-9.6134,-9.4634,-9.2633,-8.9863,-8.8863,-8.8556,-8.8979,-8.9017,-8.864,-8.779,-8.8262,-8.791,-8.6411,-8.6142,-8.6043,-8.6094,-8.6697,-8.6565,-8.5719,-8.6565,-8.6219,-8.4818,-8.513,-8.4153,-8.2117,-8.1694,-8.1189,-8.0645,-7.9992,-7.9623,-7.94,-7.8746,-7.7861,-7.6899,-7.6245,-7.6015,-7.5745,-7.4091,-7.3514,-7.3206,-7.1475,-7.1052,-7.1206,-7.0975,-7.0898,-7.0898,-7.0898,-7.0898,-7.0898,-7.0898,-7.0898,-7.0898,-7.0898,-7.0898,-7.0898,-7.0898,-7.0898,-7.0898,-7.0898,-7.0898,-7.0898,-7.0898,-7.0744,-7.0591,-7.0591,-6.9898,-6.9283,-6.9052,-6.8282,-6.7782,-6.7782,-6.7782,-6.7782,-6.7782,-6.7167,-6.6782,-6.6782,-6.6013,-6.5551,-6.5551,-6.5359,-6.5243,-6.5243,-6.4589,-6.4282,-6.4282,-6.3628,-6.3308,-6.3308,-6.3308,-6.3308,-9.2979,-9.598,-9.8365,-9.9596,-10.0289,-10.0192,-9.7955,-9.6053,-9.3264,-8.8043,-8.3002,-7.8661,-7.5746,-7.6736,-7.8912,-8.1655,-8.7408,-9.3021,-9.7267,-9.7211,-9.6788,-9.6826,-9.5095,-9.3133,-9.1248,-8.994,-8.9021,-8.8567,-8.8291,-8.7868,-8.7264,-8.7812,-8.7517,-8.6132,-8.6094,-8.6286,-8.6671,-8.7171,-8.7132,-8.6671,-8.7555,-8.6901,-8.4939,-8.5747,-8.4709,-8.2285,-8.2285,-8.1823,-8.1054,-8.0554,-7.9939,-7.9169,-7.8669,-7.7746,-7.6669,-7.6169,-7.6015,-7.5822,-7.4476,-7.4053,-7.3745,-7.2014,-7.1745,-7.1975,-7.1591,-7.1206,-7.0898,-7.0898,-7.0898,-7.0898,-7.0898,-7.0898,-7.1014,-7.136,-7.1475,-7.1591,-7.1975,-7.2052,-7.2052,-7.2052,-7.2052,-7.1937,-7.1552,-7.1475,-7.1321,-7.0975,-7.0514,-7.0244,-7.0244,-6.9167,-6.8385,-6.8385,-6.8385,-6.8385,-6.8385,-6.7936,-6.7667,-6.7667,-6.6898,-6.6436,-6.6436,-6.609,-6.5897,-6.5897,-6.5436,-6.5166,-6.5166,-6.4666,-6.4628,-6.4974,-6.4628,-6.4859,-9.6711,-9.8634,-9.9635,-10.1096,-10.0789,-9.8999,-9.4745,-9.2177,-8.8826,-8.2225,-7.8013,-7.4739,-7.2247,-7.3261,-7.5478,-7.8412,-8.322,-8.8682,-9.4531,-9.411,-9.4208,-9.7019,-9.4788,-9.2864,-9.2518,-9.1133,-8.9717,-8.844,-8.7777,-8.7346,-8.7214,-8.7308,-8.7017,-8.6132,-8.6094,-8.6517,-8.7401,-8.7517,-8.7555,-8.7594,-8.8209,-8.7363,-8.5247,-8.5709,-8.4747,-8.2631,-8.2516,-8.2016,-8.1246,-8.1131,-8.0208,-7.8823,-7.8592,-7.7592,-7.6284,-7.6092,-7.6015,-7.5861,-7.5014,-7.4784,-7.4591,-7.2937,-7.2899,-7.336,-7.2476,-7.1745,-7.1206,-7.0975,-7.1052,-7.1206,-7.1091,-7.1168,-7.1437,-7.2168,-7.236,-7.2591,-7.336,-7.3514,-7.3514,-7.3514,-7.3514,-7.3245,-7.2514,-7.236,-7.2129,-7.136,-7.1245,-7.1206,-7.1091,-6.9706,-6.8744,-6.8744,-6.8744,-6.8744,-6.8744,-6.8615,-6.8577,-6.8577,-6.7744,-6.7282,-6.7282,-6.659,-6.6244,-6.6244,-6.6244,-6.6244,-6.6244,-6.6244,-6.659,-6.7244,-6.6551,-6.7013,-9.9827,-10.1289,-10.202,-10.2289,-10.1212,-9.8807,-9.3879,-9.0321,0.0,0.0,-7.4763,-7.1874,-6.8617,-7.0127,-7.3825,-7.9894,-8.4727,-8.9991,-9.6436,-9.7044,-9.6784,-9.6537,-9.598,-9.4826,-9.271,-9.221,-9.1077,-8.879,-8.7885,-8.6987,-8.61,-8.6932,-8.7017,-8.6132,-8.6094,-8.6517,-8.7401,-8.8094,-8.8479,-8.8479,-8.7902,-8.7401,-8.6901,-8.567,-8.4863,-8.4401,-8.367,-8.2901,-8.2054,-8.1362,-8.0939,-8.0516,-7.9054,-7.8323,-7.79,-7.6515,-7.6015,-7.5861,-7.5014,-7.5168,-7.5515,-7.3822,-7.3399,-7.336,-7.2476,-7.2591,-7.2745,-7.1321,-7.1937,-7.2899,-7.2168,-7.2514,-7.3091,-7.3245,-7.3283,-7.3322,-7.3476,-7.3514,-7.3514,-7.3514,-7.3514,-7.3437,-7.3322,-7.3283,-7.3206,-7.3091,-7.3053,-7.2783,-7.2052,-7.1091,-7.0475,-7.0475,-7.0475,-7.0475,-7.0475,-6.986,-6.9475,-6.9475,-6.8667,-6.8167,-6.8167,-6.8052,-6.7975,-6.7975,-6.7975,-6.7975,-6.7975,-6.7975,-6.8052,-6.8167,-6.8052,-6.8129,-10.1404,-10.2597,-10.3212,-10.2712,-10.0712,-9.7057,-9.0633,0.0,0.0,0.0,-7.1398,-6.959,-6.7475,-6.9271,-7.2547,-7.7175,-8.1633,-8.6855,-9.3585,-9.4466,-9.5114,-9.6866,-9.5801,-9.448,-9.3249,-9.2326,-9.0941,-8.8863,-8.8709,-8.7906,-8.6035,-8.6428,-8.6748,-8.6786,-8.6786,-8.7401,-8.8709,-8.9133,-8.9556,-8.9979,-8.9133,-8.8017,-8.6709,-8.6363,-8.5478,-8.4209,-8.3785,-8.3362,-8.2862,-8.1631,-8.0823,-8.0323,-7.9515,-7.89,-7.8361,-7.713,-7.6938,-7.713,-7.5822,-7.5938,-7.6476,-7.5207,-7.4476,-7.4053,-7.363,-7.3514,-7.3322,-7.2476,-7.286,-7.3399,-7.2976,-7.3206,-7.363,-7.4014,-7.4476,-7.4822,-7.4822,-7.4822,-7.4822,-7.4822,-7.4822,-7.4668,-7.4207,-7.413,-7.3976,-7.3553,-7.3514,-7.336,-7.2937,-7.2514,-7.1898,-7.1014,-7.0898,-7.0898,-7.0898,-7.0552,-7.0321,-7.0321,-6.9552,-6.909,-6.909,-6.8629,-6.8385,-6.8385,-6.8385,-6.8385,-6.8385,-6.8385,-6.8615,-6.909,-6.8629,-6.8859,-10.202,-10.3097,-10.3482,-10.2789,-9.9904,-9.5288,-8.7786,-8.3362,0.0,0.0,-6.9013,-6.8129,-6.7244,-6.859,-7.0925,-7.4252,-7.7665,-8.2496,-8.9715,-9.0842,-9.2327,-9.6259,-9.4926,-9.3633,-9.3441,-9.2249,-9.0787,-8.9094,-8.9363,-8.8786,-8.6748,-8.6478,-8.6786,-8.7632,-8.7671,-8.8402,-8.9902,-8.9902,-9.0364,-9.121,-9.0133,-8.8594,-8.6671,-8.6786,-8.5863,-8.4132,-8.3747,-8.3593,-8.3478,-8.1977,-8.0862,-8.0054,-7.9862,-7.9361,-7.8669,-7.7861,-7.7938,-7.8284,-7.6784,-7.6746,-7.7169,-7.6284,-7.5553,-7.4938,-7.4784,-7.4399,-7.3976,-7.3577,-7.3783,-7.4014,-7.3822,-7.4053,-7.4476,-7.513,-7.5784,-7.6245,-7.6053,-7.613,-7.6284,-7.6284,-7.6438,-7.6322,-7.563,-7.5515,-7.5284,-7.4668,-7.4437,-7.4245,-7.4053,-7.386,-7.3168,-7.1629,-7.1475,-7.1475,-7.1475,-7.1283,-7.1168,-7.1168,-7.0398,-6.9975,-6.9975,-6.9321,-6.8936,-6.8936,-6.8936,-6.8936,-6.8936,-6.8936,-6.9283,-6.9937,-6.9244,-6.9629,-10.1712,-10.2712,-10.2712,-10.2597,-9.9481,-9.4595,-8.7671,0.0,0.0,-7.1129,-6.9013,-6.8129,-6.7244,-6.6705,-6.8257,-7.4045,-7.5318,-7.8561,-8.7134,-8.8855,-9.0224,-9.2859,-9.3483,-9.3403,-9.2672,-9.2479,-9.1672,-8.994,-8.9171,-8.8709,-8.8479,-8.7709,-8.7671,-8.8556,-8.8556,-8.9017,-8.9902,-8.9902,-9.0364,-9.1171,-8.9594,-8.8671,-8.8402,-8.617,-8.5401,-8.5786,-8.4247,-8.3593,-8.3516,-8.2593,-8.1708,-8.09,-8.0131,-7.9746,-7.9592,-7.8707,-7.8438,-7.8361,-7.7476,-7.7207,-7.7169,-7.6284,-7.5938,-7.5745,-7.4938,-7.5207,-7.5438,-7.3937,-7.4591,-7.5592,-7.4822,-7.5745,-7.6976,-7.7053,-7.713,-7.6938,-7.6169,-7.663,-7.7169,-7.7169,-7.7746,-7.8246,-7.8169,-7.813,-7.813,-7.8054,-7.74,-7.6669,-7.5861,-7.5091,-7.4245,-7.336,-7.3283,-7.3283,-7.3283,-7.2552,-7.2091,-7.2091,-7.1283,-7.0783,-7.0783,-7.0706,-7.0667,-7.0667,-7.0667,-7.0667,-7.0667,-7.0667,-7.0706,-7.0783,-7.0706,-7.0744,-10.0212,-10.2212,-10.3289,-10.2712,-9.8288,-9.2633,-8.7325,0.0,-7.6169,-7.1398,-6.9744,-6.8936,-6.8052,-6.6782,-6.6882,-6.9938,0.0,0.0,-7.8661,-8.0666,-8.3525,-8.904,-9.0262,-9.1364,-9.3056,-9.2787,-9.1979,-9.0787,-8.944,-8.9133,-9.0133,-8.8902,-8.8556,-8.9402,-8.944,-8.9825,-9.0671,-9.0671,-9.0864,-9.1171,-8.9479,-8.844,-8.7863,-8.6324,-8.5517,-8.5363,-8.467,-8.4093,-8.3516,-8.267,-8.1823,-8.1054,-8.0708,-8.0592,-8.0477,-7.9592,-7.9592,-7.9862,-7.8477,-7.8464,-7.877,-7.7381,-7.6958,-7.6983,-7.6447,-7.613,-7.6053,-7.6399,-7.663,-7.6823,-7.6938,-7.7476,-7.8015,-7.8015,-7.8015,-7.7938,-7.7592,-7.7784,-7.8015,-7.8015,-7.8707,-7.9131,-7.8592,-7.8938,-7.9092,-7.8592,-7.8222,-7.79,-7.7553,-7.7207,-7.6861,-7.6553,-7.4707,-7.3514,-7.3514,-7.3168,-7.2976,-7.2976,-7.2668,-7.2476,-7.2476,-7.1975,-7.1668,-7.1668,-7.1168,-7.0898,-7.0898,-7.0898,-7.0898,-7.0898,-7.1437,-7.1398,-9.7673,-10.0596,-10.2597,-10.1981,-9.6942,-9.1018,0.0,0.0,-7.5014,-7.1591,-7.0052,-6.9129,-6.85,-6.705,-6.6267,0.0,0.0,-6.8295,-7.2943,-7.4575,-7.7627,-8.3927,-8.5075,-8.6863,-9.071,-9.171,-9.1864,-9.1248,-9.0094,-8.994,-9.1133,-9.0094,-8.971,-9.0287,-9.0287,-9.0594,-9.121,-9.121,-9.1056,-9.0787,-8.9363,-8.8248,-8.7363,-8.6247,-8.5555,-8.5247,-8.5016,-8.4401,-8.3555,-8.2939,-8.2054,-8.1093,-8.1131,-8.1116,-8.1031,-8.0526,-8.0675,-8.0877,-7.9524,-7.948,-7.9881,-7.8423,-7.8065,-7.817,-7.8207,-7.742,-7.6841,-7.8268,-7.8213,-7.794,-7.8749,-7.8921,-7.8861,-7.8861,-7.8861,-7.8823,-7.8554,-7.89,-7.9276,-7.9312,-8.0251,-8.0844,-8.0274,-8.0642,-8.0776,-8.0174,-7.9673,-7.9297,-7.9261,-7.8859,-7.8566,-7.8492,-7.6399,-7.4899,-7.463,-7.463,-7.4399,-7.3899,-7.386,-7.3745,-7.3514,-7.2899,-7.2591,-7.2591,-7.1975,-7.1668,-7.1668,-7.1668,-7.1552,-7.1283,-7.1898,-7.1745,-9.4134,-9.7557,-10.0096,-10.0096,-9.5634,-9.0094,0.0,0.0,-7.5014,-7.1591,-6.959,-6.8398,-6.8385,-6.715,-6.638,-6.7271,0.0,0.0,-7.2236,-7.2551,-7.3712,-7.7188,-7.7519,-7.94,-8.4516,-8.8748,-9.121,-9.121,-9.1171,-9.1171,-9.121,-9.1171,-9.1171,-9.121,-9.121,-9.121,-9.121,-9.121,-9.0787,-8.9902,-8.9094,-8.8248,-8.7325,-8.567,-8.5363,-8.6055,-8.5247,-8.4401,-8.3593,-8.3593,-8.2593,-8.1124,-8.1267,-8.1224,-8.1154,-8.1475,-8.1363,-8.1015,-8.0481,-8.0183,-7.9971,-7.9321,-7.9065,-7.922,-8.0024,-7.9093,-7.7969,-7.8871,-7.8932,-7.8979,-7.9868,-7.9923,-7.9785,-7.9785,-7.9785,-7.9554,-7.8669,-7.9862,-8.1092,-8.1258,-8.2689,-8.3901,-8.4111,-8.3979,-8.3834,-8.3834,-8.2366,-8.1242,-8.1085,-7.972,-7.8733,-7.8507,-7.8477,-7.813,-7.7323,-7.7246,-7.6515,-7.4822,-7.4707,-7.4322,-7.3538,-7.35,-7.35,-7.35,-7.3462,-7.3476,-7.3476,-7.3476,-7.3014,-7.2168,-7.2206,-7.1745,-8.7478,-8.971,-9.1287,-9.0671,-8.694,-8.2901,-8.0977,0.0,-7.2052,-7.0437,-6.9167,-6.8244,-6.7628,-6.6262,-6.5923,-6.8078,0.0,0.0,-6.8942,-7.158,-7.4506,-7.7789,-8.3795,-8.8325,-8.994,-9.0748,-9.121,-9.121,-9.121,-9.121,-9.121,-9.121,-9.121,-9.121,-9.0633,-9.0325,-9.0325,-8.9787,-8.9363,-8.9056,-8.8209,-8.7671,-8.7363,-8.6247,-8.5863,-8.6055,-8.5247,-8.4747,-8.4417,-8.3355,-8.2603,-8.2091,-8.1683,-8.1487,-8.1451,-8.1569,-8.1546,-8.1412,-8.127,-8.123,-8.1136,-8.0368,-8.0176,-8.0326,-8.0559,-7.9735,-7.8871,-7.9686,-8.0301,-8.0915,-8.1767,-8.1952,-8.2032,-8.2505,-8.2702,-8.269,-8.2273,-8.2741,-8.3217,-8.3278,-8.418,-8.4773,-8.43,-8.4603,-8.4749,-8.418,-8.3638,-8.3266,-8.3205,-8.2789,-8.2404,-8.2221,-8.2193,-8.1094,-7.8338,-7.813,-7.7861,-7.7323,-7.7284,-7.7169,-7.6938,-7.5822,-7.5207,-7.5207,-7.4091,-7.3514,-7.3514,-7.2899,-7.2476,-7.2168,-7.1591,-7.1475,0.0,-8.4939,-8.6247,-8.5363,-8.1977,0.0,0.0,0.0,-7.0206,-6.9398,-6.8513,-6.7667,-6.6782,-6.5961,-6.5856,-6.7237,-6.6441,-6.639,-6.8444,-7.0779,-7.3593,-7.7136,-8.4401,-8.9286,-8.9594,-9.0594,-9.121,-9.121,-9.121,-9.121,-9.121,-9.0902,-9.0744,-9.0807,-9.0223,-8.9936,-9.0015,-8.9145,-8.8517,-8.8209,-8.7671,-8.7209,-8.6901,-8.6363,-8.6094,-8.6055,-8.5247,-8.4911,0.0,-8.3263,-8.2638,-8.2663,-8.1956,-8.1628,-8.1635,-8.1757,-8.1728,-8.1635,-8.1757,-8.1783,-8.174,-8.1283,-8.1233,-8.1286,-8.1286,-8.0808,-8.0327,-8.0832,-8.133,-8.1863,-8.2766,-8.2947,-8.3103,-8.3836,-8.4103,-8.4161,-8.403,-8.4335,-8.4671,-8.4736,-8.5445,-8.5854,-8.5408,-8.5952,-8.6182,-8.5367,-8.5251,-8.5113,-8.4699,-8.4432,-8.4184,-8.3914,-8.3616,-8.2477,-8.0123,-8.0246,-8.0015,-7.9054,-7.9285,-7.9169,-7.8515,-7.7476,-7.6938,-7.6938,-7.5938,-7.5245,-7.4938,-7.3745,-7.3129,-7.3129,-7.2283,-7.2168,0.0,0.0,0.0,0.0,0.0,0.0,0.0,0.0,0.0,-6.8475,-6.7628,-6.6782,-6.6051,-6.6108,-6.6114,-6.5447,-6.603,-6.7489,-7.0098,-7.0549,-7.2086,-7.6058,-8.0977,-8.4286,-8.4939,-8.8748,-9.121,-9.121,-9.1133,-9.1133,-9.1133,-9.0287,-8.9905,-9.0132,-8.9861,-8.9822,-9.0016,-8.9013,-8.8111,-8.7325,-8.7325,-8.6863,-8.6094,-8.6094,-8.6055,-8.5978,-8.5209,-8.4928,-8.4877,-8.3268,-8.274,-8.2859,-8.2115,-8.1746,-8.1649,-8.199,-8.189,-8.1698,-8.1998,-8.1959,-8.1843,-8.2033,-8.2104,-8.211,-8.211,-8.211,-8.2104,-8.2104,-8.199,-8.2098,-8.2993,-8.3165,-8.3324,-8.4206,-8.4411,-8.4421,-8.44,-8.5031,-8.5667,-8.5853,-8.6532,-8.7111,-8.7188,-8.7697,-8.7854,-8.7028,-8.6989,-8.6632,-8.5596,-8.4893,-8.4359,-8.3966,-8.3192,-8.2648,-8.2409,-8.3109,-8.2516,-8.0131,-8.0746,-8.0439,-7.8823,-7.8669,-7.8592,-7.8592,-7.8477,-7.7977,-7.7092,-7.5476,-7.4668,-7.4591,-7.386,-7.3514,0.0,0.0,0.0,0.0,0.0,0.0,0.0,0.0,0.0,0.0,0.0,0.0,-6.5936,-6.5634,-6.5952,-6.7609,-6.7072,-6.7586,-7.0802,-7.4925,-7.8669,-8.147,-8.5709,-8.7748,-8.5978,-8.9094,-9.121,-9.121,-9.0594,-9.021,-9.021,-8.944,-8.9115,-8.9436,-8.8615,-8.8257,-8.8277,-8.7369,-8.6748,-8.6401,-8.6401,-8.6286,-8.6094,-8.6094,-8.5747,-8.517,-8.4978,-8.462,-8.4118,-8.3191,-8.2926,-8.2969,-8.2294,-8.2012,-8.1998,-8.2091,-8.2039,-8.1998,-8.2052,-8.2052,-8.2033,-8.2098,-8.2104,-8.2116,-8.2162,-8.2145,-8.2104,-8.2104,-8.2559,-8.324,-8.4097,-8.4816,-8.5432,-8.6184,-8.6433,-8.6483,-8.6369,-8.7094,-8.7799,-8.7829,-8.8031,-8.7953,-8.7319,-8.7344,-8.7167,-8.6349,-8.6738,-8.6848,-8.5969,-8.5711,-8.5284,-8.4359,-8.4106,-8.3835,-8.3547,-8.2971,-8.2362,-8.1747,-8.19,-8.1823,-8.14,-8.0169,-7.9477,-7.9477,-7.8246,-7.6823,-7.5322,-7.4899,-7.4399,-7.3783,-7.3591,-7.3514,0.0,0.0,0.0,0.0,0.0,0.0,0.0,0.0,0.0,0.0,0.0,0.0,-6.5397,-6.5828,-6.64,-6.6824,-6.7643,-6.9381,-7.2638,-7.6757,-8.0611,-8.3817,-8.6555,-8.8248,-8.844,-9.0094,-9.1018,-9.0633,-9.0171,-8.9748,-8.9363,-8.8634,-8.8364,-8.8658,-8.7832,-8.7524,-8.7823,-8.6865,-8.6307,-8.6094,-8.6094,-8.6094,-8.6094,-8.6094,-8.5863,-8.544,-8.5055,-8.4796,-8.452,-8.3351,-8.3039,-8.3151,-8.2396,-8.2104,-8.2104,-8.2104,-8.2104,-8.2104,-8.2104,-8.2104,-8.211,-8.214,-8.2151,-8.2162,-8.2171,-8.2439,-8.265,-8.2273,-8.2736,-8.3582,-8.4448,-8.5338,-8.6182,-8.6935,-8.7167,-8.7195,-8.7129,-8.7829,-8.8378,-8.7988,-8.8222,-8.8222,-8.7365,-8.752,-8.752,-8.6663,-8.7248,-8.7481,-8.6663,-8.6546,-8.631,-8.5667,-8.4881,-8.4282,-8.4004,-8.3115,-8.2714,-8.3008,-8.2925,-8.2964,-8.3031,-8.1693,-8.0592,-7.9823,-7.8515,-7.7207,-7.5899,-7.5899,-7.5476,-7.4668,-7.4668,-7.4668,0.0,0.0,0.0,0.0,0.0,0.0,0.0,0.0,0.0,0.0,0.0,0.0,0.0,-6.6448,-6.7107,-6.5615,-6.8645,-7.2298,-7.5558,-7.8242,-8.1079,-8.4389,-8.5953,-8.7748,-9.0252,-9.0834,-9.0723,-8.9992,-8.9688,-8.921,-8.8517,-8.7873,-8.7602,-8.7805,-8.7282,-8.7273,-8.7836,-8.6933,-8.6336,-8.6094,-8.6094,-8.6055,-8.594,-8.6055,-8.5978,-8.5709,-8.5164,-8.4976,-8.4898,-8.3497,-8.3027,-8.3117,-8.2377,-8.2104,-8.2104,-8.2104,-8.2104,-8.211,-8.2116,-8.2122,-8.2134,-8.2187,-8.2283,-8.2409,-8.2407,-8.2924,-8.3351,-8.2616,-8.299,-8.3791,-8.4524,-8.537,-8.6182,-8.6877,-8.7105,-8.7261,-8.7365,-8.7988,-8.8339,-8.7715,-8.8105,-8.8222,-8.7378,-8.7845,-8.8008,-8.7163,-8.7786,-8.802,-8.7124,-8.7046,-8.6936,-8.6677,-8.5346,-8.4393,-8.4164,-8.3534,-8.3446,-8.4132,-8.3754,-8.3505,-8.3514,-8.2646,-8.1431,-7.9823,-7.9054,-7.8284,-7.7476,-7.7476,-7.7092,-7.6361,-7.6245,-7.6245,-7.1168,-7.2598,0.0,0.0,0.0,0.0,0.0,0.0,0.0,0.0,0.0,0.0,0.0,-6.7351,-6.7775,-6.7975,-7.1698,-7.5944,-8.0024,-8.2911,-8.4562,-8.432,-8.7551,-8.9178,-8.7551,-8.9198,-9.0304,-9.0149,-8.8688,-8.7709,-8.7594,-8.6948,-8.6687,-8.6886,-8.6982,-8.7049,-8.7137,-8.6827,-8.6467,-8.6094,-8.6094,-8.5747,-8.5132,-8.5786,-8.5324,-8.4032,-8.4734,-8.4379,-8.3292,-8.3116,-8.2762,-8.2299,-8.2143,-8.2104,-8.2104,-8.2104,-8.2104,-8.2116,-8.2167,-8.2182,-8.2187,-8.2195,-8.2713,-8.3308,-8.3298,-8.3382,-8.346,-8.3339,-8.3909,-8.4626,-8.4735,-8.5438,-8.609,-8.6166,-8.674,-8.7471,-8.8157,-8.8417,-8.8689,-8.9274,-8.8923,-8.8242,-8.7437,-8.7403,-8.7224,-8.641,-8.696,-8.7194,-8.6375,-8.6258,-8.5981,-8.5231,-8.4919,-8.4659,-8.4455,-8.4338,-8.4611,-8.5481,-8.3982,-8.2688,-8.1809,-8.1567,-8.0921,-7.9823,-7.9669,-7.9169,-7.8323,-7.8323,-7.8246,-7.8092,-7.74,-7.7476,-7.1129,-7.1826,-7.2392,0.0,0.0,0.0,0.0,0.0,0.0,0.0,0.0,0.0,0.0,-6.949,-7.1569,-7.47,-7.6011,-7.7691,-8.064,-8.2077,-8.3359,-8.4671,-8.6987,-8.8732,-8.938,-9.0017,-9.0143,-8.9605,-8.7865,-8.6816,-8.6709,-8.606,-8.5784,-8.5983,-8.6661,-8.67,-8.6144,-8.604,-8.5862,-8.5567,-8.5928,-8.567,-8.4939,-8.5747,-8.567,-8.4956,-8.5072,-8.4521,-8.3513,-8.3213,-8.27,-8.2104,-8.2104,-8.2104,-8.211,-8.2145,-8.2133,-8.2162,-8.2183,-8.2191,-8.2195,-8.223,-8.2513,-8.2752,-8.23,-8.2497,-8.2849,-8.2849,-8.3465,-8.4109,-8.4092,-8.5101,-8.6073,-8.6055,-8.6675,-8.7412,-8.778,-8.8204,-8.8516,-8.8477,-8.8516,-8.8292,-8.7451,-8.7299,-8.7151,-8.6819,-8.7056,-8.7173,-8.6783,-8.6744,-8.6588,-8.62,-8.5768,-8.5488,-8.5383,-8.4931,-8.4945,-8.5598,-8.4922,-8.4038,-8.2971,-8.1973,-8.1046,-8.0147,-8.0009,-7.9582,-7.885,-7.9198,-7.9198,-7.8805,-7.8486,-7.8519,-7.1091,-7.1274,-7.1467,0.0,0.0,0.0,0.0,0.0,0.0,0.0,0.0,0.0,-6.9552,-7.1608,-7.4787,-7.9444,-7.9563,-7.9872,-8.2131,-8.2539,-8.3631,-8.6408,-8.7301,-8.8776,-9.1395,-9.0613,-8.9562,-8.861,-8.7033,-8.5965,-8.5613,-8.5144,-8.4946,-8.5091,-8.5962,-8.6077,-8.5251,-8.5148,-8.5177,-8.5333,-8.5652,-8.5401,-8.4632,-8.5632,-8.5896,-8.5536,-8.5081,-8.4609,-8.4115,-8.3217,-8.261,-8.2112,-8.2112,-8.2112,-8.2117,-8.2196,-8.2191,-8.2215,-8.2224,-8.2227,-8.223,-8.2292,-8.2297,-8.2182,-8.1523,-8.1758,-8.2304,-8.2304,-8.2732,-8.327,-8.3489,-8.45,-8.5551,-8.5738,-8.6402,-8.7144,-8.7525,-8.7954,-8.8149,-8.7681,-8.7993,-8.8074,-8.7456,-8.73,-8.7342,-8.735,-8.735,-8.735,-8.735,-8.735,-8.735,-8.7353,-8.6806,-8.6415,-8.6415,-8.5807,-8.559,-8.596,-8.5716,-8.5198,-8.4324,-8.2987,-8.1869,-8.1008,-8.0844,-8.04,-7.9688,-8.0179,-8.0203,-7.9692,-7.9563,-7.9594,-7.0937,-7.2302,-7.318,-7.0601,-6.897,0.0,-7.252,-7.1721,0.0,-7.3955,-7.4529,-7.3837,-7.1881,-7.2938,-7.5084,-7.8004,-8.0922,-8.4007,-8.7461,-8.8637,-8.9526,-9.0578,-9.0733,-9.0882,-9.1116,-8.9454,-8.805,-8.7215,-8.5911,-8.4864,-8.4116,-8.412,-8.4161,-8.4172,-8.4621,-8.4819,-8.4734,-8.4369,-8.4792,-8.6011,-8.5324,-8.4516,-8.3747,-8.5363,-8.5337,-8.4052,-8.4132,-8.4251,-8.4287,-8.2842,-8.2249,-8.2205,-8.2205,-8.2205,-8.2209,-8.2209,-8.2212,-8.2218,-8.2285,-8.229,-8.2293,-8.2303,-8.2304,-8.2304,-8.2226,-8.2265,-8.2304,-8.2304,-8.2344,-8.2578,-8.3398,-8.3671,-8.3983,-8.4715,-8.5571,-8.662,-8.8156,-8.7915,-8.7603,-8.8344,-8.7915,-8.7381,-8.7403,-8.7407,-8.7411,-8.7499,-8.75,-8.75,-8.75,-8.75,-8.75,-8.75,-8.7421,-8.7382,-8.7382,-8.7343,-8.7304,-8.7342,-8.5804,-8.4795,-8.4559,-8.4373,-8.3789,-8.2727,-8.2699,-8.2271,-8.1417,-8.1485,-8.1502,-8.1485,-8.0676,-8.0754,-7.0298,-7.2052,-7.3348,-7.0602,-6.9535,0.0,0.0,-7.3706,-7.3398,-7.565,-7.6568,-7.6513,-7.5138,-7.6839,-7.8913,-8.0489,-8.3092,-8.5579,-8.7443,-8.8923,-8.9703,-8.9508,-9.0443,-9.0911,-9.0326,-8.9153,-8.8009,-8.7067,-8.5553,-8.4494,-8.4055,-8.3584,-8.3402,-8.3466,-8.4159,-8.4256,-8.3711,-8.3475,-8.381,-8.4734,-8.4288,-8.3901,-8.3593,-8.4247,-8.4312,-8.3887,-8.3498,-8.3466,-8.357,-8.2585,-8.2218,-8.2215,-8.2215,-8.2227,-8.2242,-8.2242,-8.225,-8.2258,-8.2302,-8.2303,-8.2303,-8.2304,-8.1914,-8.1484,-8.1484,-8.1094,-8.0781,-8.1328,-8.1484,-8.1679,-8.2578,-8.3594,-8.4492,-8.4803,-8.5935,-8.7146,-8.7767,-8.7649,-8.7531,-8.7844,-8.7649,-8.7415,-8.7458,-8.7459,-8.7459,-8.75,-8.75,-8.75,-8.75,-8.75,-8.75,-8.75,-8.75,-8.75,-8.75,-8.75,-8.75,-8.75,-8.6365,-8.5658,-8.5615,-8.5005,-8.4501,-8.4078,-8.3954,-8.3773,-8.3599,-8.3498,-8.3532,-8.3596,-8.2762,-8.2576,-7.0037,-7.0872,-7.1719,0.0,0.0,0.0,-7.569,-7.5683,-7.5534,-7.8558,-7.8436,-7.7677,-7.7277,-7.8849,-8.0445,-8.1297,-8.4234,-8.6701,-8.752,-8.8664,-8.9281,-8.8989,-8.9495,-8.9768,-8.9463,-8.8137,-8.7007,-8.6311,-8.4868,-8.3824,-8.3395,-8.2852,-8.2592,-8.2695,-8.3321,-8.3368,-8.2695,-8.2602,-8.2882,-8.3579,-8.3161,-8.31,-8.3295,-8.3564,-8.3688,-8.3602,-8.3191,-8.3118,-8.322,-8.2522,-8.2215,-8.2242,-8.2242,-8.2251,-8.2338,-8.2611,-8.2693,-8.2695,-8.2695,-8.2695,-8.2617,-8.207,-8.1289,-8.0547,-8.0273,-7.9961,-7.9805,-8.0429,-8.1172,-8.1953,-8.2578,-8.3594,-8.457,-8.4844,-8.6015,-8.7148,-8.7422,-8.75,-8.75,-8.75,-8.75,-8.75,-8.75,-8.75,-8.75,-8.75,-8.75,-8.75,-8.75,-8.75,-8.75,-8.75,-8.75,-8.75,-8.75,-8.75,-8.75,-8.75,-8.6953,-8.6601,-8.6601,-8.5974,-8.55,-8.5223,-8.5062,-8.4931,-8.4809,-8.472,-8.4736,-8.4839,-8.4257,-8.4023,-7.0117,-6.8935,-6.8308,0.0,0.0,0.0,-7.7857,-7.7397,-7.7196,-8.3173,-8.0524,-7.7359,-7.8008,-7.832,-7.8736,-7.9556,-8.3962,-8.7575,-8.8433,-8.8539,-8.8833,-8.9749,-8.835,-8.7648,-8.8472,-8.6205,-8.4702,-8.4682,-8.3711,-8.2703,-8.1848,-8.1809,-8.1809,-8.177,-8.1973,-8.198,-8.177,-8.1809,-8.2164,-8.2893,-8.2001,-8.1937,-8.2637,-8.3487,-8.3587,-8.3101,-8.3174,-8.3309,-8.3426,-8.2636,-8.2301,-8.2304,-8.2304,-8.2304,-8.2383,-8.3281,-8.3594,-8.3594,-8.3594,-8.3594,-8.3281,-8.1562,-8.0429,-7.957,-7.8789,-7.9062,-7.9726,-7.9726,-8.1601,-8.3594,-8.3594,-8.3633,-8.3828,-8.4726,-8.5586,-8.6445,-8.7304,-8.75,-8.75,-8.75,-8.75,-8.75,-8.75,-8.75,-8.75,-8.75,-8.75,-8.75,-8.75,-8.75,-8.75,-8.75,-8.75,-8.75,-8.75,-8.75,-8.75,-8.75,-8.75,-8.75,-8.75,-8.75,-8.7069,-8.6121,-8.6121,-8.5691,-8.4832,-8.4832,-8.4878,-8.4922,-8.4922,-8.4922,-6.9646,-6.9961,-7.0728,-7.0469,-7.219,-7.4913,0.0,-7.797,0.0,0.0,-8.2357,-8.0547,-8.0801,-8.1485,-8.1705,-8.0767,-8.3882,-8.6324,-8.5984,-8.7456,-8.7998,-8.6484,-8.6917,-8.6956,-8.602,-8.5175,-8.4444,-8.3844,-8.3507,-8.2642,-8.1194,-8.1116,-8.0805,-8.0182,-8.0838,-8.115,-8.1116,-8.1539,-8.1899,-8.2126,-8.1783,-8.2007,-8.2813,-8.2425,-8.2238,-8.2198,-8.2248,-8.2067,-8.1672,-8.1477,-8.1757,-8.2304,-8.2304,-8.2304,-8.2344,-8.2578,-8.2695,-8.2773,-8.3398,-8.3203,-8.2617,-8.207,-8.1328,-8.0586,-8.0312,-8.0429,-8.0859,-8.2109,-8.3008,-8.375,-8.4375,-8.4961,-8.5508,-8.5742,-8.6484,-8.7187,-8.7422,-8.75,-8.75,-8.75,-8.75,-8.75,-8.75,-8.75,-8.75,-8.75,-8.75,-8.75,-8.75,-8.75,-8.7734,-8.8281,-8.7851,-8.7734,-8.8281,-8.7812,-8.75,-8.75,-8.75,-8.75,-8.75,-8.75,-8.7383,-8.7108,-8.7069,-8.6952,-8.6718,-8.6718,-8.6718,-8.6719,-8.6094,-8.582,-6.985,-6.9996,-7.0859,-7.2291,-7.4799,-7.7695,-8.0576,-8.0829,-8.1432,-8.4914,-8.3983,-8.265,-8.3083,-8.3071,-8.2807,-8.2143,-8.4013,-8.5411,-8.4888,-8.6438,-8.6903,-8.5002,-8.5708,-8.5903,-8.4885,-8.4167,-8.3635,-8.3401,-8.3098,-8.2296,-8.0892,-8.083,-8.0396,-7.9567,-8.0012,-8.0403,-8.0713,-8.0847,-8.1197,-8.1809,-8.1463,-8.1726,-8.2581,-8.1971,-8.1756,-8.189,-8.1604,-8.1282,-8.092,-8.0975,-8.1523,-8.2304,-8.2304,-8.2304,-8.2344,-8.2695,-8.2812,-8.2929,-8.3828,-8.3554,-8.2773,-8.2422,-8.1719,-8.0937,-8.0586,-8.0976,-8.1758,-8.2773,-8.3828,-8.4765,-8.5273,-8.6054,-8.664,-8.6289,-8.6875,-8.75,-8.75,-8.75,-8.75,-8.75,-8.75,-8.75,-8.75,-8.75,-8.75,-8.75,-8.7773,-8.7969,-8.7969,-8.8281,-8.8554,-8.8672,-8.8281,-8.8047,-8.8203,-8.7773,-8.75,-8.75,-8.75,-8.75,-8.75,-8.75,-8.75,-8.75,-8.75,-8.75,-8.75,-8.75,-8.75,-8.75,-8.6953,-8.6719,-7.0606,-6.9555,-6.9648,-7.4765,-7.75,-7.9804,-8.3116,-8.4909,-8.6111,-8.6897,-8.5299,-8.3987,-8.4843,-8.3633,-8.2773,-8.3476,-8.4293,-8.4754,-8.4598,-8.54,-8.5629,-8.4674,-8.4637,-8.4676,-8.4598,-8.3192,-8.2589,-8.3263,-8.2625,-8.1763,-8.0831,-8.0703,-8.0263,-7.9378,-7.9372,-7.9721,-8.0387,-7.9792,-8.0182,-8.1593,-8.096,-8.1091,-8.1876,-8.1851,-8.1912,-8.1945,-8.1055,-8.0764,-8.0898,-8.0898,-8.1406,-8.2187,-8.2265,-8.2304,-8.2383,-8.3203,-8.3515,-8.3711,-8.4609,-8.4375,-8.3594,-8.2773,-8.1992,-8.1172,-8.0312,-8.1211,-8.2539,-8.2617,-8.4375,-8.6211,-8.6289,-8.6914,-8.7304,-8.6523,-8.6914,-8.75,-8.75,-8.75,-8.75,-8.75,-8.75,-8.7539,-8.7617,-8.7617,-8.7656,-8.7734,-8.8359,-8.8828,-8.8828,-8.9492,-8.9726,-8.9023,-8.8867,-8.8554,-8.789,-8.7695,-8.7617,-8.7617,-8.7539,-8.75,-8.75,-8.75,-8.75,-8.75,-8.75,-8.75,-8.75,-8.75,-8.75,-8.75,-8.75,-8.75,-7.1481,-7.0937,0.0,-7.5781,-7.9685,-8.3154,-8.5926,-8.5786,-8.5101,-8.529,-8.5434,-8.5629,-8.5858,-8.4997,-8.4135,-8.3672,-8.4336,-8.4413,-8.3046,-8.4178,-8.4568,-8.3007,-8.3437,-8.3593,-8.289,-8.2494,-8.2367,-8.2515,-8.2312,-8.1507,-7.9977,-7.986,-7.9135,-7.7628,-7.8204,-7.8637,-7.88,-7.9247,-7.9676,-8.0,-7.9832,-7.9906,-8.0183,-8.1494,-8.1772,-8.1139,-7.9625,-7.9329,-7.9961,-7.9961,-8.0508,-8.1367,-8.2031,-8.2304,-8.2304,-8.25,-8.3008,-8.3711,-8.4609,-8.4765,-8.4609,-8.4414,-8.4219,-8.3906,-8.3047,-8.3515,-8.4492,-8.5156,-8.5781,-8.6367,-8.7031,-8.7344,-8.7461,-8.7265,-8.7344,-8.75,-8.75,-8.75,-8.75,-8.75,-8.75,-8.7695,-8.832,-8.8437,-8.8672,-8.9375,-8.9609,-8.9726,-8.9726,-8.9883,-9.0195,-9.0703,-9.0117,-8.9922,-9.0429,-8.9219,-8.8437,-8.8437,-8.7851,-8.75,-8.75,-8.75,-8.75,-8.75,-8.75,-8.75,-8.75,-8.75,-8.75,-8.75,-8.75,-8.75,-7.1133,0.0,0.0,-7.8242,0.0,-8.4528,-8.5895,-8.5499,-8.4713,-8.4293,-8.4907,-8.5487,-8.5585,-8.4842,-8.4099,-8.3672,-8.3633,-8.3203,-8.1875,-8.3164,-8.3476,-8.1328,-8.2187,-8.2656,-8.1758,-8.1678,-8.1675,-8.1669,-8.1647,-8.0855,-7.9111,-7.8987,-7.8378,-7.7075,-7.7463,-7.7891,-7.8285,-7.8285,-7.8714,-7.9493,-7.9094,-7.9188,-7.9675,-8.0552,-8.0537,-7.9714,-7.8777,-7.8667,-7.914,-7.9531,-8.0195,-8.1094,-8.1953,-8.2304,-8.2304,-8.2304,-8.2578,-8.3086,-8.3984,-8.4297,-8.4336,-8.4765,-8.4883,-8.4883,-8.4844,-8.5156,-8.5703,-8.6562,-8.6836,-8.6914,-8.7383,-8.75,-8.75,-8.75,-8.75,-8.75,-8.75,-8.75,-8.75,-8.75,-8.7812,-8.8203,-8.8633,-8.9375,-8.9961,-9.0,-9.0703,-9.1094,-9.0664,-9.0976,-9.125,-9.1289,-9.0898,-9.0625,-9.0664,-8.9844,-8.9336,-8.9336,-8.8945,-8.8711,-8.8711,-8.8711,-8.832,-8.7539,-8.75,-8.75,-8.75,-8.75,-8.75,-8.75,-8.75,-8.75,0.0,0.0,-7.414,-8.0312,-8.3047,0.0,-8.4804,-8.4531,-8.4062,-8.3476,-8.3904,-8.4408,-8.4453,-8.3633,-8.2969,-8.3125,-8.2422,-8.1601,-8.0898,-8.2148,-8.2304,-7.9961,-8.1094,-8.1719,-8.0859,-8.0781,-8.078,-8.0774,-8.077,-8.0028,-7.8272,-7.811,-7.7656,-7.6672,-7.66,-7.6972,-7.7857,-7.7155,-7.7551,-7.9043,-7.8403,-7.8504,-7.9246,-7.9191,-7.8881,-7.8428,-7.8272,-7.8239,-7.8359,-7.9297,-8.0117,-8.0898,-8.1914,-8.2304,-8.2304,-8.2304,-8.2383,-8.2656,-8.3515,-8.3906,-8.4179,-8.4883,-8.5234,-8.5469,-8.6015,-8.6328,-8.6562,-8.7304,-8.75,-8.75,-8.75,-8.75,-8.75,-8.75,-8.75,-8.75,-8.75,-8.75,-8.7539,-8.7695,-8.8476,-8.9219,-8.9336,-9.0703,-9.1562,-9.0976,-9.1992,-9.2578,-9.1836,-9.2383,-9.25,-9.1601,-9.164,-9.1445,-9.0742,-9.0547,-9.0508,-9.0664,-9.0547,-9.0469,-9.0469,-9.0312,-8.957,-8.8164,-8.8008,-8.7929,-8.7929,-8.7773,-8.7695,-8.7695,-8.7578,-8.75,0.0,0.0,-7.6133,0.0,-8.0781,-8.2109,-8.4375,-8.3164,-8.1719,-8.2344,-8.2578,-8.2656,-8.2656,-8.1328,-8.0469,-8.1211,-8.0625,-8.0,-7.9883,-8.0703,-8.0937,-7.9844,-8.0586,-8.082,-7.9961,-7.9883,-7.9883,-7.9882,-7.9877,-7.9134,-7.746,-7.728,-7.651,-7.4915,-7.4835,-7.5216,-7.6025,-7.5947,-7.6365,-7.7346,-7.7263,-7.7329,-7.745,-7.7497,-7.7851,-7.8437,-7.7695,-7.7383,-7.75,-7.9062,-7.9765,-8.0039,-8.164,-8.2304,-8.2304,-8.2304,-8.2773,-8.3554,-8.4414,-8.5234,-8.5859,-8.5976,-8.6523,-8.7031,-8.6406,-8.6719,-8.7344,-8.7461,-8.75,-8.75,-8.75,-8.75,-8.75,-8.75,-8.75,-8.75,-8.75,-8.75,-8.7695,-8.8398,-8.9844,-9.1172,-9.1953,-9.289,-9.3789,-9.4414,-9.4062,-9.3672,-9.3554,-9.3633,-9.3398,-9.2539,-9.3086,-9.3515,-9.3398,-9.2695,-9.2578,-9.332,-9.2656,-9.2265,-9.2265,-9.1523,-9.1015,-9.0781,-9.0039,-8.9687,-8.9648,-8.8906,-8.8554,-8.8515,-8.7812,-8.75,-7.0859,-7.289,-7.5195,0.0,-7.9336,-8.0039,-8.1601,-8.1094,-8.0234,-8.0195,-8.0156,-8.0312,-8.0742,-8.0234,-7.9844,-8.0195,-7.9961,-7.9531,-7.9101,-7.9765,-7.9765,-7.8476,-7.9062,-7.9258,-7.8398,-7.875,-7.8828,-7.8359,-7.8319,-7.7772,-7.6523,-7.5958,-7.5305,-7.4525,-7.4468,-7.4611,-7.4973,-7.5474,-7.6154,-7.7071,-7.7091,-7.7103,-7.7146,-7.7187,-7.7422,-7.7734,-7.7383,-7.7187,-7.7344,-7.9023,-7.9687,-7.9883,-8.1601,-8.2304,-8.2344,-8.2851,-8.3281,-8.3633,-8.4023,-8.5078,-8.6133,-8.5625,-8.6406,-8.75,-8.7578,-8.7539,-8.7578,-8.8047,-8.7851,-8.75,-8.75,-8.75,-8.75,-8.75,-8.7851,-8.8164,-8.8164,-8.8164,-8.8711,-9.0547,-9.1484,-9.2461,-9.3828,-9.4765,-9.5312,-9.5234,-9.5273,-9.5195,-9.4687,-9.4648,-9.4492,-9.4101,-9.4414,-9.4648,-9.4648,-9.4297,-9.4219,-9.4609,-9.4258,-9.4062,-9.4062,-9.3672,-9.3476,-9.3476,-9.1172,-8.9765,-8.9258,-8.9375,-8.9179,-8.8711,-8.8828,-8.8906,0.0,0.0,-7.2734,-7.5742,-7.7187,-7.8125,0.0,-7.9414,-7.9219,-7.8633,-7.832,-7.8359,-7.8945,-7.9062,-7.914,-7.9375,-7.9219,-7.8789,-7.7969,-7.8555,-7.8437,-7.6758,-7.7305,-7.75,-7.6601,-7.7344,-7.7578,-7.6914,-7.6875,-7.6484,-7.5625,-7.467,-7.4056,-7.3861,-7.3783,-7.3849,-7.4099,-7.5179,-7.6206,-7.7099,-7.7101,-7.7146,-7.7187,-7.7187,-7.7187,-7.7187,-7.7187,-7.7344,-7.7656,-7.9101,-7.9844,-8.0195,-8.1719,-8.2304,-8.2422,-8.3281,-8.3594,-8.3672,-8.4101,-8.5117,-8.6094,-8.5429,-8.625,-8.7578,-8.7969,-8.7812,-8.7617,-8.8242,-8.7969,-8.75,-8.75,-8.7656,-8.7812,-8.7812,-8.8437,-8.9101,-8.9297,-8.9531,-9.0312,-9.25,-9.3125,-9.375,-9.5273,-9.625,-9.6562,-9.5937,-9.6406,-9.6484,-9.5625,-9.5547,-9.5469,-9.5234,-9.539,-9.5625,-9.582,-9.5859,-9.5937,-9.6133,-9.6172,-9.6054,-9.5859,-9.5625,-9.5547,-9.5547,-9.2773,-9.0898,-9.0039,-9.0234,-9.0,-8.9375,-8.9804,-9.0,0.0,-6.6523,0.0,-7.0664,-7.3594,0.0,-7.8164,-7.8555,-7.8555,-7.8515,-7.7851,-7.7265,-7.7305,-7.7344,-7.7617,-7.8437,-7.7851,-7.7031,-7.6172,-7.6797,-7.668,-7.4922,-7.5508,-7.5703,-7.4805,-7.5508,-7.6015,-7.5976,-7.5976,-7.5586,-7.4726,-7.3771,-7.2888,-7.2065,-7.195,-7.235,-7.325,-7.4965,-7.6237,-7.7099,-7.7147,-7.7187,-7.7187,-7.7187,-7.7187,-7.7187,-7.7187,-7.7656,-7.8515,-7.9336,-8.0195,-8.1015,-8.1953,-8.2304,-8.2422,-8.3281,-8.3594,-8.3828,-8.5508,-8.6133,-8.6172,-8.6133,-8.6758,-8.7344,-8.6562,-8.6875,-8.75,-8.7539,-8.7539,-8.75,-8.75,-8.8086,-8.8633,-8.8633,-8.9297,-9.0156,-9.0976,-9.1797,-9.2695,-9.3633,-9.4492,-9.5351,-9.6289,-9.7109,-9.7617,-9.7578,-9.7617,-9.7344,-9.6523,-9.6445,-9.6133,-9.5273,-9.5937,-9.6758,-9.75,-9.7578,-9.7929,-9.875,-9.8789,-9.8437,-9.7617,-9.6836,-9.6445,-9.6445,-9.5429,-9.4492,-9.3633,-9.2031,-9.1211,-9.1133,-9.0351,-9.0,0.0,0.0,0.0,-6.8672,-7.0859,-7.2734,-7.3359,-7.4805,-7.6015,-7.6015,-7.6172,-7.6523,-7.7109,-7.7187,-7.7305,-7.7617,-7.6914,-7.625,-7.5937,-7.5703,-7.5312,-7.4687,-7.4883,-7.4726,-7.3867,-7.4531,-7.5078,-7.5078,-7.4531,-7.4336,-7.4609,-7.3186,-7.2221,-7.1909,-7.1862,-7.2569,-7.4028,-7.4709,-7.5736,-7.7147,-7.7187,-7.7187,-7.7187,-7.7187,-7.7187,-7.7187,-7.7187,-7.7383,-7.7773,-7.914,-7.9883,-8.0312,-8.1758,-8.2656,-8.3242,-8.4101,-8.4804,-8.5351,-8.5976,-8.6914,-8.7734,-8.7187,-8.7578,-8.8203,-8.789,-8.7656,-8.75,-8.75,-8.75,-8.7617,-8.8125,-8.8476,-8.9101,-9.0781,-9.1445,-9.2226,-9.4219,-9.3984,-9.3867,-9.5273,-9.625,-9.707,-9.7969,-9.8828,-9.9375,-9.9375,-9.9375,-9.9258,-9.8984,-9.8945,-9.8828,-9.8515,-9.875,-9.9062,-9.9336,-9.9375,-9.9492,-9.9804,-9.9844,-9.9453,-9.8554,-9.8242,-9.7851,-9.7265,-9.6445,-9.5312,-9.3906,-9.3828,-9.3242,-9.2148,-9.2383,-9.2187,-6.4297,0.0,0.0,0.0,-6.8594,-6.9726,-7.0859,-7.2265,-7.3476,-7.4023,-7.4844,-7.5625,-7.6211,-7.6562,-7.6758,-7.6758,-7.6289,-7.5703,-7.5117,-7.4531,-7.4062,-7.375,-7.3476,-7.3047,-7.2461,-7.3203,-7.3711,-7.3711,-7.3476,-7.3555,-7.414,-7.2717,-7.1903,-7.1894,-7.193,-7.2615,-7.409,-7.4134,-7.5037,-7.6758,-7.6758,-7.6758,-7.6758,-7.6758,-7.6758,-7.6758,-7.6758,-7.7109,-7.7734,-7.914,-7.9883,-8.0273,-8.1719,-8.2812,-8.3711,-8.457,-8.5469,-8.6289,-8.6836,-8.7773,-8.8594,-8.8086,-8.8242,-8.8633,-8.8398,-8.7929,-8.75,-8.75,-8.7695,-8.8047,-8.8554,-8.9336,-9.0508,-9.2539,-9.3242,-9.4101,-9.6406,-9.5976,-9.5586,-9.707,-9.8008,-9.875,-9.9336,-10.0195,-10.0586,-10.0312,-10.0508,-10.0586,-10.0312,-10.0312,-10.0312,-10.0312,-10.0312,-10.039,-10.0703,-10.0703,-10.0703,-10.0703,-10.0703,-10.0312,-9.9453,-9.9453,-9.914,-9.8594,-9.7773,-9.6758,-9.5625,-9.5312,-9.4609,-9.3476,-9.4062,-9.4023,0.0,0.0,0.0,0.0,-6.6797,-6.7695,-7.0976,-7.1172,-7.1133,-7.2812,-7.3906,-7.457,-7.457,-7.5273,-7.5859,-7.582,-7.582,-7.5234,-7.3555,-7.3281,-7.2969,-7.2109,-7.1211,-7.0703,-7.0703,-7.1445,-7.1953,-7.1992,-7.2773,-7.3242,-7.3281,-7.2404,-7.1897,-7.1893,-7.1958,-7.2411,-7.3309,-7.3319,-7.414,-7.5859,-7.5859,-7.5859,-7.5859,-7.5859,-7.5898,-7.5898,-7.5898,-7.6875,-7.8515,-7.9375,-8.0195,-8.1054,-8.1953,-8.2851,-8.375,-8.4609,-8.5469,-8.6484,-8.8125,-8.8711,-8.875,-8.875,-8.875,-8.8594,-8.7773,-8.7539,-8.75,-8.75,-8.8086,-8.8711,-8.8789,-9.0703,-9.2851,-9.375,-9.4648,-9.5742,-9.7383,-9.7773,-9.8047,-9.8867,-9.9726,-10.0312,-10.0312,-10.1094,-10.1406,-10.0508,-10.1094,-10.1289,-10.0508,-10.039,-10.039,-10.039,-10.039,-10.0703,-10.1601,-10.1601,-10.1601,-10.1601,-10.1601,-10.1211,-10.039,-10.0312,-10.0312,-10.0312,-9.9453,-9.9023,-9.8984,-9.6484,-9.5273,-9.5234,-9.5195,-9.5195,-6.1875,0.0,0.0,0.0,0.0,0.0,-6.543,-6.7734,-6.9805,-6.9648,-7.1758,-7.3672,-7.3672,-7.4375,-7.4765,-7.4101,-7.4023,-7.3867,-7.3359,-7.2773,-7.2265,-7.2031,-7.1211,-7.0703,-7.0703,-7.039,-7.0703,-7.1914,-7.164,-7.1953,-7.3242,-7.2453,-7.1963,-7.1897,-7.1969,-7.2414,-7.328,-7.3281,-7.3867,-7.4961,-7.4961,-7.4961,-7.4961,-7.4961,-7.5312,-7.5898,-7.5898,-7.6523,-7.7656,-7.9101,-7.9844,-8.0195,-8.1719,-8.3203,-8.457,-8.4804,-8.5859,-8.7304,-8.8359,-8.9101,-8.9648,-8.9648,-8.9648,-8.9492,-8.8633,-8.7969,-8.75,-8.75,-8.8086,-8.914,-9.1015,-9.2539,-9.3906,-9.5429,-9.6406,-9.7304,-9.8398,-9.9648,-10.039,-10.0,-10.0586,-10.1211,-10.1211,-10.1992,-10.25,-10.2187,-10.2383,-10.25,-10.2187,-10.2187,-10.2187,-10.2187,-10.2187,-10.2304,-10.25,-10.25,-10.25,-10.25,-10.25,-10.2109,-10.1289,-10.1211,-10.0898,-10.0312,-10.0117,-9.9648,-9.8984,-9.7656,-9.6719,-9.6133,-9.5508,-9.5195,-6.1836,-6.1719,-6.1875,-6.2617,0.0,0.0,-6.4414,-6.6015,-6.75,-6.8086,-7.0039,-7.168,-7.1719,-7.2383,-7.2695,-7.1797,-7.1992,-7.2344,-7.2695,-7.1992,-7.1601,-7.1953,-7.0625,-6.9805,-7.0117,-6.9414,-6.9492,-7.082,-7.0781,-7.1288,-7.2649,-7.226,-7.1981,-7.1912,-7.198,-7.2224,-7.2734,-7.2773,-7.3398,-7.4609,-7.4219,-7.4258,-7.4609,-7.4219,-7.4531,-7.5351,-7.5351,-7.6055,-7.7344,-7.9023,-7.9687,-7.9883,-8.1601,-8.3359,-8.4844,-8.4492,-8.5469,-8.707,-8.789,-8.8515,-8.9023,-8.9336,-8.9453,-8.9297,-8.8476,-8.7851,-8.75,-8.75,-8.8594,-9.0312,-9.2578,-9.4062,-9.5312,-9.6679,-9.7656,-9.8594,-9.9804,-10.0898,-10.1406,-10.0898,-10.1484,-10.2109,-10.2109,-10.2617,-10.289,-10.289,-10.289,-10.289,-10.289,-10.289,-10.289,-10.289,-10.289,-10.289,-10.289,-10.289,-10.289,-10.289,-10.289,-10.2695,-10.2187,-10.2109,-10.1914,-10.1406,-10.1015,-10.039,-9.9531,-9.8672,-9.7812,-9.6992,-9.6484,-9.625,-6.1719,-6.1719,0.0,-6.375,-6.3008,0.0,-6.5742,-6.543,-6.5039,-6.7187,-6.8437,-6.9101,-6.9062,-6.9726,-7.0039,-6.9258,-6.9844,-7.0703,-7.1601,-7.1133,-7.0937,-7.164,-6.9648,-6.8476,-6.9219,-6.8515,-6.8398,-6.9219,-7.0156,-7.1051,-7.1878,-7.1987,-7.1989,-7.1914,-7.1987,-7.1992,-7.1992,-7.1992,-7.2773,-7.4297,-7.3515,-7.3555,-7.4297,-7.3594,-7.3789,-7.4609,-7.4687,-7.5664,-7.7344,-7.9023,-7.9687,-7.9883,-8.1601,-8.3359,-8.4804,-8.3906,-8.4765,-8.6445,-8.7226,-8.7578,-8.7734,-8.8476,-8.8711,-8.8554,-8.7734,-8.75,-8.7539,-8.7734,-8.9531,-9.1836,-9.3594,-9.5273,-9.6719,-9.7617,-9.8515,-9.9609,-10.1211,-10.1719,-10.1719,-10.1719,-10.2383,-10.289,-10.289,-10.289,-10.289,-10.289,-10.289,-10.289,-10.289,-10.289,-10.289,-10.289,-10.289,-10.289,-10.289,-10.289,-10.289,-10.289,-10.289,-10.289,-10.289,-10.289,-10.289,-10.289,-10.1992,-10.1211,-10.039,-9.957,-9.875,-9.8008,-9.8008,-9.8008,-6.1875,-6.1719,-6.1953,-6.3008,-6.3008,0.0,-6.3594,-6.457,-6.5078,-6.4219,-6.582,-6.7187,-6.6484,-6.707,-6.7578,-6.7422,-6.8125,-6.8984,-6.9805,-7.0351,-7.0508,-6.9961,-6.8906,-6.8242,-6.8437,-6.7656,-6.75,-6.8359,-6.9844,-7.1053,-7.1938,-7.199,-7.199,-7.1977,-7.199,-7.1992,-7.1992,-7.1992,-7.2187,-7.25,-7.2344,-7.2344,-7.2539,-7.3047,-7.3789,-7.4648,-7.5351,-7.625,-7.7344,-7.9023,-7.9687,-7.9883,-8.1601,-8.3359,-8.4804,-8.3906,-8.5156,-8.7265,-8.7422,-8.7929,-8.8476,-8.8633,-8.8711,-8.8554,-8.7734,-8.75,-8.7773,-8.914,-9.0898,-9.2734,-9.4492,-9.5703,-9.6875,-9.8398,-9.9414,-10.0312,-10.1406,-10.2187,-10.2617,-10.2617,-10.2812,-10.289,-10.289,-10.289,-10.289,-10.289,-10.289,-10.289,-10.289,-10.289,-10.289,-10.289,-10.289,-10.289,-10.289,-10.289,-10.289,-10.289,-10.289,-10.289,-10.289,-10.289,-10.289,-10.289,-10.1992,-10.1484,-10.1289,-10.0508,-9.9961,-9.9804,-9.9804,-9.9804,-6.1953,-6.2031,-6.2461,-6.289,-6.3008,0.0,0.0,-6.3984,-6.418,-6.375,-6.4687,-6.5469,-6.5039,-6.5312,-6.5586,-6.5586,-6.6719,-6.7383,-6.6914,-6.8359,-6.9453,-6.9453,-6.832,-6.7734,-6.8164,-6.7422,-6.7265,-6.8125,-6.9765,-7.0897,-7.1317,-7.1756,-7.1991,-7.1981,-7.199,-7.1992,-7.1992,-7.1992,-7.2422,-7.3281,-7.2422,-7.2461,-7.3281,-7.3281,-7.3789,-7.4687,-7.5976,-7.7031,-7.7969,-7.9648,-8.0586,-8.1133,-8.2422,-8.375,-8.4844,-8.4414,-8.5351,-8.6836,-8.6836,-8.7109,-8.7539,-8.7969,-8.8086,-8.8047,-8.7617,-8.7773,-8.8359,-8.9648,-9.1562,-9.3554,-9.4844,-9.6133,-9.7539,-9.9258,-9.9961,-10.0703,-10.1992,-10.2617,-10.289,-10.289,-10.289,-10.289,-10.289,-10.289,-10.289,-10.289,-10.289,-10.289,-10.289,-10.289,-10.289,-10.289,-10.289,-10.289,-10.289,-10.289,-10.289,-10.289,-10.289,-10.289,-10.289,-10.289,-10.289,-10.289,-10.25,-10.2187,-10.2187,-10.1797,-10.1094,-10.0312,-10.0312,-10.0312,-6.1992,-6.2226,-6.2773,-6.2969,-6.3008,-6.3164,0.0,0.0,0.0,-6.3672,-6.3789,-6.3789,-6.3789,-6.3945,-6.3984,-6.3828,-6.5273,-6.5859,-6.4258,-6.6015,-6.7695,-6.8398,-6.7539,-6.7109,-6.7656,-6.707,-6.7148,-6.8359,-6.9531,-7.0429,-7.093,-7.16,-7.1991,-7.1985,-7.1991,-7.1992,-7.1992,-7.1992,-7.2695,-7.4062,-7.2656,-7.2812,-7.4336,-7.3789,-7.4101,-7.5195,-7.6758,-7.793,-7.8867,-8.0351,-8.1523,-8.2383,-8.3242,-8.414,-8.4883,-8.4883,-8.5469,-8.6211,-8.6211,-8.6328,-8.6562,-8.7265,-8.75,-8.7539,-8.7695,-8.8281,-8.9179,-9.0195,-9.2265,-9.4336,-9.5234,-9.6679,-9.8359,-9.9922,-10.039,-10.1015,-10.2617,-10.289,-10.289,-10.289,-10.289,-10.289,-10.289,-10.289,-10.289,-10.289,-10.289,-10.289,-10.289,-10.289,-10.289,-10.289,-10.289,-10.289,-10.289,-10.289,-10.289,-10.289,-10.289,-10.289,-10.289,-10.289,-10.289,-10.289,-10.289,-10.289,-10.289,-10.289,-10.2187,-10.0781,-10.0781,-10.0781,-6.2148,-6.1758,-6.2031,-6.2812,-6.3008,-6.3047,-6.3125,0.0,-6.2812,-6.2148,0.0,-6.1992,-6.1992,0.0,0.0,-6.2109,-6.3476,-6.4258,-6.3281,-6.4062,-6.4765,-6.4883,-6.6094,-6.664,-6.5976,-6.582,-6.6719,-6.9101,-6.8789,-6.9453,-7.1718,-7.1953,-7.1992,-7.1992,-7.1992,-7.1992,-7.1992,-7.1992,-7.2109,-7.2305,-7.2109,-7.25,-7.3476,-7.414,-7.5351,-7.6953,-7.793,-7.8828,-7.9648,-8.0586,-8.1523,-8.2383,-8.3242,-8.414,-8.4883,-8.4883,-8.5469,-8.6211,-8.6211,-8.6719,-8.7383,-8.7461,-8.75,-8.7617,-8.8359,-8.9179,-9.0195,-9.1836,-9.3633,-9.5234,-9.6133,-9.7617,-9.9101,-10.0117,-10.0898,-10.1719,-10.2695,-10.289,-10.289,-10.289,-10.289,-10.289,-10.289,-10.289,-10.289,-10.289,-10.289,-10.289,-10.289,-10.289,-10.289,-10.289,-10.289,-10.289,-10.289,-10.289,-10.289,-10.289,-10.289,-10.289,-10.289,-10.289,-10.289,-10.289,-10.289,-10.289,-10.289,-10.289,-10.2812,-10.2617,-10.2617,-10.2617,-6.2031,-6.2812,-6.3828,-6.3164,-6.375,-6.4258,-6.3242,-6.2617,-6.2148,-6.1797,0.0,0.0,0.0,0.0,0.0,0.0,-6.3476,-6.3828,-6.2422,-6.3437,-6.4297,-6.4297,-6.4961,-6.5469,-6.5586,-6.6055,-6.6797,-6.7851,-6.8555,-6.9375,-7.043,-7.1445,-7.1992,-7.1992,-7.1992,-7.1992,-7.1992,-7.25,-7.2734,-7.2773,-7.3281,-7.3711,-7.4101,-7.5469,-7.6523,-7.7305,-7.914,-8.0156,-8.0547,-8.1953,-8.3008,-8.3906,-8.4765,-8.5312,-8.5664,-8.5664,-8.6211,-8.6953,-8.6953,-8.7187,-8.75,-8.75,-8.7812,-8.8242,-8.8594,-9.0039,-9.164,-9.2383,-9.4219,-9.6133,-9.6992,-9.8086,-9.9336,-10.0703,-10.1289,-10.1797,-10.2695,-10.289,-10.289,-10.289,-10.289,-10.289,-10.289,-10.289,-10.289,-10.289,-10.289,-10.289,-10.289,-10.289,-10.289,-10.289,-10.289,-10.289,-10.289,-10.289,-10.289,-10.289,-10.289,-10.289,-10.289,-10.289,-10.289,-10.289,-10.289,-10.289,-10.289,-10.289,-10.289,-10.289,-10.289,-10.289,-6.3086,-6.3984,-6.4883,-6.3398,-6.3789,-6.4219,-6.293,-6.2148,-6.1719,-6.1719,-6.1719,0.0,0.0,0.0,-6.3281,-6.3047,0.0,-6.3672,-6.1953,-6.2773,-6.3594,-6.3594,-6.3789,-6.4297,-6.5156,-6.6015,-6.664,-6.6875,-6.8437,-6.9492,-6.9726,-7.1172,-7.1992,-7.1992,-7.1992,-7.1992,-7.1992,-7.2851,-7.3164,-7.2969,-7.4062,-7.4609,-7.4648,-7.6172,-7.7226,-7.8008,-7.9844,-8.0898,-8.1445,-8.2734,-8.3906,-8.4922,-8.5312,-8.5937,-8.6562,-8.6562,-8.6797,-8.7187,-8.7422,-8.75,-8.75,-8.75,-8.8047,-8.875,-8.8984,-9.0703,-9.2695,-9.3164,-9.4844,-9.6758,-9.7773,-9.8711,-9.9726,-10.1211,-10.1797,-10.2109,-10.2812,-10.289,-10.289,-10.289,-10.289,-10.289,-10.289,-10.289,-10.289,-10.289,-10.289,-10.289,-10.289,-10.289,-10.289,-10.289,-10.289,-10.289,-10.289,-10.289,-10.289,-10.289,-10.289,-10.289,-10.289,-10.289,-10.289,-10.289,-10.289,-10.289,-10.289,-10.289,-10.289,-10.289,-10.289,-10.289,-6.5937,-6.4922,-6.414,-6.3203,-6.2422,-6.1797,-6.1758,-6.1719,-6.1719,-6.1719,-6.1719,-6.1953,-6.2851,-6.3672,-6.3984,0.0,0.0,0.0,0.0,-6.1758,-6.1797,-6.1797,-6.2539,-6.3398,-6.4258,-6.5117,-6.5976,-6.6836,-6.8437,-6.9765,-7.0625,-7.1523,-7.1992,-7.1992,-7.1992,-7.1992,-7.1992,-7.2851,-7.289,-7.207,-7.3789,-7.4609,-7.4648,-7.5547,-7.7305,-7.9609,-7.9726,-8.0703,-8.2265,-8.2304,-8.3359,-8.4804,-8.3984,-8.5234,-8.7461,-8.7461,-8.6953,-8.6367,-8.7226,-8.75,-8.75,-8.75,-8.8047,-8.8867,-8.9687,-9.1211,-9.2969,-9.4648,-9.5781,-9.6875,-9.8515,-9.9609,-10.0508,-10.1406,-10.2187,-10.289,-10.289,-10.289,-10.289,-10.289,-10.289,-10.289,-10.289,-10.289,-10.289,-10.289,-10.289,-10.289,-10.289,-10.289,-10.289,-10.289,-10.289,-10.289,-10.289,-10.289,-10.289,-10.289,-10.289,-10.289,-10.289,-10.289,-10.289,-10.289,-10.289,-10.289,-10.289,-10.289,-10.289,-10.289,-10.289,-10.289,-6.6601,-6.7031,-6.707,-6.4492,-6.4492,-6.4531,-6.2226,-6.1719,-6.1719,-6.1719,-6.1719,-6.2148,-6.3594,-6.4101,0.0,0.0,0.0,0.0,0.0,-6.207,-6.1914,-6.25,-6.2812,-6.3125,-6.3398,-6.4765,-6.5703,-6.6015,-6.7617,-6.8984,-6.9844,-7.0703,-7.168,-7.2812,-7.2851,-7.3125,-7.3711,-7.4609,-7.457,-7.375,-7.5508,-7.6015,-7.5547,-7.75,-7.8867,-7.9765,-8.0937,-8.1758,-8.2344,-8.2929,-8.3867,-8.4922,-8.5195,-8.6211,-8.7422,-8.6836,-8.6836,-8.7109,-8.7383,-8.75,-8.75,-8.75,-8.8437,-8.9609,-8.9922,-9.2031,-9.4453,-9.5039,-9.664,-9.8437,-9.957,-10.0508,-10.1406,-10.2304,-10.2695,-10.289,-10.289,-10.289,-10.289,-10.289,-10.289,-10.289,-10.289,-10.289,-10.289,-10.289,-10.289,-10.289,-10.289,-10.289,-10.289,-10.289,-10.289,-10.289,-10.289,-10.289,-10.289,-10.289,-10.289,-10.289,-10.289,-10.289,-10.289,-10.289,-10.289,-10.289,-10.289,-10.289,-10.289,-10.289,-10.289,-10.289,-6.8359,-6.8828,-6.8789,-6.6328,-6.6289,-6.6133,-6.3281,-6.2617,-6.2617,-6.2617,-6.2148,-6.2422,-6.4805,-6.4726,-6.4609,0.0,0.0,0.0,0.0,-6.2969,-6.2812,-6.3398,-6.293,-6.2773,-6.3398,-6.4492,-6.5273,-6.5586,-6.7226,-6.8555,-6.9414,-7.0234,-7.1484,-7.3242,-7.3281,-7.3711,-7.4609,-7.5469,-7.5469,-7.4609,-7.668,-7.7226,-7.6445,-7.8398,-7.9414,-7.9765,-8.0898,-8.1562,-8.1914,-8.2773,-8.3828,-8.4961,-8.5508,-8.6445,-8.7422,-8.6875,-8.7031,-8.75,-8.75,-8.75,-8.75,-8.75,-8.8633,-9.0,-9.0,-9.2422,-9.5195,-9.5195,-9.7031,-9.9219,-10.0117,-10.0898,-10.1797,-10.2695,-10.289,-10.289,-10.289,-10.289,-10.289,-10.289,-10.289,-10.289,-10.289,-10.289,-10.289,-10.289,-10.289,-10.289,-10.289,-10.289,-10.289,-10.289,-10.289,-10.289,-10.289,-10.289,-10.289,-10.289,-10.289,-10.289,-10.289,-10.289,-10.3281,-10.4219,-10.3398,-10.3281,-10.4219,-10.3281,-10.289,-10.289,-10.289,-10.289]},{"header":{"parameterUnit":"m.s-1","parameterCategory":1,"la1":30.6,"la2":29.2853,"lo1":-89.7004,"lo2":-87.6739,"dx":0.0162,"dy":0.0183,"nx":112,"ny":82,"refTime":"2023-02-14T18:00:00:Z","depth":0,"parameterNumber":3,"parameterNumberName":"V-component_of_WINDS"},"data":[0.0,0.0,0.0,0.0,0.0,0.0,0.0,0.0,0.0,0.0,0.0,0.0,0.0,0.0,0.0,0.0,0.0,0.0,0.0,0.0,0.0,0.0,0.0,0.0,0.0,0.0,0.0,0.0,0.0,0.0,0.0,0.0,0.0,0.0,0.0,0.0,0.0,0.0,0.0,0.0,0.0,0.0,0.0,0.0,0.0,0.0,0.0,0.0,0.0,0.0,0.0,0.0,0.0,0.0,0.0,0.0,0.0,0.0,0.0,0.0,0.0,0.0,0.0,0.0,0.0,0.0,0.0,0.0,0.0,0.0,0.0,0.0,0.0,0.0,0.0,0.0,0.0,0.0,0.0,0.0,0.0,0.0,0.0,0.0,0.0,0.0,0.0,0.0,0.0,0.0,1.4716,1.4526,1.5546,1.5917,1.5034,1.5097,1.4246,1.2125,0.0,0.0,0.0,0.0,0.0,0.0,0.0,0.0,0.0,0.0,0.0,0.0,0.0,0.0,0.0,0.0,0.0,0.0,0.0,0.0,0.0,0.0,0.0,0.0,0.0,0.0,0.0,0.0,0.0,0.0,0.0,0.0,0.0,0.0,0.0,0.0,0.0,0.0,0.0,0.0,0.0,0.0,0.0,0.0,0.0,0.0,0.0,0.0,0.0,0.0,0.0,0.0,0.0,0.0,0.0,0.0,0.0,0.0,0.0,0.0,0.0,0.0,0.0,0.0,0.0,0.0,0.0,0.0,0.0,0.0,0.0,0.0,0.0,0.0,0.0,0.0,0.0,0.0,0.0,0.0,0.0,0.0,0.0,0.0,0.0,0.0,0.0,0.0,0.0,0.0,0.0,0.0,0.0,0.0,0.0,0.0,0.0,0.0,0.0,0.0,0.0,0.0,0.0,0.0,1.5714,1.5534,1.753,1.8211,1.6526,1.5594,1.4452,1.297,0.0,0.0,0.0,0.0,0.0,0.0,0.0,0.0,0.0,0.0,0.0,0.0,0.0,0.0,0.0,0.0,0.0,0.0,0.0,0.0,0.0,0.0,0.0,0.0,0.0,0.0,0.0,0.0,0.0,0.0,0.0,0.0,0.0,0.0,0.0,0.0,0.0,0.0,0.0,0.0,0.0,0.0,0.0,0.0,0.0,0.0,0.0,0.0,0.0,0.0,0.0,0.0,0.0,0.0,0.0,0.0,0.0,0.0,0.0,0.0,0.0,0.0,0.0,0.0,0.0,0.0,0.0,0.0,0.0,0.0,0.0,0.0,0.0,0.0,0.0,0.0,0.0,0.0,0.0,0.0,0.0,0.0,0.0,0.0,0.0,0.0,0.0,0.0,0.0,0.0,0.0,0.0,0.0,0.0,0.0,0.0,0.0,0.0,0.0,0.0,0.0,0.0,0.0,1.711,1.7478,1.7267,1.9041,1.9545,1.7686,1.6653,1.516,1.299,1.1931,0.0,0.0,0.0,0.0,0.0,0.0,0.0,0.0,0.0,0.0,0.0,0.0,0.0,0.0,0.0,0.0,0.0,0.0,0.0,0.0,0.0,0.0,0.0,0.0,0.0,0.0,0.0,0.0,0.0,0.0,0.0,0.0,0.0,0.0,0.0,0.0,0.0,0.0,0.0,0.0,0.0,0.0,0.0,0.0,0.0,0.0,0.0,0.0,0.0,0.0,0.0,0.0,0.0,0.0,0.0,0.0,0.0,0.0,0.0,0.0,0.0,0.0,0.0,0.0,0.0,0.0,0.0,0.0,0.0,0.0,0.0,0.0,0.0,0.0,0.0,0.0,0.0,0.0,0.0,0.0,0.0,0.0,0.0,0.0,0.0,0.0,0.0,0.0,0.0,0.0,0.0,0.0,0.0,0.0,0.0,0.0,0.0,0.0,0.0,0.0,0.0,0.0,1.8772,1.9232,1.8946,2.0331,2.0564,1.8927,1.7615,1.5901,1.345,1.1891,0.0,0.0,0.0,0.0,0.0,0.0,0.0,0.0,0.0,0.0,0.0,0.0,0.0,0.0,0.0,0.0,0.0,0.0,0.0,0.0,0.0,0.0,0.0,0.0,0.0,0.0,0.0,0.0,0.0,0.0,0.0,0.0,0.0,0.0,0.0,0.0,0.0,0.0,0.0,0.0,0.0,0.0,0.0,0.0,0.0,0.0,0.0,0.0,0.0,0.0,0.0,0.0,0.0,0.0,0.0,0.0,0.0,0.0,0.0,0.0,0.0,0.0,0.0,0.0,0.0,0.0,0.0,0.0,0.0,0.0,0.0,0.0,0.0,0.0,0.0,0.0,0.0,0.0,0.0,0.0,0.0,0.0,0.0,0.0,0.0,0.0,0.0,0.0,0.0,0.0,0.0,0.0,0.0,0.0,0.0,0.0,0.0,0.0,0.0,0.0,0.0,0.0,1.9841,2.0513,1.979,2.1245,2.1787,2.0558,1.8373,1.6615,1.558,1.3057,0.0,0.0,0.0,0.0,0.0,0.0,0.0,0.0,0.0,0.0,0.0,0.0,0.0,0.0,0.0,0.0,0.0,0.0,0.0,0.0,0.0,0.0,0.0,0.0,0.0,0.0,0.0,0.0,0.0,0.0,0.0,0.0,0.0,0.0,0.0,0.0,0.0,0.0,0.0,0.0,0.0,0.0,0.0,0.0,0.0,0.0,0.0,0.0,0.0,0.0,0.0,0.0,0.0,0.0,0.0,0.0,0.0,0.0,0.0,0.0,0.0,0.0,0.0,0.0,0.0,0.0,0.0,0.0,0.0,0.0,0.0,0.0,0.0,0.0,0.0,0.0,0.0,0.0,0.0,0.0,0.0,0.0,0.0,0.0,0.0,0.0,0.0,0.0,0.0,0.0,0.0,0.0,0.0,0.0,0.0,0.0,0.0,0.0,0.0,0.0,0.0,0.0,2.0017,2.0971,2.0931,2.2157,2.2561,2.1571,1.9443,1.7648,1.6491,0.0,0.0,0.0,0.0,0.0,0.0,0.0,0.0,0.0,0.0,0.0,0.0,0.0,0.0,0.0,0.0,0.0,0.0,0.0,0.0,0.0,0.0,0.0,0.0,0.0,0.0,0.0,0.0,0.0,0.0,0.0,0.0,0.0,0.0,0.0,0.0,0.0,0.0,0.0,0.0,0.0,0.0,0.0,0.0,0.0,0.0,0.0,0.0,0.0,0.0,0.0,0.0,0.0,0.0,0.0,0.0,0.0,0.0,0.0,0.0,0.0,0.0,0.0,0.0,0.0,0.0,0.0,0.0,0.0,0.0,0.0,0.0,0.0,0.0,0.0,0.0,0.0,0.0,0.0,0.0,0.0,0.0,0.0,0.0,0.0,0.0,0.0,0.0,0.0,0.0,0.0,0.0,0.0,0.0,0.0,0.0,0.0,0.0,0.0,0.0,0.0,0.0,1.8542,2.009,2.1149,2.1798,2.2719,2.3043,2.2446,2.0544,1.8812,1.754,0.0,0.0,0.0,0.0,0.0,0.0,0.0,0.0,0.0,0.0,0.0,0.0,0.0,0.0,0.0,0.0,0.0,0.0,0.0,0.0,0.0,0.0,0.0,0.0,0.0,0.0,0.0,0.0,0.0,0.0,0.0,0.0,0.0,0.0,0.0,0.0,0.0,0.0,0.0,0.0,0.0,0.0,0.0,0.0,0.0,0.0,0.0,0.0,0.0,0.0,0.0,0.0,0.0,0.0,0.0,0.0,0.0,0.0,0.0,0.0,0.0,0.0,0.0,0.0,0.0,0.0,0.0,0.0,0.0,0.0,0.0,0.0,0.0,0.0,0.0,0.0,0.0,0.0,0.0,0.0,0.0,0.0,0.0,0.0,0.0,0.0,0.0,0.0,0.0,0.0,0.0,0.0,0.0,0.0,0.0,0.0,0.0,0.0,0.0,0.0,0.0,0.0,1.9272,2.0182,2.0955,2.2257,2.2966,2.3327,2.3327,2.162,2.0076,0.0,0.0,0.0,0.0,0.0,0.0,0.0,0.0,0.0,0.0,0.0,0.0,0.0,0.0,0.0,0.0,0.0,0.0,0.0,0.0,0.0,0.0,0.0,0.0,0.0,0.0,0.0,0.0,0.0,0.0,0.0,0.0,0.0,0.0,0.0,0.0,0.0,0.0,0.0,0.0,0.0,0.0,0.0,0.0,0.0,0.0,0.0,0.0,0.0,0.0,0.0,0.0,0.0,0.0,0.0,0.0,0.0,0.0,0.0,0.0,0.0,0.0,0.0,0.0,0.0,0.0,0.0,0.0,0.0,0.0,0.0,0.0,0.0,0.0,0.0,0.0,0.0,0.0,0.0,0.0,0.0,0.0,0.0,0.0,0.0,0.0,0.0,0.0,0.0,0.0,0.0,0.0,0.0,0.0,0.0,0.0,0.0,0.0,0.0,0.0,0.0,0.0,0.0,1.9463,2.0816,2.1766,2.2324,2.2766,2.2993,2.2993,2.1424,2.0241,1.9794,0.0,0.0,0.0,0.0,0.0,0.0,0.0,0.0,0.0,0.0,0.0,0.0,0.0,0.0,0.0,0.0,0.0,0.0,0.0,0.0,0.0,0.0,0.0,0.0,0.0,0.0,0.0,0.0,0.0,0.0,0.0,0.0,0.0,0.0,0.0,0.0,0.0,0.0,0.0,0.0,0.0,0.0,0.0,0.0,0.0,0.0,0.0,0.0,0.0,0.0,0.0,0.0,0.0,0.0,0.0,0.0,0.0,0.0,0.0,0.0,0.0,0.0,0.0,0.0,0.0,0.0,0.0,0.0,0.0,0.0,0.0,0.0,0.0,0.0,0.0,0.0,0.0,0.0,0.0,0.0,0.0,0.0,0.0,0.0,0.0,0.0,0.0,0.0,0.0,0.0,0.0,0.0,0.0,0.0,0.0,0.0,0.0,0.0,0.0,0.0,0.0,0.0,1.941,2.0802,2.179,2.2205,2.2405,2.2605,2.2914,2.1605,2.0644,2.0233,0.0,0.0,0.0,0.0,0.0,0.0,0.0,0.0,0.0,0.0,0.0,0.0,0.0,0.0,0.0,0.0,0.0,0.0,0.0,0.0,0.0,0.0,0.0,0.0,0.0,0.0,0.0,0.0,0.0,0.0,0.0,0.0,0.0,0.0,0.0,0.0,0.0,0.0,0.0,0.0,0.0,0.0,0.0,0.0,0.0,0.0,0.0,0.0,0.0,0.0,0.0,0.0,0.0,0.0,0.0,0.0,0.0,0.0,0.0,0.0,0.0,0.0,0.0,0.0,0.0,0.0,0.0,0.0,0.0,0.0,0.0,0.0,0.0,0.0,0.0,0.0,0.0,0.0,0.0,0.0,0.0,0.0,0.0,0.0,0.0,0.0,0.0,0.0,0.0,0.0,0.0,0.0,0.0,0.0,0.0,0.0,0.0,0.0,0.0,0.0,0.0,0.0,1.9203,2.0388,2.1336,2.1924,2.1991,2.2205,2.2807,2.207,2.1149,2.0294,0.0,0.0,0.0,0.0,0.0,0.0,0.0,0.0,0.0,0.0,0.0,0.0,0.0,0.0,0.0,0.0,0.0,0.0,0.0,0.0,0.0,0.0,0.0,0.0,0.0,0.0,0.0,0.0,0.0,0.0,0.0,0.0,0.0,0.0,0.0,0.0,0.0,0.0,0.0,0.0,0.0,0.0,0.0,0.0,0.0,0.0,0.0,0.0,0.0,0.0,0.0,0.0,0.0,0.0,0.0,0.0,0.0,0.0,0.0,0.0,1.8471,1.8325,0.0,0.0,0.0,0.0,0.0,0.0,0.0,0.0,0.0,0.0,0.0,0.0,0.0,0.0,0.0,0.0,0.0,0.0,0.0,0.0,0.0,0.0,0.0,0.0,0.0,0.0,0.0,0.0,0.0,0.0,0.0,0.0,0.0,0.0,0.0,0.0,0.0,0.0,0.0,0.0,1.9292,2.0388,2.1336,2.1924,2.1991,2.2031,2.2164,2.1577,2.0922,2.0207,1.8068,0.0,0.0,0.0,0.0,0.0,0.0,0.0,0.0,0.0,0.0,0.0,0.0,0.0,0.0,0.0,0.0,0.0,0.0,0.0,0.0,0.0,0.0,0.0,0.0,0.0,0.0,0.0,0.0,0.0,0.0,0.0,0.0,0.0,0.0,0.0,0.0,0.0,0.0,0.0,0.0,0.0,0.0,0.0,0.0,0.0,0.0,0.0,0.0,0.0,0.0,0.0,0.0,0.0,0.0,0.0,0.0,0.0,0.0,0.0,2.1594,2.0751,0.0,0.0,0.0,0.0,0.0,0.0,0.0,0.0,0.0,0.0,0.0,0.0,0.0,0.0,0.0,0.0,0.0,0.0,0.0,0.0,0.0,0.0,0.0,0.0,0.0,0.0,0.0,0.0,0.0,0.0,0.0,0.0,0.0,0.0,0.0,0.0,0.0,0.0,0.0,0.0,1.9279,2.0267,2.1176,2.1911,2.1857,2.183,2.1977,2.1443,2.0922,2.0468,1.888,0.0,0.0,0.0,0.0,0.0,0.0,0.0,0.0,0.0,0.0,0.0,0.0,0.0,0.0,0.0,0.0,0.0,0.0,0.0,0.0,0.0,0.0,0.0,0.0,0.0,0.0,0.0,0.0,0.0,0.0,0.0,0.0,0.0,0.0,0.0,0.0,0.0,0.0,0.0,0.0,0.0,0.0,0.0,0.0,0.0,0.0,0.0,0.0,0.0,0.0,0.0,0.0,0.0,2.6186,2.6333,2.6453,2.6159,2.6066,2.6052,2.497,2.3765,2.2463,2.1922,0.0,0.0,0.0,0.0,0.0,0.0,0.0,0.0,0.0,0.0,0.0,0.0,0.0,0.0,0.0,0.0,0.0,0.0,0.0,0.0,0.0,0.0,2.0067,2.0494,2.0414,1.9719,1.786,0.0,0.0,0.0,0.0,0.0,0.0,0.0,0.0,0.0,0.0,0.0,1.9386,2.0241,2.1082,2.1964,2.1815,2.1722,2.1884,2.1416,2.0989,2.0695,1.9947,1.8719,0.0,0.0,0.0,0.0,0.0,0.0,0.0,0.0,0.0,0.0,0.0,0.0,0.0,0.0,0.0,0.0,0.0,0.0,0.0,0.0,0.0,0.0,0.0,0.0,0.0,0.0,0.0,0.0,0.0,0.0,0.0,0.0,2.382,2.2905,0.0,0.0,0.0,0.0,0.0,0.0,0.0,0.0,0.0,0.0,0.0,0.0,0.0,2.6239,2.6266,2.6747,2.676,2.6346,2.7108,2.7215,2.6747,2.6466,2.6466,2.6667,2.6012,0.0,2.4256,2.3648,0.0,0.0,0.0,0.0,0.0,0.0,0.0,0.0,0.0,0.0,0.0,0.0,0.0,0.0,0.0,0.0,0.0,0.0,0.0,0.0,0.0,0.0,2.0521,2.0334,2.0207,2.0087,1.9562,1.9332,1.9115,1.8745,1.8311,1.7376,0.0,0.0,0.0,0.0,0.0,0.0,1.9933,2.0668,2.139,2.2271,2.1884,2.1628,2.1668,2.1296,2.0989,2.0695,2.0321,1.9734,1.9034,1.7202,0.0,0.0,0.0,0.0,0.0,0.0,0.0,0.0,0.0,0.0,0.0,0.0,0.0,0.0,0.0,0.0,0.0,0.0,0.0,0.0,0.0,0.0,0.0,0.0,0.0,0.0,0.0,0.0,0.0,2.2774,2.5564,2.4374,2.4795,2.5357,0.0,0.0,0.0,0.0,0.0,0.0,0.0,0.0,0.0,2.6453,2.6734,2.6881,2.6881,2.7295,2.7549,2.7642,2.803,2.807,2.7816,2.7509,2.7442,2.7535,2.6947,2.6466,2.6026,2.4957,2.3615,2.2122,0.0,0.0,0.0,0.0,2.1002,2.099,2.1142,2.117,2.08,1.8893,0.0,0.0,0.0,0.0,0.0,0.0,0.0,2.0401,2.0267,2.0454,2.0681,2.0722,2.0722,2.0775,2.0989,2.0548,1.9907,1.9252,1.9052,1.8509,1.693,1.7095,0.0,0.0,0.0,1.8835,1.9867,2.0788,2.1563,2.2111,2.2098,2.1977,2.1804,2.167,2.155,2.1416,2.0975,2.0468,1.988,1.8842,1.7576,0.0,0.0,0.0,0.0,0.0,0.0,0.0,0.0,0.0,0.0,0.0,0.0,0.0,0.0,0.0,0.0,0.0,0.0,0.0,0.0,0.0,0.0,0.0,0.0,0.0,0.0,0.0,0.0,2.2991,2.5373,2.4304,2.5308,2.6104,0.0,0.0,0.0,0.0,0.0,0.0,2.6385,2.6987,2.7308,2.7161,2.7455,2.7642,2.7722,2.8003,2.8377,2.8831,2.8911,2.8938,2.8925,2.8551,2.8377,2.8337,2.7749,2.7402,2.7161,2.5758,2.477,2.4048,2.3527,2.318,2.2939,2.2645,2.2539,2.2377,2.1488,2.1192,2.0952,1.9373,1.882,1.8691,1.8647,0.0,0.0,0.0,0.0,2.0193,2.0321,2.0508,2.0748,2.1042,2.1162,2.1349,2.1777,2.1363,2.0615,1.9666,1.9546,1.9265,1.8223,1.8036,0.0,1.7809,1.8531,1.9386,2.0054,2.1029,2.1842,2.2071,2.2285,2.2298,2.2004,2.1844,2.1764,2.1764,2.1283,2.0802,2.0361,2.0067,1.8836,1.6553,0.0,0.0,0.0,0.0,0.0,0.0,0.0,0.0,0.0,0.0,0.0,0.0,0.0,0.0,0.0,0.0,0.0,0.0,0.0,0.0,0.0,0.0,0.0,0.0,0.0,0.0,0.0,0.0,0.0,2.2396,2.4663,0.0,0.0,0.0,0.0,2.7201,2.7455,2.7509,2.7215,2.7509,2.7802,2.8154,2.8377,2.8671,2.8951,2.9245,2.9406,2.9446,2.9713,2.9847,2.9833,2.9259,2.8991,2.8965,2.8364,2.7859,2.7175,2.5985,2.5304,2.4903,2.3768,2.3313,2.326,2.2953,2.2846,2.2792,2.2444,2.2351,2.2284,2.219,2.1819,2.1214,2.0438,2.0157,0.0,0.0,2.0454,2.0294,2.0575,2.0668,2.0748,2.1042,2.1323,2.1601,2.1628,2.1601,2.1403,2.1069,2.0561,2.0,1.9386,0.0,1.9279,1.931,1.9546,2.0067,2.0935,2.1577,2.2071,2.2365,2.2405,2.2298,2.2004,2.147,2.1149,2.1149,2.0869,2.0681,2.0655,2.0374,1.9311,1.7538,1.6191,0.0,0.0,0.0,0.0,0.0,0.0,0.0,0.0,0.0,0.0,0.0,0.0,0.0,0.0,0.0,0.0,0.0,0.0,0.0,0.0,0.0,0.0,0.0,0.0,0.0,0.0,0.0,0.0,2.4747,2.5382,0.0,2.7129,2.7817,2.798,2.7308,2.7709,2.803,2.8123,2.8591,2.8978,2.9272,2.9392,2.9499,2.9606,2.9713,2.9766,2.9766,2.986,2.9713,2.9352,2.9138,2.8831,2.8457,2.8315,2.7993,2.7495,2.6894,2.6132,2.5277,2.4476,2.4062,2.3848,2.3554,2.3447,2.3407,2.3113,2.3006,2.2939,2.2552,2.2031,2.1472,2.0993,2.0674,2.0535,2.0641,2.0735,2.0869,2.1162,2.1306,2.1373,2.1603,2.1617,2.1722,2.2031,2.1964,2.1911,2.2178,2.1309,2.0334,1.9746,1.98,1.98,1.9426,1.9933,2.0481,2.0788,2.151,2.1951,2.1871,2.2191,2.2298,2.2004,2.179,2.167,2.167,2.1403,2.0737,1.9604,1.9594,1.8889,1.7359,1.634,1.5412,0.0,0.0,0.0,0.0,0.0,0.0,0.0,0.0,0.0,0.0,0.0,0.0,0.0,0.0,0.0,0.0,0.0,0.0,0.0,0.0,0.0,0.0,0.0,0.0,0.0,2.0965,2.3291,2.5398,2.5308,2.5868,2.7846,2.8273,2.8417,2.835,2.8757,2.8978,2.9192,2.9472,2.9713,2.9913,2.9913,2.9913,2.9913,2.9913,2.9913,2.9913,2.9913,2.9659,2.9192,2.9085,2.8764,2.8297,2.8274,2.7923,2.7535,2.7348,2.6694,2.5758,2.5277,2.4903,2.4609,2.4315,2.4155,2.4008,2.3607,2.334,2.303,2.2222,2.1697,2.1215,2.0629,2.0245,2.0094,2.0475,2.0669,2.0864,2.1124,2.1163,2.1215,2.1397,2.1384,2.1556,2.2271,2.2338,2.2392,2.2847,2.1924,2.1002,2.0601,2.0615,2.0481,1.9893,2.0388,2.0788,2.0681,2.1363,2.1804,2.171,2.2044,2.2191,2.2004,2.171,2.155,2.155,2.0922,1.9998,1.8824,1.8913,1.8272,1.6818,1.5671,1.5322,1.5805,0.0,0.0,0.0,0.0,0.0,0.0,0.0,0.0,0.0,0.0,0.0,0.0,0.0,0.0,0.0,0.0,0.0,0.0,0.0,0.0,0.0,0.0,0.0,1.9399,2.1595,2.3131,2.3941,2.423,2.5079,2.6851,2.8069,2.9118,3.0225,3.0277,3.0263,3.0263,2.9984,2.9824,2.9824,2.9824,2.9824,2.9913,2.9824,2.9824,2.9913,2.9913,2.9766,2.9459,2.9179,2.8871,2.8577,2.827,2.7886,2.7268,2.7255,2.6907,2.636,2.6066,2.5772,2.5478,2.5184,2.4877,2.4529,2.3955,2.3367,2.2654,2.1553,2.1021,2.0539,1.9449,1.8936,1.8944,1.999,2.0323,2.0402,2.0402,2.0335,2.0347,2.0347,2.0533,2.1069,2.2163,2.2578,2.2846,2.2859,2.2392,2.1991,2.1991,2.1764,2.144,2.0788,2.0949,0.0,2.0748,2.1293,2.1735,2.1937,2.1964,2.1964,2.1951,2.1162,2.0668,2.0681,1.9261,1.8464,1.8523,1.8391,1.7596,1.5964,1.4416,1.428,1.5714,0.0,0.0,0.0,0.0,0.0,0.0,0.0,0.0,0.0,0.0,0.0,0.0,0.0,0.0,0.0,0.0,0.0,0.0,0.0,0.0,0.0,1.6097,1.7563,1.897,2.0601,2.2357,2.4366,2.4872,2.5635,2.703,2.7364,2.7403,2.7342,2.7128,2.7021,2.7021,2.6862,2.7172,2.8281,2.7262,2.7715,2.9913,2.8822,2.8822,2.9913,2.9913,2.9646,2.9152,2.9072,2.8764,2.8257,2.7949,2.7615,2.7241,2.7028,2.672,2.636,2.6066,2.5772,2.5478,2.5184,2.4623,2.3955,2.3581,2.2636,2.1622,2.1276,2.0656,2.0005,1.9472,1.9993,2.0698,2.0582,2.145,2.2418,2.2264,2.1671,2.12,2.12,2.0479,2.0119,2.1302,2.1475,2.171,2.2682,2.2552,2.2231,2.2017,2.2098,2.1977,2.1467,2.1563,2.171,2.163,2.1951,2.1964,2.1403,2.1537,2.1496,2.1069,2.0615,2.0441,2.0655,1.9879,1.9042,1.8248,1.8105,1.7818,1.7353,1.7342,1.7603,0.0,0.0,0.0,0.0,0.0,0.0,0.0,0.0,0.0,0.0,0.0,0.0,0.0,0.0,0.0,0.0,0.0,0.0,0.0,0.0,0.0,0.0,1.613,1.7616,1.928,2.0759,2.2173,2.3708,2.4277,2.496,2.631,2.6354,2.6263,2.6538,2.6174,2.5981,2.5981,2.5731,2.6174,2.7636,2.6265,2.6628,2.8912,2.7546,2.7172,2.8088,2.8088,2.7773,2.7347,2.7322,2.7021,2.6581,2.6781,2.6708,2.6423,2.6705,2.6653,2.636,0.0,0.0,0.0,0.0,2.2888,2.2275,2.1998,2.1303,2.0445,1.9959,1.949,1.902,1.8382,1.8795,1.9569,1.9712,2.0474,2.1256,2.1086,2.058,2.0108,2.019,1.9431,1.9111,2.0237,2.0727,2.1077,2.1446,2.1688,0.0,2.0935,2.1696,2.2218,2.1708,2.1804,2.1937,2.1817,2.2058,2.2084,2.1697,2.1697,2.1643,2.143,2.0909,0.0,0.0,0.0,1.8775,1.7902,1.772,0.0,0.0,0.0,1.8345,1.8461,1.7951,0.0,0.0,1.5278,1.4688,0.0,0.0,0.0,0.0,0.0,0.0,0.0,0.0,0.0,0.0,0.0,0.0,0.0,0.0,0.0,0.0,1.6091,1.7243,1.9885,2.1119,2.2075,2.2737,2.3124,2.3784,2.496,2.5019,2.5408,2.6424,2.6113,2.5821,2.5821,2.5258,0.0,0.0,0.0,2.581,2.7456,2.5992,2.5343,2.5525,2.5525,2.5377,2.5013,2.4897,2.4646,2.4349,2.5156,2.5283,2.5096,2.6125,2.6374,2.6095,2.5843,2.4778,2.3258,2.1324,2.0528,2.0238,2.0069,0.0,0.0,1.8276,1.802,1.7909,1.6836,1.6771,1.7301,1.8226,1.8675,1.8759,1.8738,1.8518,1.83,1.8247,1.8009,1.8065,1.9133,2.0098,2.0584,1.9669,2.0306,2.0581,1.9381,2.0768,2.1937,2.1593,2.1766,2.1859,2.1737,2.1924,2.2151,2.2352,2.2138,0.0,2.2258,2.1523,2.0949,2.0695,1.9347,1.8336,1.7765,1.7572,1.7943,1.8915,1.8046,1.763,1.7877,1.6985,1.6503,1.6503,1.6378,1.5259,0.0,0.0,0.0,0.0,0.0,0.0,0.0,0.0,0.0,0.0,0.0,0.0,0.0,0.0,0.0,1.5117,1.6343,1.7427,1.8244,1.9553,2.1087,2.2997,2.3427,2.3596,2.3692,2.351,2.3508,2.3552,2.2973,2.2639,2.2639,2.2226,2.2718,2.4075,2.2811,2.326,2.5889,2.4441,2.435,2.5525,2.5525,0.0,2.4863,2.4817,2.4543,2.4086,2.4044,2.3851,2.375,2.4743,2.4773,2.425,2.42,2.3243,2.1761,2.0773,2.0318,2.0238,1.9986,1.9233,1.8449,1.8424,1.7913,1.7279,1.7056,1.7797,0.0,1.8715,1.9617,2.0471,2.0269,1.9584,1.8926,1.8623,1.7719,1.7237,1.8015,1.8352,1.8703,1.939,1.9669,1.9727,1.9472,1.9808,2.0254,2.0876,2.1213,2.165,2.2551,2.2659,2.2539,2.2111,2.2017,2.1817,2.1403,2.0989,2.0735,2.0681,2.0164,1.9687,1.9345,1.9338,1.9277,1.9279,1.8326,1.7873,1.7877,1.6985,1.6503,1.6503,1.6459,1.5968,0.0,0.0,0.0,0.0,0.0,0.0,0.0,0.0,0.0,0.0,0.0,1.4468,1.4326,0.0,1.5086,1.5466,1.6328,1.7178,1.7995,1.8804,1.9838,2.1482,2.2379,2.2688,2.2387,2.2774,2.2888,2.2576,2.2085,2.1792,2.1792,2.1395,2.1806,2.326,2.1898,2.2258,2.435,2.2984,2.2626,2.3352,2.3352,2.3175,2.283,2.2715,2.2475,2.212,2.246,2.2488,2.2503,2.3342,2.2908,2.1846,2.1708,2.1119,2.0157,1.8591,1.8016,1.7993,1.7217,1.6962,1.6933,1.7038,1.7073,1.7105,1.7105,1.7623,1.8299,1.8115,1.8617,1.9208,1.9018,1.8611,1.8101,1.7882,1.7311,1.6863,1.7112,1.7673,1.7997,1.7882,1.8282,1.8493,1.7931,1.7861,1.8379,1.991,2.0776,2.1415,2.1966,2.2035,2.2138,2.2391,2.1947,2.1696,2.2017,2.1456,2.0989,2.0695,2.0401,2.0174,2.0027,2.0013,1.9707,1.9086,1.8212,1.7242,1.622,1.5382,1.466,1.4133,1.4133,1.4371,0.0,0.0,0.0,0.0,0.0,0.0,0.0,1.4245,1.4285,1.4441,1.4631,1.4841,1.5059,1.5262,1.5567,1.6083,1.632,1.6837,1.8033,1.8173,1.8485,1.9314,2.0733,2.1492,2.118,2.2058,2.2466,2.2177,2.1979,2.1849,2.1849,2.1489,2.182,2.2964,2.1826,2.1714,2.2892,2.1806,2.1168,2.1168,2.1168,2.1055,2.0837,2.0629,2.0422,2.0195,2.0882,2.1258,2.1515,2.1976,2.1348,2.0038,1.9849,1.9321,1.8455,1.6443,1.5812,1.5702,1.4539,1.4694,1.5454,1.5489,1.605,1.671,1.671,1.683,1.6968,1.6968,1.6968,1.6968,1.6968,1.6839,1.6701,1.6664,1.6536,1.6352,1.6103,1.6903,1.7347,1.6145,1.6805,1.7298,1.6391,1.6178,1.6885,1.8901,1.9959,2.0653,2.0861,2.0861,2.1276,2.2448,2.176,2.1527,2.2437,2.1806,2.1018,2.0305,1.9996,1.9753,1.9514,1.9514,1.8987,1.8006,1.7245,1.5977,1.433,1.3542,1.2733,1.1866,1.1744,1.2302,1.3899,1.3865,1.3953,1.419,1.4156,1.4211,0.0,1.4869,1.4909,1.5052,1.5411,1.5676,1.5581,1.5906,1.6246,1.6442,1.6714,1.7063,1.7332,1.7353,1.7353,1.7459,1.9214,2.0266,2.0225,2.0694,2.1138,2.1262,2.1795,2.2056,2.2056,2.1849,2.1726,2.1714,2.1356,2.1261,2.1446,2.1261,2.1168,2.1168,2.1168,2.1055,2.0837,2.0629,2.0422,2.0195,1.9952,2.0337,2.1222,2.1096,2.079,2.0289,2.0258,1.8937,1.6861,1.6037,1.5812,1.5728,1.4695,1.4596,1.4851,1.5007,1.5149,1.5242,1.5242,1.5259,1.5275,1.5275,1.5275,1.5275,1.5275,1.5259,1.5201,1.5043,1.4918,1.4803,1.4448,1.5026,1.5552,1.5212,1.5815,1.632,1.6249,1.6178,1.6603,1.7861,1.8212,1.8633,1.9599,1.9669,2.0156,2.1276,2.1276,2.1177,2.1052,2.0659,1.994,1.8657,1.8545,1.8003,1.6981,1.6896,1.6411,1.5442,1.451,1.3948,1.3671,1.2758,1.2264,1.2113,1.1547,1.1255,1.3905,1.3973,1.4095,1.4048,1.4319,1.4658,1.4916,1.5106,1.5296,1.5527,1.5927,1.6225,1.6164,1.6517,1.6842,1.6904,1.7093,1.7256,1.7317,1.7249,1.7127,1.6958,1.7569,1.8254,1.8868,1.9597,2.0431,2.1098,2.1138,2.1454,2.2274,2.1849,2.1565,2.1471,2.1272,2.1168,2.1168,2.1168,2.1168,2.1168,2.1168,2.0998,2.0667,2.0582,2.0365,2.0034,1.9864,1.9914,2.0213,1.9483,1.89,1.8513,1.7817,1.6933,1.5914,1.5463,1.5083,1.4661,1.3559,1.3574,1.4107,1.4253,1.4584,1.4968,1.4968,1.4968,1.4968,1.4968,1.4968,1.4968,1.4968,1.4968,1.4952,1.4879,1.4854,1.4789,1.4529,1.4704,1.4868,1.4602,1.4766,1.4986,1.4986,1.49,1.5035,1.5532,1.6875,1.8072,1.8493,1.8563,1.8552,1.8611,1.9158,1.9265,1.8515,1.8325,1.7968,1.7262,1.7058,1.6768,1.6319,1.6175,1.5677,1.4702,1.3859,1.311,1.2434,1.1611,1.119,1.1102,1.0785,1.0587,1.3878,0.0,0.0,1.4163,1.4658,1.5187,1.5309,1.5567,1.5866,1.6164,1.6449,1.6556,1.6073,1.6623,1.7042,1.6544,1.6996,1.7433,1.7473,1.7317,1.71,1.6842,1.6571,1.6685,1.7451,1.8344,1.9287,2.0124,2.0175,2.0667,2.1906,2.1531,2.1234,2.1178,2.0927,2.0612,2.0417,2.0612,2.0612,2.0417,2.0612,2.064,2.0252,2.0411,2.0346,1.9996,1.9883,1.9568,1.9152,1.8269,1.7574,1.7013,1.6131,1.5561,1.5201,1.4987,1.4501,1.386,1.2741,1.2804,1.3358,1.3358,1.3814,1.4276,1.4276,1.4276,1.4276,1.4276,1.4276,1.4276,1.4276,1.4276,1.4276,1.4276,1.4276,1.4229,1.4067,1.4179,1.4275,1.4019,1.4098,1.4156,1.4156,1.401,1.3969,1.3969,1.5604,1.6864,1.6805,1.7087,1.7007,1.6423,1.7398,1.7607,1.653,1.6451,1.6215,1.567,1.5471,1.5262,1.4996,1.4866,1.4306,1.3399,1.2873,1.2161,1.1337,1.0816,1.05,1.0399,1.0399,1.0399,0.0,0.0,1.4217,1.4794,1.5282,1.573,1.6171,1.6497,1.6795,1.7087,1.7053,1.6479,1.5004,1.6003,1.6499,1.5028,1.6239,1.7473,1.7623,1.7385,1.7141,1.6992,1.6456,1.6035,1.5984,1.6846,1.7493,1.7764,1.8746,1.9725,2.0826,2.0623,2.0421,2.0341,1.9962,1.9294,1.8269,1.9294,1.9294,1.8269,1.9294,1.9759,1.9732,2.027,2.0422,2.0185,1.9788,1.9084,1.8198,1.8014,1.7306,1.6292,1.6292,1.568,1.4676,1.4586,1.4323,1.3875,1.2859,1.2501,1.2579,1.2579,1.2579,1.2579,1.2579,1.2579,1.2579,1.2579,1.2579,1.2579,1.2579,1.2579,1.2579,1.2579,1.2579,1.2538,1.2394,1.296,1.3363,1.3282,1.3839,1.4268,1.4268,1.4196,1.4075,1.4075,1.4148,1.4155,1.4063,1.5026,1.5655,1.5655,1.6625,1.6836,1.5717,1.5646,1.5062,1.3768,1.3595,1.3074,1.215,1.1992,1.1578,1.085,1.0784,1.0784,1.0711,1.0711,1.0711,1.0704,1.0704,1.0704,0.0,0.0,1.5031,1.5337,1.5974,1.6571,1.672,1.6985,1.7195,1.7195,1.6917,1.6426,1.5762,1.5264,1.5134,1.5782,1.5842,1.6308,1.7642,1.7623,1.729,1.6741,1.6497,1.6157,1.5615,1.5939,1.6593,1.7635,1.7856,1.8529,1.9725,1.9442,1.9288,1.9104,1.8861,1.8549,1.8176,1.8549,1.8549,1.8176,1.8549,1.8517,1.8276,1.855,1.8493,1.8163,1.8034,1.78,1.7443,1.6647,1.6043,1.5547,1.4868,1.4287,1.3804,1.3755,1.3601,1.3384,1.2817,1.2651,1.2637,1.2535,1.2501,1.2501,1.2501,1.2501,1.2501,1.2501,1.2501,1.2501,1.2501,1.2501,1.2501,1.2501,1.2501,1.2488,1.244,1.2657,1.2797,1.2741,1.2885,1.2964,1.2964,1.2827,1.2793,1.2793,1.3486,1.401,1.4058,1.4319,1.4244,1.3817,1.4093,1.3951,1.3039,1.2968,1.2731,1.2322,1.217,1.1922,1.1587,1.1502,1.1288,1.1016,1.0921,1.0806,1.0806,1.0772,1.0717,1.0717,1.0717,1.0717,0.0,1.5045,1.5655,1.6029,1.6632,1.7048,1.667,1.7042,1.7116,1.5949,1.6022,1.5971,1.4484,1.3893,1.3911,1.5087,1.4849,1.5271,1.7257,1.7283,1.6965,1.6639,1.6415,1.6076,1.5547,1.5533,1.5967,1.6954,1.698,1.7365,1.8545,1.8285,1.8049,1.797,1.7796,1.7523,1.7149,1.7523,1.7678,1.7614,1.7584,1.7459,1.7191,1.7604,1.7501,1.7193,1.7071,1.684,1.6482,1.5757,1.5182,1.4693,1.4009,1.3661,1.3403,1.3403,1.3342,1.3214,1.2915,1.2813,1.2779,1.2569,1.2535,1.2576,1.2515,1.2501,1.2501,1.2501,1.2501,1.2501,1.2501,1.2501,1.2501,1.2501,1.2501,1.2501,1.2501,1.2501,1.2501,1.2501,1.2427,1.2366,1.2366,1.2244,1.2142,1.2142,1.2816,1.3237,1.3275,1.3146,1.2904,1.2402,1.2402,1.2187,1.1619,1.1619,1.1619,1.1619,1.1477,1.1389,1.1389,1.1246,1.1234,1.1234,1.107,1.1023,1.1023,1.0928,1.088,1.088,1.088,1.088,1.5167,1.5676,1.6096,1.6822,1.7222,1.7156,1.6191,1.6859,1.6768,1.3888,1.4681,1.5014,1.161,1.1978,1.2865,1.2942,1.3324,1.4304,1.6681,1.6524,1.6313,1.6714,1.6252,1.5832,1.5669,1.5513,1.554,1.5818,1.5845,1.6328,1.7291,1.7151,1.6995,1.6927,1.6763,1.6213,1.5181,1.6126,1.6606,1.6442,1.6614,1.6599,1.6427,1.7191,1.7378,1.7259,1.6832,1.6254,1.5466,1.5372,1.4758,1.3851,1.3759,1.3661,1.341,1.3403,1.3403,1.3356,1.3064,1.2963,1.2908,1.2603,1.2603,1.2691,1.2549,1.2501,1.2501,1.2501,1.2501,1.2501,1.2501,1.2501,1.2501,1.2501,1.2501,1.2501,1.2501,1.2501,1.2501,1.2501,1.2501,1.2501,1.2501,1.2393,1.2298,1.2298,1.2169,1.202,1.187,1.1728,1.164,1.164,1.164,1.164,1.164,1.1633,1.1633,1.1633,1.1491,1.1402,1.1402,1.126,1.1185,1.1185,1.1179,1.1241,1.1241,1.1165,1.1234,1.1234,1.1234,1.1234,1.5744,1.6368,1.6924,1.7229,1.7528,1.7628,1.7219,1.7257,1.6915,1.5571,1.5105,1.4479,1.3173,1.1478,1.1225,1.397,1.3389,1.3685,1.6948,1.7344,1.7168,1.6951,1.6686,1.6334,1.5845,1.5669,1.5615,1.5689,1.5696,1.6029,1.6965,1.6358,1.5897,1.5626,1.5577,1.5462,1.5181,1.558,1.5653,1.5501,1.5653,1.5591,1.5433,1.5682,1.5597,1.5219,1.5141,1.4864,1.4583,1.4465,1.4308,1.4,1.3885,1.3729,1.3559,1.3444,1.3403,1.3356,1.3064,1.2963,1.2908,1.2603,1.2528,1.2556,1.2515,1.2501,1.2501,1.2501,1.2501,1.2501,1.2501,1.2501,1.2501,1.2501,1.2501,1.2501,1.2501,1.2501,1.2501,1.2501,1.2501,1.2501,1.2501,1.2474,1.2447,1.2447,1.2325,1.2216,1.2176,1.204,1.1952,1.1952,1.1952,1.1952,1.1952,1.1843,1.1775,1.1775,1.164,1.1558,1.1558,1.1525,1.1504,1.1504,1.1389,1.1335,1.1335,1.1219,1.1234,1.1234,1.1234,1.1234,1.6395,1.6924,1.7344,1.7561,1.7684,1.7554,1.6502,1.6505,1.613,1.3945,1.3797,1.3693,1.2421,1.1126,1.109,1.4031,1.3453,1.3695,1.6823,1.7141,1.7066,1.7073,1.6768,1.6422,1.609,1.5859,1.5897,1.6215,1.5767,1.5691,1.6173,1.578,1.5432,1.5187,1.5181,1.5215,1.5282,1.5371,1.5364,1.5282,1.5438,1.5323,1.4977,1.512,1.4936,1.4509,1.4509,1.4428,1.4292,1.4204,1.4095,1.396,1.3871,1.3709,1.3519,1.3431,1.3403,1.337,1.3132,1.3057,1.3003,1.2698,1.2651,1.2691,1.2623,1.2556,1.2501,1.2501,1.2501,1.2501,1.2501,1.2501,1.2522,1.2583,1.2603,1.2623,1.2691,1.2705,1.2705,1.2705,1.2705,1.2684,1.2617,1.2603,1.2576,1.2515,1.2433,1.2386,1.2386,1.2196,1.2135,1.2135,1.2135,1.2135,1.2135,1.1979,1.1932,1.1932,1.1796,1.1714,1.1714,1.1653,1.1619,1.1619,1.1538,1.1491,1.1491,1.1402,1.1396,1.1457,1.1396,1.1436,1.7053,1.7392,1.7568,1.7826,1.7772,1.7122,1.5324,1.5529,1.4964,1.1373,1.2095,1.2759,1.1039,1.0867,1.1617,1.3298,1.3181,1.3649,1.6137,1.6277,1.64,1.7107,1.6714,1.6374,1.6313,1.6069,1.6223,1.6891,1.5972,1.55,1.5574,1.5493,1.5343,1.5187,1.5181,1.5255,1.5411,1.5432,1.5438,1.5445,1.5554,1.5404,1.5031,1.5113,1.4943,1.457,1.455,1.4462,1.4326,1.4306,1.4143,1.3899,1.3858,1.3682,1.3451,1.3417,1.3403,1.3376,1.3227,1.3186,1.3152,1.2861,1.2854,1.2935,1.2779,1.2651,1.2556,1.2515,1.2528,1.2556,1.2535,1.2549,1.2596,1.2725,1.2759,1.28,1.2935,1.2963,1.2963,1.2963,1.2963,1.2915,1.2786,1.2759,1.2718,1.2583,1.2562,1.2556,1.2535,1.2291,1.2121,1.2121,1.2121,1.2121,1.2121,1.2176,1.2169,1.2169,1.1945,1.1864,1.1864,1.1742,1.1681,1.1681,1.1681,1.1681,1.1681,1.1681,1.1742,1.1857,1.1735,1.1816,1.7602,1.786,1.7989,1.8036,1.7846,1.7311,1.6237,1.5723,0.0,0.0,1.2847,1.2592,1.1713,1.095,1.0786,1.194,1.1531,1.1947,1.4628,1.5045,1.5437,1.6914,1.6924,1.672,1.6347,1.6259,1.6162,1.5856,1.5595,1.573,1.6444,1.5818,1.5343,1.5187,1.5181,1.5255,1.5411,1.5533,1.5601,1.5601,1.5499,1.5411,1.5323,1.5106,1.4964,1.4882,1.4753,1.4618,1.4468,1.4346,1.4272,1.4197,1.3939,1.381,1.3736,1.3492,1.3403,1.3376,1.3227,1.3254,1.3315,1.3017,1.2942,1.2935,1.2779,1.28,1.2827,1.2576,1.2684,1.2854,1.2725,1.2786,1.2888,1.2915,1.2922,1.2929,1.2956,1.2963,1.2963,1.2963,1.2963,1.2949,1.2929,1.2922,1.2908,1.2888,1.2881,1.2834,1.2705,1.2535,1.2427,1.2427,1.2427,1.2427,1.2427,1.2318,1.225,1.225,1.2108,1.202,1.202,1.1999,1.1986,1.1986,1.1986,1.1986,1.1986,1.1986,1.1999,1.202,1.1999,1.2013,1.788,1.8091,1.8199,1.8111,1.7758,1.7114,1.5981,0.0,0.0,0.0,1.2589,1.2271,1.1898,1.1592,1.1653,1.2396,1.1927,1.211,1.3882,1.4329,1.4746,1.5667,1.6354,1.6659,1.6442,1.6279,1.6035,1.5669,1.5642,1.5698,1.5946,1.5531,1.5296,1.5303,1.5303,1.5411,1.5642,1.5716,1.5791,1.5866,1.5716,1.552,1.5289,1.5228,1.5072,1.4848,1.4774,1.4699,1.4611,1.4394,1.4251,1.4163,1.4021,1.3912,1.3817,1.36,1.3566,1.36,1.337,1.339,1.3485,1.3261,1.3132,1.3057,1.2983,1.2963,1.2929,1.2779,1.2847,1.2942,1.2868,1.2908,1.2983,1.3051,1.3132,1.3193,1.3193,1.3193,1.3193,1.3193,1.3193,1.3166,1.3085,1.3071,1.3044,1.2969,1.2963,1.2935,1.2861,1.2786,1.2678,1.2522,1.2501,1.2501,1.2501,1.244,1.24,1.24,1.2264,1.2182,1.2182,1.2101,1.2135,1.2135,1.2135,1.2135,1.2135,1.2135,1.2176,1.2182,1.2101,1.2142,1.7989,1.8179,1.8247,1.8124,1.7616,1.6802,1.5479,1.4699,0.0,0.0,1.2169,1.2013,1.1857,1.2094,1.2347,1.2592,1.2301,1.2237,1.2808,1.3475,1.4107,1.4493,1.5672,1.651,1.6476,1.6266,1.6008,1.571,1.5757,1.5655,1.5296,1.5248,1.5303,1.5452,1.5459,1.5588,1.5852,1.5852,1.5934,1.6083,1.5893,1.5622,1.5282,1.5303,1.514,1.4835,1.4767,1.474,1.4719,1.4455,1.4258,1.4116,1.4082,1.3994,1.3871,1.3729,1.3743,1.3804,1.3539,1.3532,1.3607,1.3451,1.3322,1.3214,1.3186,1.3119,1.3044,1.3056,1.301,1.3051,1.3017,1.3057,1.3132,1.3247,1.3363,1.3444,1.341,1.3424,1.3451,1.3451,1.3478,1.3458,1.3336,1.3315,1.3275,1.3166,1.3125,1.3091,1.3057,1.3024,1.2901,1.263,1.2603,1.2603,1.2603,1.2569,1.2549,1.2549,1.2413,1.2338,1.2338,1.2223,1.2155,1.2155,1.2155,1.2155,1.2155,1.2155,1.2216,1.2332,1.221,1.2277,1.7935,1.8111,1.8111,1.8091,1.7541,1.668,1.5459,0.0,0.0,1.2542,1.2169,1.2013,1.1857,1.1762,1.1499,1.0901,1.0837,1.0779,1.0892,1.2191,1.3383,1.3981,1.5539,1.6469,1.6341,1.6307,1.6164,1.5859,1.5723,1.5642,1.5601,1.5466,1.5459,1.5615,1.5615,1.5696,1.5852,1.5852,1.5934,1.6076,1.5798,1.5635,1.5588,1.5194,1.5059,1.5126,1.4855,1.474,1.4726,1.4563,1.4407,1.4265,1.4129,1.4061,1.4034,1.3878,1.3831,1.3817,1.3661,1.3614,1.3607,1.3451,1.339,1.3356,1.3214,1.3261,1.3302,1.3037,1.3152,1.3329,1.3193,1.3356,1.3573,1.3587,1.36,1.3566,1.3431,1.3512,1.3607,1.3607,1.3709,1.3797,1.3783,1.3777,1.3777,1.3763,1.3648,1.3519,1.3376,1.3241,1.3091,1.2935,1.2922,1.2922,1.2922,1.2793,1.2712,1.2712,1.2569,1.2481,1.2481,1.2467,1.2461,1.2461,1.2461,1.2461,1.2461,1.2461,1.2467,1.2481,1.2467,1.2474,1.767,1.8023,1.8213,1.8111,1.7331,1.6334,1.5398,0.0,1.3431,1.2589,1.2298,1.2155,1.1999,1.1775,1.1192,0.9829,0.0,0.0,0.8702,0.9726,1.1089,1.3109,1.4902,1.611,1.6408,1.6361,1.6218,1.6008,1.5771,1.5716,1.5893,1.5676,1.5615,1.5764,1.5771,1.5839,1.5988,1.5988,1.6022,1.6076,1.5778,1.5594,1.5493,1.5221,1.5079,1.5052,1.493,1.4828,1.4726,1.4577,1.4428,1.4292,1.4231,1.4211,1.419,1.4034,1.4034,1.4082,1.3838,1.3218,1.2564,1.2342,1.1759,1.1333,1.2964,1.3424,1.341,1.3471,1.3512,1.3546,1.3566,1.3661,1.3756,1.3756,1.3756,1.3743,1.3682,1.3715,1.3756,1.3756,1.3878,1.3953,1.3858,1.3919,1.3946,1.3858,1.3705,1.3736,1.3675,1.3614,1.3553,1.3498,1.3173,1.2963,1.2963,1.2901,1.2868,1.2868,1.2813,1.2779,1.2779,1.2691,1.2637,1.2637,1.2549,1.2501,1.2501,1.2501,1.2501,1.2501,1.2596,1.2589,1.7222,1.7738,1.8091,1.7982,1.7093,1.6049,0.0,0.0,1.3227,1.2623,1.2352,1.2189,1.2155,1.1371,1.0348,0.0,0.0,0.6802,0.7425,0.8332,0.9789,1.2169,1.3951,1.5316,1.5995,1.6171,1.6198,1.609,1.5886,1.5859,1.6069,1.5886,1.5818,1.592,1.592,1.5974,1.6083,1.6083,1.6056,1.6008,1.5757,1.556,1.5404,1.5208,1.5086,1.5031,1.4991,1.4882,1.4733,1.4624,1.4468,1.4299,1.385,1.3938,1.4197,1.3205,1.35,1.417,1.304,1.2322,1.176,1.1196,1.0364,0.9858,1.1863,1.2349,1.2256,1.2484,1.2825,1.3043,1.3178,1.3561,1.3905,1.3905,1.3905,1.3899,1.3851,1.3912,1.38,1.3361,1.3429,1.3438,1.2804,1.3224,1.3608,1.3417,1.3333,1.3448,1.3887,1.3462,1.3324,1.3752,1.3471,1.3207,1.3159,1.3159,1.3119,1.303,1.3024,1.3003,1.2963,1.2854,1.28,1.28,1.2691,1.2637,1.2637,1.2637,1.2617,1.2569,1.2678,1.2651,1.6598,1.7202,1.765,1.765,1.6863,1.5886,0.0,0.0,1.3227,1.2623,1.2271,1.206,1.2135,1.026,0.8739,0.8856,0.0,0.0,0.7433,0.8828,1.0196,1.1278,1.2712,1.4,1.4903,1.5649,1.6083,1.6083,1.6076,1.6076,1.6083,1.6076,1.6076,1.6083,1.6083,1.6083,1.6083,1.6083,1.6008,1.5852,1.571,1.556,1.5398,1.5106,1.5052,1.5174,1.5031,1.4882,1.474,1.474,1.4563,1.4122,1.2781,1.3046,1.3945,1.1088,1.1888,1.383,1.0864,1.0734,1.1684,1.0091,0.962,0.9639,0.9826,0.9711,0.9573,0.9597,1.0655,1.1715,1.1847,1.3016,1.4068,1.4068,1.4068,1.4027,1.3871,1.4082,1.3843,1.2325,1.2266,1.2072,1.0514,1.1522,1.2529,1.2529,1.231,1.2686,1.4115,1.2805,1.2294,1.3666,1.3838,1.3777,1.3634,1.362,1.3492,1.3193,1.3173,1.3105,1.305,1.3043,1.3043,1.3043,1.3036,1.2956,1.2956,1.2956,1.2874,1.2725,1.2732,1.2651,1.5425,1.5818,1.6096,1.5988,1.533,1.4618,1.4278,0.0,1.2705,1.242,1.2196,1.2033,1.1925,1.0125,0.8313,0.7005,0.0,0.0,0.6183,0.8393,1.072,1.2756,1.4493,1.5574,1.5859,1.6001,1.6083,1.6083,1.6083,1.6083,1.6083,1.6083,1.6083,1.6083,1.5981,1.5927,1.5927,1.5832,1.5757,1.5703,1.5554,1.5459,1.5404,1.5208,1.514,1.5174,1.5031,1.4943,1.479,1.3575,1.3083,1.2818,1.1298,1.0999,1.1266,1.0377,1.0555,1.1261,1.0249,0.9614,0.9065,0.8536,0.772,0.6939,0.6959,0.8205,0.9597,0.9696,1.0127,1.0563,1.0674,1.1062,1.162,1.2699,1.2176,1.1713,1.2663,1.2181,1.1325,1.0871,1.0896,1.0879,1.0257,1.0669,1.1063,1.0896,1.0826,1.0962,1.1416,1.0991,1.1215,1.2747,1.2926,1.3116,1.3725,1.3777,1.3729,1.3634,1.3627,1.3607,1.3566,1.337,1.3261,1.3261,1.3064,1.2963,1.2963,1.2854,1.2779,1.2725,1.2623,1.2603,0.0,1.4977,1.5208,1.5052,1.4455,0.0,0.0,0.0,1.2379,1.2237,1.2081,1.1932,1.1775,0.949,0.7212,0.5956,0.5156,0.4788,0.5086,0.783,1.0753,1.3341,1.4882,1.5744,1.5798,1.5974,1.6083,1.6083,1.6083,1.6083,1.6083,1.6029,1.5797,1.5196,1.5604,1.5656,1.4962,1.5418,1.5608,1.5554,1.5459,1.5377,1.5323,1.5228,1.5181,1.5174,1.5031,1.4686,0.0,1.2908,1.2074,1.1342,0.9791,0.9571,0.9843,0.8773,0.9041,0.9843,0.8773,0.8145,0.7781,0.7201,0.6393,0.5684,0.5684,0.6803,0.8177,0.8228,0.8728,0.9237,0.9247,0.9726,1.0388,1.141,1.0886,1.0427,1.1436,1.0916,1.0115,0.9561,0.9546,0.9403,0.8788,0.9224,0.9629,0.9538,0.9525,0.9697,1.0212,0.9806,1.0243,1.226,1.2403,1.2879,1.3948,1.415,1.4109,1.3939,1.398,1.396,1.3844,1.3661,1.3566,1.3566,1.339,1.3268,1.3214,1.3003,1.2895,1.2895,1.2745,1.2725,0.0,0.0,0.0,0.0,0.0,0.0,0.0,0.0,0.0,1.2074,1.1925,1.1775,1.1647,0.841,0.5784,0.5798,0.4328,0.3463,0.4364,0.7415,1.0532,1.3155,1.4278,1.4862,1.4977,1.5649,1.6083,1.6083,1.6069,1.6069,1.6069,1.592,1.5146,1.347,1.4937,1.493,1.3453,1.4796,1.5437,1.5398,1.5398,1.5316,1.5181,1.5181,1.5174,1.516,1.5025,1.4117,1.2685,1.2352,1.1352,0.9807,0.8359,0.8502,0.9393,0.6723,0.7435,0.9308,0.6633,0.663,0.752,0.6186,0.5741,0.5652,0.5652,0.5652,0.5741,0.5741,0.6723,0.7724,0.7809,0.8833,0.9862,1.006,0.9991,0.9899,1.0083,1.0064,0.9666,0.8267,0.8142,0.7813,0.6384,0.7383,0.8266,0.8284,0.828,0.8723,0.9942,0.8829,0.9053,1.1894,1.2062,1.2536,1.4253,1.4561,1.455,1.4129,1.4238,1.4183,1.3899,1.3871,1.3858,1.3858,1.3838,1.3749,1.3593,1.3308,1.3166,1.3152,1.3024,1.2963,0.0,0.0,0.0,0.0,0.0,0.0,0.0,0.0,0.0,0.0,0.0,0.0,1.1626,0.8422,0.6278,0.7703,0.6458,0.5542,0.6428,0.9366,1.2196,1.4182,1.5113,1.5472,1.516,1.571,1.6083,1.6083,1.5974,1.5906,1.5906,1.5771,1.4414,1.1675,1.3046,1.3584,1.3193,1.3447,1.4128,1.5235,1.5235,1.5215,1.5181,1.5181,1.512,1.5018,1.4984,1.4066,1.2478,1.1229,0.9907,0.8446,0.6838,0.6454,0.6633,0.592,0.6097,0.6633,0.5918,0.5918,0.6186,0.5831,0.5741,0.5562,0.4845,0.5114,0.5741,0.5741,0.5954,0.6277,0.6342,0.6675,0.7287,0.8488,0.7942,0.7376,0.8602,0.8003,0.7103,0.672,0.6638,0.6633,0.6202,0.6395,0.6669,0.6606,0.6636,0.674,0.6955,0.6746,0.718,0.9053,0.9211,1.0201,1.2859,1.3978,1.4523,1.4414,1.4441,1.4428,1.4353,1.4136,1.4014,1.4014,1.3797,1.3546,1.3281,1.3207,1.3119,1.301,1.2976,1.2963,0.0,0.0,0.0,0.0,0.0,0.0,0.0,0.0,0.0,0.0,0.0,0.0,1.1531,0.874,0.6906,0.8353,0.7035,0.6528,0.8758,1.0702,1.2677,1.4591,1.5262,1.556,1.5594,1.5886,1.6049,1.5981,1.59,1.5825,1.5757,1.4932,1.3403,1.0984,1.0979,1.1232,1.1952,1.2595,1.367,1.5181,1.5181,1.5181,1.5181,1.5181,1.514,1.5065,1.4997,1.3715,1.1597,1.0604,0.8911,0.6909,0.6033,0.5741,0.5741,0.5741,0.5741,0.5741,0.5741,0.5741,0.5652,0.5204,0.5025,0.4845,0.3947,0.405,0.4512,0.4942,0.506,0.5295,0.5813,0.5967,0.6215,0.7128,0.6669,0.6288,0.7144,0.672,0.618,0.6153,0.6169,0.6169,0.6109,0.612,0.612,0.606,0.6101,0.6117,0.606,0.6052,0.6603,0.8155,0.8173,0.9044,1.1339,1.1774,1.2362,1.3519,1.4249,1.4256,1.3616,1.4037,1.4211,1.4075,1.3844,1.3614,1.3383,1.3383,1.3308,1.3166,1.3166,1.3166,0.0,0.0,0.0,0.0,0.0,0.0,0.0,0.0,0.0,0.0,0.0,0.0,0.0,0.8822,0.7275,0.8566,0.7215,0.72,1.0535,1.1083,1.1937,1.4027,1.4384,1.4782,1.5204,1.5506,1.5691,1.5565,1.5714,1.573,1.5608,1.4016,1.2409,1.0878,0.927,0.898,1.0299,1.1831,1.3481,1.5181,1.5181,1.5174,1.5153,1.5174,1.516,1.5113,1.4825,1.3079,1.0518,1.0067,0.8269,0.5812,0.576,0.5741,0.5741,0.5741,0.5741,0.5652,0.5562,0.5473,0.5293,0.4397,0.4042,0.3868,0.2968,0.2715,0.282,0.3607,0.3986,0.4391,0.5262,0.5502,0.5649,0.5789,0.59,0.5911,0.6109,0.6153,0.6177,0.6134,0.6161,0.6169,0.5919,0.595,0.5865,0.5617,0.5658,0.5673,0.5615,0.561,0.6079,0.7393,0.7373,0.794,0.9403,0.8688,0.9139,1.1263,1.2798,1.3132,1.2295,1.3552,1.4175,1.4075,1.3939,1.3804,1.3661,1.3661,1.3593,1.3464,1.3444,1.3444,1.2549,1.1823,0.0,0.0,0.0,0.0,0.0,0.0,0.0,0.0,0.0,0.0,0.0,0.7897,0.6899,0.9478,0.9042,0.8737,0.9826,0.9355,0.9354,1.0727,1.1332,1.1543,1.1332,1.2834,1.3899,1.3875,1.4841,1.5466,1.5445,1.3868,1.2183,1.0668,0.9142,0.8478,0.8774,1.0181,1.2345,1.5181,1.5181,1.512,1.5011,1.5126,1.5045,1.4723,1.361,1.2046,1.0135,0.8919,0.7332,0.5755,0.5744,0.5741,0.5741,0.5741,0.5741,0.5562,0.4756,0.4487,0.4397,0.3409,0.3159,0.2909,0.1908,0.1637,0.1639,0.1818,0.2472,0.3232,0.3422,0.345,0.3759,0.461,0.4831,0.5063,0.5971,0.6183,0.6202,0.6243,0.6218,0.588,0.4965,0.4867,0.4571,0.3584,0.3512,0.3521,0.3488,0.3483,0.3566,0.3721,0.3708,0.4252,0.5721,0.5713,0.5731,0.6165,0.7717,0.9238,1.0952,1.2372,1.3451,1.4075,1.4048,1.396,1.381,1.381,1.3797,1.377,1.3648,1.3661,1.2542,1.2181,1.1871,0.0,0.0,0.0,0.0,0.0,0.0,0.0,0.0,0.0,0.0,0.6615,0.6183,0.7522,0.8492,0.8938,0.8565,0.8717,0.9221,1.0115,1.0488,1.0698,1.0875,1.1751,1.2569,1.3292,1.3818,1.4431,1.5289,1.3727,1.2152,1.0653,0.9204,0.8826,0.9624,1.0183,1.159,1.384,1.4765,1.5106,1.4977,1.512,1.5106,1.4884,1.3474,1.1879,1.0254,0.8746,0.7144,0.5741,0.5741,0.5741,0.5652,0.5114,0.4664,0.4126,0.3678,0.3499,0.3409,0.2423,0.2071,0.1896,0.0898,0.063,0.0633,0.0633,0.1366,0.2294,0.2845,0.3065,0.3194,0.3663,0.3784,0.3912,0.4408,0.4526,0.4542,0.454,0.4542,0.4337,0.3914,0.3812,0.3615,0.3127,0.304,0.3044,0.3031,0.3029,0.3024,0.2916,0.2995,0.3172,0.3821,0.343,0.3987,0.6173,0.6311,0.7075,0.8812,0.9974,1.076,1.0997,1.2225,1.2427,1.1521,1.1836,1.1571,1.0725,1.0159,0.9902,1.2535,1.1927,1.1479,0.0,0.0,0.0,0.0,0.0,0.0,0.0,0.0,0.0,0.5932,0.5714,0.564,0.512,0.7136,0.8395,0.7366,0.8038,0.8882,0.9368,0.9465,0.9625,1.011,1.0424,1.0997,1.1961,1.2522,1.3327,1.4519,1.301,1.1655,1.0542,0.8751,0.8383,0.9525,1.0078,1.1403,1.3325,1.4525,1.5059,1.4923,1.5099,1.4953,1.4506,1.2905,1.1233,0.9491,0.7921,0.632,0.5022,0.5022,0.5022,0.4933,0.4218,0.3499,0.2871,0.2602,0.2512,0.2423,0.1436,0.1077,0.0897,0.0178,0.0,0.0,0.0,0.0541,0.1363,0.2095,0.2305,0.2427,0.2713,0.2734,0.2758,0.3056,0.3071,0.3078,0.3062,0.3073,0.2979,0.2768,0.2763,0.2669,0.2383,0.2383,0.2383,0.2383,0.2383,0.2383,0.2287,0.2273,0.2263,0.2263,0.1498,0.2428,0.5446,0.4961,0.5118,0.6451,0.7443,0.8063,0.8425,1.0195,1.0585,0.9344,0.9845,0.9315,0.7849,0.7136,0.6789,1.2508,1.0403,0.85,1.0158,0.9693,0.0,1.2054,0.9761,0.0,1.0147,1.0557,0.9557,0.621,0.574,0.5333,0.3576,0.5836,0.7442,0.6404,0.6392,0.6555,0.6632,0.6643,0.6754,0.6771,0.7925,0.8672,0.8782,1.1215,1.2778,1.2759,1.1355,1.0427,1.0335,0.7589,0.6117,0.6204,0.8961,1.1917,1.4973,1.5045,1.4903,1.4767,1.5052,1.428,1.2655,1.1263,0.932,0.6911,0.5248,0.3951,0.314,0.314,0.314,0.305,0.305,0.2961,0.2781,0.1795,0.1526,0.1347,0.0449,0.009,0.009,0.0,0.0,0.0,0.0,0.009,0.009,0.0182,0.0183,0.0458,0.1386,0.1587,0.189,0.2886,0.307,0.3059,0.3085,0.307,0.267,0.1812,0.1621,0.1335,0.0382,0.0191,0.0191,0.0191,0.0191,0.0191,0.0191,0.0191,0.0191,0.0191,0.0191,0.019,0.0476,0.1685,0.2869,0.3877,0.516,0.6778,0.8513,0.8783,0.8738,0.8647,0.8744,0.8207,0.7129,0.697,0.6976,1.2079,0.9646,0.7305,0.9295,0.8384,0.0,0.0,0.7259,0.6341,0.7034,0.7288,0.7031,0.5666,0.4195,0.3359,0.3954,0.4991,0.589,0.6115,0.6218,0.6273,0.6259,0.6324,0.6357,0.6316,0.6821,0.741,0.8288,0.9275,1.0281,1.1253,1.0633,0.9871,0.8957,0.7918,0.7279,0.7232,0.9234,1.1313,1.361,1.4389,1.4794,1.474,1.4855,1.4014,1.2443,1.0993,0.8957,0.6577,0.4961,0.3769,0.2871,0.2871,0.2512,0.1974,0.1974,0.1615,0.1077,0.0628,0.0539,0.0449,0.009,0.0,0.0,0.0,0.0,0.0,0.0,0.0,0.0,0.0,0.0,0.0092,0.0463,0.0562,0.0665,0.1053,0.1147,0.1146,0.115,0.1147,0.1049,0.0668,0.0572,0.0477,0.0095,0.0,0.0,0.0,0.0,0.0,0.0,0.0,0.0,0.0,0.0,0.0,0.0,0.0565,0.1028,0.1308,0.2412,0.3412,0.413,0.5595,0.595,0.5022,0.5381,0.4835,0.3559,0.289,0.2613,1.1015,0.8388,0.5802,0.0,0.0,0.0,0.5625,0.5707,0.5613,0.5493,0.4969,0.4581,0.4726,0.3012,0.1931,0.3372,0.4138,0.4828,0.5545,0.6006,0.6145,0.5833,0.5866,0.5884,0.5766,0.568,0.618,0.7551,0.7892,0.8533,0.9594,0.9531,0.9045,0.8054,0.7656,0.7569,0.8054,0.8955,1.0268,1.1839,1.28,1.3441,1.3939,1.3984,1.2974,1.1099,0.9662,0.7729,0.5455,0.3964,0.2871,0.1974,0.1974,0.1525,0.0988,0.0991,0.0541,0.0,0.0,0.0,0.0,0.0,0.0,0.0,0.0,0.0,0.0,0.0,0.0,0.0,0.0,0.0,0.0,0.0,0.0,0.0,0.0,0.0,0.0,0.0,0.0,0.0,0.0,0.0,0.0,0.0,0.0,0.0,0.0,0.0,0.0,0.0,0.0,0.0,0.0,0.0,0.0,0.0,0.0,0.0,0.0,0.0656,0.1119,0.1395,0.3063,0.343,0.2406,0.2773,0.2219,0.0925,0.0276,0.0,0.9387,0.6258,0.3505,0.0,0.0,0.0,0.5444,0.5837,0.5906,0.6637,0.4749,0.3124,0.3491,0.2478,0.146,0.1475,0.3207,0.459,0.4635,0.5512,0.5822,0.49,0.4727,0.4689,0.4637,0.4612,0.4902,0.5829,0.7232,0.7963,0.7881,0.7877,0.7877,0.7874,0.6451,0.6362,0.7874,0.7877,0.8636,1.0178,1.0068,1.0878,1.235,1.2477,1.0912,0.791,0.7094,0.5278,0.2913,0.1803,0.0808,0.0,0.0,0.0,0.0,0.0,0.0,0.0,0.0,0.0,0.0,0.0,0.0,0.0,0.0,0.0,0.0,0.0,0.0,0.0,0.0,0.0,0.0,0.0,0.0,0.0,0.0,0.0,0.0,0.0,0.0,0.0,0.0,0.0,0.0,0.0,0.0,0.0,0.0,0.0,0.0,0.0,0.0,0.0,0.0,0.0,0.0,0.0,0.0,0.0,0.0,0.0,0.0475,0.1409,0.1409,0.1402,0.1388,0.1388,0.0926,0.0,0.0,0.0,0.6629,0.4049,0.1389,0.3308,0.2284,0.1144,0.0,0.4257,0.0,0.0,0.603,0.5015,0.3969,0.249,0.1515,0.1498,0.2013,0.2732,0.3472,0.3818,0.3938,0.3681,0.3605,0.3607,0.3568,0.4091,0.461,0.4853,0.5839,0.6413,0.639,0.6384,0.6359,0.631,0.5919,0.5941,0.6384,0.7403,0.8157,0.8632,0.9589,1.0342,1.0811,1.076,0.9734,0.7915,0.6925,0.5109,0.2763,0.1067,0.0268,0.0,0.0,0.0,0.0,0.0,0.0,0.0,0.0,0.0,0.0,0.0,0.0,0.0,0.0,0.0,0.0,0.0,0.0,0.0,0.0,0.0,0.0,0.0,0.0,0.0,0.0,0.0,0.0,0.0,0.0,0.0,0.0,0.0,0.0,0.0,0.0,0.0,0.0,0.0,0.0,0.0,0.0,0.0,0.0,0.0,0.0,0.0,0.0,0.0,0.0,0.0,0.0095,0.038,0.038,0.0379,0.0378,0.0378,0.0284,0.0,0.0,0.0,0.4578,0.2444,0.0309,0.142,0.0898,0.0254,0.1231,0.3352,0.5248,0.5287,0.5137,0.4512,0.2629,0.1541,0.0903,0.0896,0.1283,0.177,0.2408,0.283,0.294,0.2504,0.2431,0.2437,0.2501,0.2939,0.356,0.4371,0.4901,0.5214,0.5125,0.5475,0.5534,0.5041,0.542,0.5975,0.6529,0.6807,0.7282,0.7877,0.8203,0.8319,0.8406,0.8977,0.8413,0.6984,0.5617,0.3727,0.1677,0.0442,0.0,0.0,0.0,0.0,0.0,0.0,0.0,0.0,0.0,0.0,0.0,0.0,0.0,0.0,0.0,0.0,0.0,0.0,0.0,0.0,0.0,0.0,0.0,0.0,0.0,0.0,0.0,0.0,0.0,0.0,0.0,0.0,0.0,0.0,0.0,0.0,0.0,0.0,0.0,0.0,0.0,0.0,0.0,0.0,0.0,0.0,0.0,0.0,0.0,0.0,0.0,0.0,0.0,0.0,0.0,0.0,0.0,0.0,0.0,0.0,0.0,0.0,0.2851,0.1442,0.0,0.0,0.0085,0.0348,0.1179,0.2965,0.4136,0.3129,0.2979,0.2474,0.037,0.0091,0.009,0.0,0.0736,0.1387,0.1384,0.2236,0.2429,0.1478,0.1385,0.1386,0.1384,0.1361,0.2163,0.3999,0.424,0.4285,0.4148,0.5024,0.5173,0.4247,0.5028,0.6187,0.7563,0.628,0.631,0.7677,0.6372,0.567,0.5636,0.6981,0.6716,0.5191,0.3539,0.1674,0.0,0.0,0.0,0.0,0.0,0.0,0.0,0.0,0.0,0.0,0.0,0.0,0.0,0.0,0.0,0.0,0.0,0.0,0.0,0.0,0.0,0.0,0.0,0.0,0.0,0.0,0.0,0.0,0.0,0.0,0.0,0.0,0.0,0.0,0.0,0.0,0.0,0.0,0.0,0.0,0.0,0.0,0.0,0.0,0.0,0.0,0.0,0.0,0.0,0.0,0.0,0.0,0.0,0.0,0.0,0.0,0.0,0.0,0.0,0.0,0.0,0.0,0.0,0.0,0.0702,0.031,0.0,0.0,0.0608,0.127,0.1406,0.2434,0.3065,0.1954,0.2424,0.2429,0.0375,0.0649,0.0918,0.0091,0.0184,0.0368,0.0362,0.0551,0.0554,0.0362,0.0364,0.0365,0.0362,0.099,0.1617,0.1981,0.3414,0.3915,0.3142,0.4011,0.4407,0.4068,0.427,0.4896,0.5942,0.5715,0.5746,0.6121,0.5757,0.5237,0.4553,0.4895,0.4107,0.2302,0.1911,0.1038,0.0,0.0,0.0,0.0,0.0,0.0,0.0,0.0,0.0,0.0,0.0,0.0,0.0,0.0,0.0,0.0,0.0,0.0,0.0,0.0,0.0,0.0,0.0,0.0,0.0,0.0,0.0,0.0,0.0,0.0,0.0,0.0,0.0,0.0,0.0,0.0,0.0,0.0,0.0,0.0,0.0,0.0,0.0,0.0,0.0,0.0,0.0,0.0,0.0,0.0,0.0,0.0,0.0,0.0,0.0,0.0,0.0,0.0,0.0,0.0,0.0,0.0,0.0,0.0,0.0,0.0,0.0,0.0,0.0,0.0738,0.075,0.1213,0.1479,0.0828,0.1575,0.1865,0.028,0.0463,0.0642,0.0091,0.0,0.0,0.0,0.0,0.0,0.0,0.0,0.0,0.0,0.0445,0.0891,0.1336,0.2316,0.2647,0.2158,0.3449,0.3936,0.3365,0.4229,0.4935,0.5474,0.5474,0.5504,0.5559,0.5097,0.415,0.2869,0.3429,0.2812,0.1391,0.1375,0.0858,0.0,0.0,0.0,0.0,0.0,0.0,0.0,0.0,0.0,0.0,0.0,0.0,0.0,0.0,0.0,0.0,0.0,0.0,0.0,0.0,0.0,0.0,0.0,0.0,0.0,0.0,0.0,0.0,0.0,0.0,0.0,0.0,0.0,0.0,0.0,0.0,0.0,0.0,0.0,0.0,0.0,0.0,0.0,0.0,0.0,0.0,0.0,0.0,0.0,0.0,0.0,0.0,0.0,0.0,0.0,0.0,0.0,0.0,0.0,0.0,0.0,0.0,0.0,0.0,0.0,0.0,0.0,0.0,0.0,0.0,0.0,0.0,0.0,0.0,0.0641,0.1013,0.0184,0.0,0.0,0.0,0.0,0.0,0.0,0.0,0.0,0.0,0.0,0.0,0.0,0.0,0.0352,0.1057,0.1322,0.131,0.1195,0.2898,0.3475,0.2677,0.4266,0.5214,0.5444,0.5395,0.5338,0.5267,0.4195,0.2827,0.1383,0.2074,0.1979,0.1198,0.1195,0.0683,0.0,0.0,0.0,0.0,0.0,0.0,0.0,0.0,0.0,0.0,0.0,0.0,0.0,0.0,0.0,0.0,0.0,0.0,0.0,0.0,0.0,0.0,0.0,0.0,0.0,0.0,0.0,0.0,0.0,0.0,0.0,0.0,0.0,0.0,0.0,0.0,0.0,0.0,0.0,0.0,0.0,0.0,0.0,0.0,0.0,0.0,0.0,0.0,0.0,0.0,0.0,0.0,0.0,0.0,0.0,0.0,0.0,0.0,0.0,0.0,0.0,0.0,0.0,0.0,0.0,0.0,0.0,0.0,0.0,0.0,0.0,0.0,0.0,0.0,0.009,0.018,0.0,0.0,0.0,0.0,0.0,0.0,0.0,0.0,0.0,0.0,0.0,0.0,0.0,0.0,0.0087,0.0174,0.0958,0.1036,0.0253,0.1939,0.2839,0.2616,0.3595,0.4518,0.5316,0.5311,0.4922,0.4223,0.2529,0.1519,0.1267,0.0676,0.034,0.0171,0.017,0.0084,0.0,0.0,0.0,0.0,0.0,0.0,0.0,0.0,0.0,0.0,0.0,0.0,0.0,0.0,0.0,0.0,0.0,0.0,0.0,0.0,0.0,0.0,0.0,0.0,0.0,0.0,0.0,0.0,0.0,0.0,0.0,0.0,0.0,0.0,0.0,0.0,0.0,0.0,0.0,0.0,0.0,0.0,0.0,0.0,0.0,0.0,0.0,0.0,0.0,0.0,0.0,0.0,0.0,0.0,0.0,0.0,0.0,0.0,0.0,0.0,0.0,0.0,0.0,0.0,0.0,0.0,0.0,0.0,0.0,0.0,0.0,0.0,0.0,0.0,0.0,0.0,0.0,0.0,0.0,0.0,0.0,0.0,0.0,0.0,0.0,0.0,0.0,0.0,0.0,0.0,0.0,0.0,0.0342,0.0424,0.0,0.1657,0.263,0.2602,0.3903,0.4809,0.5243,0.4781,0.3824,0.2439,0.1682,0.1009,0.0589,0.0168,0.0,0.0,0.0,0.0,0.0,0.0,0.0,0.0,0.0,0.0,0.0,0.0,0.0,0.0,0.0,0.0,0.0,0.0,0.0,0.0,0.0,0.0,0.0,0.0,0.0,0.0,0.0,0.0,0.0,0.0,0.0,0.0,0.0,0.0,0.0,0.0,0.0,0.0,0.0,0.0,0.0,0.0,0.0,0.0,0.0,0.0,0.0,0.0,0.0,0.0,0.0,0.0,0.0,0.0,0.0,0.0,0.0,0.0,0.0,0.0,0.0,0.0,0.0,0.0,0.0,0.0,0.0,0.0,0.0,0.0,0.0,0.0,0.0,0.0,0.0,0.0,0.0,0.0,0.0,0.0,0.0,0.0,0.0,0.0,0.0,0.0,0.0,0.0,0.0,0.0,0.0,0.0,0.0,0.0,0.0,0.0,0.0,0.0,0.0,0.1629,0.2586,0.2579,0.427,0.5083,0.4857,0.3775,0.2578,0.1262,0.1093,0.0589,0.0,0.0,0.0,0.0,0.0,0.0,0.0,0.0,0.0,0.0,0.0,0.0,0.0,0.0,0.0,0.0,0.0,0.0,0.0,0.0,0.0,0.0,0.0,0.0,0.0,0.0,0.0,0.0,0.0,0.0,0.0,0.0,0.0,0.0,0.0,0.0,0.0,0.0,0.0,0.0,0.0,0.0,0.0,0.0,0.0,0.0,0.0,0.0,0.0,0.0,0.0,0.0,0.0,0.0,0.0,0.0,0.0,0.0,0.0,0.0,0.0,0.0,0.0,0.0,0.0,0.0,0.0,0.0,0.0,0.0,0.0,0.0,0.0,0.0,0.0,0.0,0.0,0.0,0.0,0.0,0.0,0.0,0.0,0.0,0.0,0.0,0.0,0.0,0.0,0.0,0.0,0.0,0.0,0.0,0.0,0.0,0.0,0.0,0.0,0.0,0.0,0.161,0.2466,0.2517,0.4164,0.4663,0.3999,0.229,0.1414,0.1262,0.0421,0.0084,0.0,0.0,0.0,0.0,0.0,0.0,0.0,0.0,0.0,0.0,0.0,0.0,0.0,0.0,0.0,0.0,0.0,0.0,0.0,0.0,0.0,0.0,0.0,0.0,0.0,0.0,0.0,0.0,0.0,0.0,0.0,0.0,0.0,0.0,0.0,0.0,0.0,0.0,0.0,0.0,0.0,0.0,0.0,0.0,0.0,0.0,0.0,0.0,0.0,0.0,0.0,0.0,0.0,0.0,0.0,0.0,0.0,0.0,0.0,0.0,0.0,0.0,0.0,0.0,0.0,0.0,0.0,0.0,0.0,0.0,0.0,0.0,0.0,0.0,0.0,0.0,0.0,0.0,0.0,0.0,0.0,0.0,0.0,0.0,0.0,0.0,0.0,0.0,0.0,0.0,0.0,0.0,0.0,0.0,0.0,0.0,0.0,0.0,0.0,0.0,0.0,0.1597,0.2522,0.2511,0.3609,0.3565,0.2262,0.163,0.0991,0.0421,0.0168,0.0,0.0,0.0,0.0,0.0,0.0,0.0,0.0,0.0,0.0,0.0,0.0,0.0,0.0,0.0,0.0,0.0,0.0,0.0,0.0,0.0,0.0,0.0,0.0,0.0,0.0,0.0,0.0,0.0,0.0,0.0,0.0,0.0,0.0,0.0,0.0,0.0,0.0,0.0,0.0,0.0,0.0,0.0,0.0,0.0,0.0,0.0,0.0,0.0,0.0,0.0,0.0,0.0,0.0,0.0,0.0,0.0,0.0,0.0,0.0,0.0,0.0,0.0,0.0,0.0,0.0,0.0,0.0,0.0,0.0,0.0,0.0,0.0,0.0,0.0,0.0,0.0,0.0,0.0,0.0,0.0,0.0,0.0,0.0,0.0,0.0,0.0,0.0,0.0,0.0,0.0,0.0,0.0,0.0,0.0,0.0,0.0,0.0,0.0,0.0,0.0,0.0,0.1587,0.2668,0.2903,0.2983,0.2456,0.1293,0.097,0.0573,0.0,0.0,0.0,0.0,0.0,0.0,0.0,0.0,0.0,0.0,0.0,0.0,0.0,0.0,0.0,0.0,0.0,0.0,0.0,0.0,0.0,0.0,0.0,0.0,0.0,0.0,0.0,0.0,0.0,0.0,0.0,0.0,0.0,0.0,0.0,0.0,0.0,0.0,0.0,0.0,0.0,0.0,0.0,0.0,0.0,0.0,0.0,0.0,0.0,0.0,0.0,0.0,0.0,0.0,0.0,0.0,0.0,0.0,0.0,0.0,0.0,0.0,0.0,0.0,0.0,0.0,0.0,0.0,0.0,0.0,0.0,0.0,0.0,0.0,0.0,0.0,0.0,0.0,0.0,0.0,0.0,0.0,0.0,0.0,0.0,0.0,0.0,0.0,0.0,0.0,0.0,0.0,0.0,0.0,0.0,0.0,0.0,0.0,0.0,0.0,0.0,0.0,0.0,0.0,0.158,0.2825,0.3768,0.2199,0.1264,0.128,0.04,0.0,0.0,0.0,0.0,0.0,0.0,0.0,0.0,0.0,0.0,0.0,0.0,0.0,0.0,0.0,0.0,0.0,0.0,0.0,0.0,0.0,0.0,0.0,0.0,0.0,0.0,0.0,0.0,0.0,0.0,0.0,0.0,0.0,0.0,0.0,0.0,0.0,0.0,0.0,0.0,0.0,0.0,0.0,0.0,0.0,0.0,0.0,0.0,0.0,0.0,0.0,0.0,0.0,0.0,0.0,0.0,0.0,0.0,0.0,0.0,0.0,0.0,0.0,0.0,0.0,0.0,0.0,0.0,0.0,0.0,0.0,0.0,0.0,0.0,0.0,0.0,0.0,0.0,0.0,0.0,0.0,0.0,0.0,0.0,0.0,0.0,0.0,0.0,0.0,0.0,0.0,0.0,0.0,0.0,0.0,0.0,0.0,0.0,0.0,0.0,0.0,0.0,0.0,0.0,0.0,0.1028,0.2042,0.2825,0.1806,0.1027,0.04,0.016,0.0,0.0,0.0,0.0,0.0,0.0,0.0,0.0,0.0,0.0,0.0,0.0,0.0,0.0,0.0,0.0,0.0,0.0,0.0,0.0,0.0,0.0,0.0,0.0,0.0,0.0,0.0,0.0,0.0,0.0,0.0,0.0,0.0,0.0,0.0,0.0,0.0,0.0,0.0,0.0,0.0,0.0,0.0,0.0,0.0,0.0,0.0,0.0,0.0,0.0,0.0,0.0,0.0,0.0,0.0,0.0,0.0,0.0,0.0,0.0,0.0,0.0,0.0,0.0,0.0,0.0,0.0,0.0,0.0,0.0,0.0,0.0,0.0,0.0,0.0,0.0,0.0,0.0,0.0,0.0,0.0,0.0,0.0,0.0,0.0,0.0,0.0,0.0,0.0,0.0,0.0,0.0,0.0,0.0,0.0,0.0,0.0,0.0,0.0,0.0,0.0,0.0,0.0,0.0311,0.103,0.0867,0.1256,0.2433,0.1335,0.0552,0.0,0.0,0.0,0.0,0.0,0.0,0.0,0.0,0.0,0.0,0.0,0.0,0.0,0.0,0.0,0.0,0.0,0.0,0.0,0.0,0.0,0.0,0.0,0.0,0.0,0.0,0.0,0.0,0.0,0.0,0.0,0.0,0.0,0.0,0.0,0.0,0.0,0.0,0.0,0.0,0.0,0.0,0.0,0.0,0.0,0.0,0.0,0.0,0.0,0.0,0.0,0.0,0.0,0.0,0.0,0.0,0.0,0.0,0.0,0.0,0.0,0.0,0.0,0.0,0.0,0.0,0.0,0.0,0.0,0.0,0.0,0.0,0.0,0.0,0.0,0.0,0.0,0.0,0.0,0.0,0.0,0.0,0.0,0.0,0.0,0.0,0.0,0.0,0.0,0.0,0.0,0.0,0.0,0.0,0.0,0.0,0.0,0.0,0.0,0.0,0.0,0.0,0.0,0.0,0.0,0.0698,0.2275,0.0864,0.0707,0.2354,0.0864,0.0,0.0,0.0,0.0,0.0,0.0,0.0,0.0,0.0,0.0,0.0,0.0,0.0,0.0,0.0,0.0,0.0,0.0,0.0,0.0,0.0,0.0,0.0,0.0,0.0,0.0,0.0,0.0,0.0,0.0,0.0,0.0,0.0,0.0,0.0,0.0,0.0,0.0,0.0,0.0,0.0,0.0,0.0,0.0,0.0,0.0,0.0,0.0,0.0,0.0,0.0,0.0,0.0,0.0,0.0,0.0,0.0,0.0,0.0,0.0,0.0,0.0,0.0,0.0,0.0,0.0,0.0,0.0,0.0,0.0,0.0,0.0,0.0,0.0,0.0,0.0,0.0,0.0,0.0,0.0,0.0,0.0,0.0,0.0,0.0,0.0,0.0,0.0,0.0,0.0,0.0,0.0,0.0,0.0,0.0,0.0,0.0,0.0,0.0,0.0,0.0,0.0,0.0,0.0,0.0,0.0,0.0465,0.1491,0.055,0.0471,0.1492,0.055,0.0,0.0,0.0,0.0,0.0,0.0,0.0,0.0,0.0,0.0,0.0,0.0,0.0,0.0,0.0,0.0,0.0,0.0,0.0,0.0,0.0,0.0,0.0,0.0,0.0,0.0,0.0,0.0,0.0,0.0,0.0,0.0,0.0,0.0,0.0,0.0,0.0,0.0,0.0,0.0,0.0,0.0,0.0,0.0,0.0,0.0,0.0,0.0,0.0,0.0,0.0,0.0,0.0,0.0,0.0,0.0,0.0,0.0,0.0,0.0,0.0,0.0,0.0,0.0,0.0,0.0,0.0,0.0,0.0,0.0,0.0,0.0,0.0,0.0,0.0,0.0,0.0,0.0,0.0,0.0,0.0,0.0,0.0,0.0,0.0,0.0,0.0,0.0,0.0,0.0,0.0,0.0,0.0,0.0,0.0,0.0,0.0,0.0,0.0,0.0,0.0,0.0,0.0,0.0,0.0,0.0,0.0387,0.1245,0.047,0.0393,0.1256,0.0471,0.0,0.0,0.0,0.0,0.0,0.0,0.0,0.0,0.0,0.0,0.0,0.0,0.0,0.0,0.0,0.0,0.0,0.0,0.0,0.0,0.0,0.0,0.0,0.0,0.0,0.0,0.0,0.0,0.0,0.0,0.0,0.0,0.0,0.0,0.0,0.0,0.0,0.0,0.0,0.0,0.0,0.0,0.0,0.0,0.0,0.0,0.0,0.0,0.0,0.0,0.0,0.0,0.0,0.0,0.0,0.0,0.0,0.0,0.0,0.0,0.0,0.0,0.0,0.0,0.0,0.0,0.0,0.0,0.0,0.0,0.0,0.0,0.0,0.0,0.0,0.0,0.0,0.0,0.0,0.0,0.0,0.0,0.0,0.0,0.0,0.0,0.0,0.0,0.0,0.0,0.0,0.0,0.0,0.0,0.0,0.0,0.0,0.0,0.0,0.0,0.0,0.0,0.0,0.0,0.0,0.0,0.0307,0.1006,0.0391,0.0314,0.1021,0.0393,0.0,0.0,0.0,0.0,0.0,0.0,0.0,0.0,0.0,0.0,0.0,0.0,0.0,0.0,0.0,0.0,0.0,0.0,0.0,0.0,0.0,0.0,0.0,0.0,0.0,0.0,0.0,0.0,0.0,0.0,0.0,0.0,0.0,0.0,0.0,0.0,0.0,0.0,0.0,0.0,0.0,0.0,0.0,0.0,0.0,0.0,0.0,0.0,0.0,0.0,0.0,0.0,0.0,0.0,0.0,0.0,0.0,0.0,0.0,0.0,0.0,0.0,0.0,0.0,0.0,0.0,0.0,0.0,0.0,0.0,0.0,0.0,0.0,0.0,0.0,0.0,0.0,0.0,0.0,0.0,0.0,0.0,0.0,0.0,0.0,0.0,0.0,0.0,0.0,0.0,0.0,0.0,0.0,0.0,0.0,0.0,0.0,0.0,0.0,0.0,0.0,0.0,0.0,0.0,0.0,0.0,0.0076,0.0156,0.0078,0.0079,0.0157,0.0079,0.0,0.0,0.0,0.0,0.0,0.0,0.0,0.0,0.0,0.0,0.0,0.0,0.0,0.0,0.0,0.0,0.0,0.0,0.0,0.0,0.0,0.0,0.0,0.0,0.0,0.0,0.0,0.0,0.0,0.0,0.0,0.0,0.0,0.0,0.0,0.0,0.0,0.0,0.0,0.0,0.0,0.0,0.0,0.0,0.0,0.0,0.0,0.0,0.0,0.0,0.0,0.0,0.0,0.0,0.0,0.0,0.0,0.0,0.0,0.0,0.0,0.0,0.0,0.0,0.0,0.0,0.0,0.0,0.0,0.0,0.0,0.0,0.0,0.0,0.0,0.0,0.0,0.0,0.0,0.0,0.0,0.0,0.0,0.0,0.0,0.0,0.0,0.0,0.0,0.0,0.0,0.0,0.0,0.0,0.0,0.0,0.0,0.0,0.0,0.0,0.0,0.0,0.0,0.0,0.0,0.0,0.0,0.0,0.0,0.0,0.0,0.0,0.0,0.0,0.0,0.0,0.0,0.0,0.0,0.0,0.0,0.0,0.0,0.0,0.0,0.0,0.0,0.0,0.0,0.0,0.0,0.0,0.0,0.0,0.0,0.0,0.0,0.0,0.0,0.0,0.0,0.0,0.0,0.0,0.0,0.0,0.0,0.0,0.0,0.0,0.0,0.0,0.0,0.0,0.0,0.0,0.0,0.0,0.0,0.0,0.0,0.0,0.0,0.0,0.0,0.0,0.0,0.0,0.0,0.0,0.0,0.0,0.0,0.0,0.0,0.0,0.0,0.0,0.0,0.0,0.0,0.0,0.0,0.0,0.0,0.0,0.0,0.0,0.0,0.0,0.0,0.0,0.0,0.0,0.0,0.0,0.0,0.0,0.0,0.0,0.0,0.0,0.0,0.0,0.0,0.0,0.0,0.0,0.0,0.0,0.0,0.0,0.0,0.0,0.0,0.0,0.0,0.0,0.0,0.0,0.0,0.0,0.0,0.0,0.0,0.0,0.0,0.0,0.0,0.0,0.0,0.0,0.0,0.0,0.0,0.0,0.0,0.0,0.0,0.0,0.0,0.0,0.0,0.0,0.0,0.0,0.0,0.0,0.0,0.0,0.0,0.0,0.0,0.0,0.0,0.0,0.0,0.0,0.0,0.0,0.0,0.0,0.0,0.0,0.0,0.0,0.0,0.0,0.0,0.0,0.0,0.0,0.0,0.0,0.0,0.0,0.0,0.0,0.0,0.0,0.0,0.0,0.0,0.0,0.0,0.0,0.0,0.0,0.0,0.0,0.0,0.0,0.0,0.0,0.0,0.0,0.0,0.0,0.0,0.0,0.0,0.0,0.0,0.0,0.0,0.0,0.0,0.0,0.0,0.0,0.0,0.0,0.0,0.0,0.0,0.0,0.0,0.0,0.0,0.0,0.0,0.0,0.0,0.0,0.0,0.0,0.0,0.0,0.0,0.0,0.0,0.0,0.0,0.0,0.0,0.0,0.0,0.0,0.0,0.0,0.0,0.0,0.0,0.0,0.0,0.0,0.0,0.0,0.0,0.0,0.0,0.0,0.0,0.0,0.0,0.0,0.0,0.0,0.0,0.0,0.0,0.0,0.0,0.0,0.0,0.0,0.0,0.0,0.0,0.0,0.0,0.0,0.0,0.0,0.0,0.0,0.0,0.0,0.0,0.0,0.0,0.0,0.0,0.0,0.0,0.0,0.0,0.0,0.0,0.0,0.0,0.0,0.0,0.0,0.0,0.0,0.0,0.0,0.0,0.0,0.0,0.0,0.0,0.0,0.0,0.0,0.0,0.0,0.0,0.0,0.0,0.0,0.0,0.0,0.0,0.0,0.0,0.0,0.0,0.0,0.0,0.0,0.0,0.0,0.0,0.0,0.0,0.0,0.0,0.0,0.0,0.0,0.0,0.0,0.0,0.0,0.0,0.0,0.0,0.0,0.0,0.0,0.0,0.0,0.0,0.0,0.0,0.0,0.0,0.0,0.0,0.0,0.0,0.0,0.0,0.0,0.0,0.0,0.0,0.0,0.0,0.0,0.0,0.0,0.0,0.0,0.0,0.0,0.0,0.0,0.0,0.0,0.0,0.0,0.0,0.0,0.0,0.0,0.0,0.0,0.0,0.0,0.0,0.0,0.0,0.0,0.0,0.0,0.0,0.0,0.0,0.0,0.0,0.0,0.0,0.0,0.0,0.0,0.0,0.0,0.0,0.0,0.0,0.0,0.0,0.0,0.0,0.0,0.0,0.0,0.0,0.0,0.0,0.0,0.0,0.0,0.0,0.0,0.0,0.0,0.0,0.0,0.0,0.0,0.0,0.0,0.0,0.0,0.0,0.0,0.0,0.0,0.0,0.0,0.0,0.0,0.0,0.0,0.0,0.0,0.0,0.0,0.0,0.0,0.0,0.0,0.0,0.0,0.0,0.0,0.0,0.0,0.0,0.0,0.0,0.0,0.0,0.0,0.0,0.0,0.0,0.0,0.0,0.0,0.0,0.0,0.0,0.0,0.0,0.0,0.0,0.0,0.0,0.0,0.0,0.0,0.0,0.0,0.0,0.0,0.0,0.0,0.0,0.0,0.0,0.0,0.0,0.0,0.0,0.0,0.0,0.0,0.0,0.0,0.0,0.0,0.0,0.0,0.0,0.0,0.0,0.0,0.0,0.0,0.0,0.0,0.0,0.0,0.0,0.0,0.0,0.0,0.0,0.0,0.0,0.0,0.0,0.0,0.0,0.0,0.0,0.0,0.0,0.0,0.0,0.0,0.0,0.0,0.0,0.0,0.0,0.0,0.0,0.0,0.0,0.0,0.0]}]]